GFSSGP_850_rhum_000.txt.gz
RH
31 28 26 27 26 27 23 25 29 26 24 20 20 21 18 17 16 22 20 22 22 22 30 42 80 77 80 79 76 77 77 78 77 60 95 85 86 92 95 81 92 96 99 62 76 85 91 89 91
33 27 23 30 21 24 19 26 31 27 20 20 20 22 20 16 20 29 30 23 21 22 28 70 84 86 82 83 68 70 76 76 75 58 96 97 92 94 94 84 98 76 71 61 51 67 91 88 94
35 27 23 23 30 23 25 28 22 19 21 22 20 18 17 17 21 30 21 22 21 24 28 44 86 78 73 79 80 80 72 69 60 58 84 91 92 88 91 94 92 67 64 56 47 40 73 75 89
36 29 24 21 17 19 26 23 18 21 21 24 21 18 19 18 26 20 21 21 23 28 31 30 65 67 77 81 81 75 78 75 56 46 75 85 92 88 91 89 86 69 63 60 55 46 44 54 59
36 29 28 30 30 20 16 18 19 22 22 22 25 20 19 21 22 22 21 19 24 30 39 35 62 75 72 63 69 69 75 86 80 54 77 82 84 89 86 93 91 87 81 55 62 80 75 61 49
33 30 31 34 30 26 24 22 22 21 22 23 22 20 22 26 26 24 21 19 25 33 38 56 65 81 61 75 86 84 83 90 87 58 66 87 82 92 86 88 90 98 92 73 91 98 91 95 92
37 33 33 33 31 29 24 20 20 23 22 22 24 21 20 28 21 28 23 20 23 31 38 49 80 71 77 85 86 89 83 94 92 80 53 64 87 88 82 88 96 91 93 90 63 90 88 93 89
41 33 36 33 29 32 25 21 30 26 23 26 23 19 19 32 22 24 29 24 21 29 35 50 80 96 98 97 69 82 91 88 67 53 36 38 47 52 58 58 66 57 63 54 39 37 46 58 81
45 39 38 35 35 28 24 28 31 33 31 24 24 23 25 22 22 20 28 30 25 24 31 37 55 92 96 97 92 57 75 59 48 36 27 25 62 68 38 42 39 38 40 42 41 43 46 48 49
43 42 36 30 27 28 28 33 35 34 27 24 21 23 25 24 26 24 42 48 34 26 26 36 42 53 84 71 80 92 93 87 89 55 56 50 62 63 33 35 38 41 43 46 49 51 51 50 76
45 42 31 34 33 32 34 34 36 36 33 25 23 22 24 26 26 27 30 34 47 31 27 28 35 45 51 54 77 88 69 64 53 41 46 47 44 48 48 50 52 56 62 60 70 67 76 76 79
47 41 35 35 39 40 37 37 38 36 36 32 31 30 28 26 24 23 24 22 28 30 36 34 31 34 43 48 45 55 52 46 49 45 44 46 50 54 58 64 70 71 83 87 85 93 91 87 93
49 37 41 40 41 42 43 41 37 38 34 33 33 32 28 26 24 22 17 19 26 32 36 36 35 33 36 42 45 46 51 51 53 54 61 65 68 72 77 86 85 88 93 92 95 94 97 98 96
46 43 41 38 41 41 42 37 40 32 30 29 28 29 29 25 21 23 20 24 28 30 31 30 30 32 34 38 42 46 51 58 58 62 66 69 72 77 81 81 84 86 94 88 89 90 84 83 90
46 50 42 40 42 39 41 38 33 30 24 26 26 28 32 25 26 26 24 27 28 28 24 22 21 23 32 38 44 48 52 56 60 63 68 73 74 76 78 77 77 96 93 84 91 90 93 97 99
56 52 54 37 40 40 37 40 26 26 24 23 26 33 41 38 35 31 29 28 26 24 22 19 19 23 30 42 47 51 54 58 62 66 72 74 74 74 75 80 90 84 82 87 92 94 94 96 97
61 63 55 42 39 37 37 35 22 26 26 24 24 33 39 44 39 30 29 27 27 27 24 23 27 30 39 46 51 53 57 64 66 70 72 72 73 74 75 74 72 65 65 77 71 83 83 75 91
66 58 45 47 36 35 34 36 26 24 26 24 26 34 39 42 41 34 33 32 32 29 26 23 23 31 42 51 58 58 65 69 72 74 75 72 67 60 54 50 45 40 38 40 45 60 63 66 70
39 44 49 39 34 38 38 36 28 27 27 26 28 34 39 43 41 39 37 36 33 29 26 27 32 37 44 56 60 68 70 73 71 67 63 54 43 36 35 34 33 31 31 33 35 52 56 57 59
45 47 47 34 36 37 38 40 33 26 25 25 28 34 39 45 47 40 35 32 28 26 24 24 26 31 40 53 61 66 67 66 60 48 39 38 38 34 31 32 35 36 35 35 33 37 45 57 57
50 50 41 42 44 41 38 37 31 25 27 29 30 35 40 42 46 48 36 32 29 26 27 26 26 28 34 43 53 54 50 45 43 42 37 32 32 36 38 38 36 32 27 22 16 24 35 52 49
57 42 45 52 64 57 38 46 32 24 27 30 36 40 43 46 49 51 47 36 31 30 30 31 31 32 35 38 38 38 38 37 35 33 34 37 39 40 39 35 29 20 12 6 3 4 14 50 50
48 47 49 53 60 55 46 44 30 28 28 31 35 38 45 48 51 56 43 35 34 33 33 35 35 36 36 34 33 32 32 32 33 36 40 42 42 36 30 24 16 8 3 2 4 7 11 38 45
48 50 52 48 52 62 41 41 31 25 22 26 34 40 47 51 54 57 40 38 37 37 38 39 38 38 37 36 34 32 32 35 40 44 46 40 35 32 29 22 10 2 3 6 8 10 11 14 16
49 60 97 90 79 58 38 42 28 24 24 24 33 40 45 52 56 57 44 43 42 43 43 43 42 41 40 36 34 35 37 42 46 43 41 40 36 32 24 9 3 4 6 8 10 11 12 26 21
61 52 52 62 58 46 43 43 26 24 26 25 28 37 44 51 53 57 55 46 46 47 47 47 46 43 39 37 36 38 43 47 45 47 43 38 29 15 5 3 4 6 8 9 10 12 17 27 33
82 79 40 46 48 45 37 34 27 28 29 30 30 38 46 51 54 58 57 50 50 51 52 51 48 43 39 37 38 43 48 50 52 44 40 29 16 6 4 5 6 8 9 10 12 15 20 23 37
61 49 66 53 60 56 41 39 30 26 27 31 30 38 45 52 55 60 62 56 54 54 54 52 49 44 40 39 43 49 53 53 47 40 31 18 9 6 5 6 8 9 11 14 17 21 22 31 37
56 73 62 44 44 44 41 34 24 25 26 28 28 34 44 53 54 59 62 60 56 56 55 53 50 45 41 43 49 54 55 49 42 33 23 16 10 7 7 8 9 12 16 20 20 22 26 37 42
44 48 47 54 56 44 41 33 24 25 28 30 30 35 46 49 55 59 65 57 57 57 56 54 51 45 42 46 55 56 53 46 38 30 24 12 7 8 9 11 14 19 22 22 22 25 35 41 44

GFSSGP_850_rhum_003.txt.gz
RH
29 28 23 29 24 20 20 19 22 25 24 18 18 19 19 17 17 25 40 50 34 58 73 41 78 85 69 79 89 78 75 75 67 59 93 86 87 84 73 82 84 97 98 58 69 86 90 85 84
30 28 27 23 19 22 17 16 21 23 20 19 19 19 18 16 18 31 41 36 39 58 75 92 78 74 83 83 77 69 67 68 66 59 95 87 86 87 90 87 89 86 72 64 48 40 60 83 88
38 30 24 24 21 22 24 20 22 18 20 20 20 18 16 17 21 28 40 24 43 59 67 81 79 92 86 84 76 75 67 64 54 54 85 85 86 89 84 89 96 86 84 65 58 41 30 41 73
35 26 24 27 24 15 19 20 17 18 20 20 20 19 17 26 28 42 38 32 55 60 69 35 90 83 74 75 83 77 72 74 55 44 81 83 85 92 82 89 89 93 86 60 52 55 51 46 41
35 26 27 28 27 22 11 12 17 19 20 20 22 21 20 30 35 42 50 50 52 59 71 30 57 62 72 79 79 74 75 68 72 48 71 84 81 92 87 84 87 93 86 74 58 65 84 86 84
34 27 30 28 25 23 19 16 16 17 19 19 20 21 23 31 35 42 43 53 55 63 71 58 41 60 63 68 88 81 83 83 81 53 48 78 79 82 96 83 93 88 92 92 75 58 78 87 84
35 31 33 25 23 25 21 17 14 18 20 19 21 20 21 28 34 27 56 55 58 66 58 79 44 60 68 86 90 87 86 88 81 65 44 43 80 85 86 77 77 67 70 70 42 34 34 44 56
39 31 36 29 28 26 20 20 18 22 21 22 21 19 19 26 33 20 42 61 64 59 56 75 82 87 86 90 67 74 87 86 67 55 31 26 41 54 52 56 54 41 37 39 39 41 41 43 44
43 38 38 30 28 25 21 23 23 27 26 23 21 21 21 26 29 38 49 56 65 57 60 66 75 84 86 87 90 63 61 62 42 39 32 20 41 84 73 61 32 35 38 42 45 46 46 45 44
42 40 34 24 22 24 22 24 27 28 24 22 22 20 21 22 23 25 30 35 53 63 66 76 73 83 87 87 90 90 92 92 86 91 86 83 77 80 37 38 45 49 51 53 53 53 51 51 56
42 41 28 26 24 26 26 27 27 29 30 25 22 21 22 24 23 22 24 26 37 50 59 58 77 82 87 89 90 86 88 89 84 85 86 86 69 81 83 81 75 64 65 65 84 81 87 92 90
42 35 32 27 28 32 31 29 28 30 29 28 29 28 27 26 21 21 21 25 35 47 55 62 50 50 83 88 76 85 86 86 83 85 87 88 87 91 92 93 97 92 97 97 97 98 98 97 95
43 34 31 32 30 32 34 32 32 32 30 29 27 26 27 27 23 21 24 36 39 47 55 59 61 66 64 70 90 89 86 84 84 91 94 95 96 96 97 97 98 99 99 99 100 98 95 93 93
45 37 34 32 33 32 34 32 31 30 30 27 24 21 23 23 26 29 32 37 45 48 56 57 56 63 77 84 90 92 89 87 91 94 97 94 92 93 92 98 100 99 99 99 98 97 98 97 92
46 45 37 33 32 30 33 37 33 30 27 20 18 18 22 31 36 35 41 43 43 46 34 29 27 44 74 86 93 92 94 91 96 97 97 93 94 98 99 100 99 97 97 97 94 91 91 87 85
51 57 62 38 33 31 36 45 25 23 20 19 20 23 30 38 38 43 46 46 38 39 32 23 22 28 65 82 93 89 92 94 97 96 97 99 96 82 97 99 95 86 84 79 77 70 67 69 70
78 76 66 46 30 32 36 38 24 23 20 20 19 20 28 36 40 46 46 41 32 30 28 25 36 52 74 86 90 92 92 92 98 99 98 90 78 78 77 59 47 55 57 54 52 53 57 57 56
77 72 53 56 33 34 36 36 27 21 22 21 19 22 29 34 42 47 48 44 42 49 38 36 48 69 82 86 90 94 90 79 72 70 67 59 44 34 33 34 33 36 47 53 48 56 60 57 58
55 62 49 42 31 33 37 33 26 23 23 23 21 25 30 36 45 49 48 49 51 60 66 65 70 78 82 86 84 77 72 71 67 58 40 34 33 30 32 38 40 40 39 51 46 48 42 45 51
63 56 45 42 33 34 32 32 26 25 25 24 21 24 30 38 41 47 47 47 48 54 51 56 68 82 78 73 75 72 69 61 42 38 34 30 34 39 40 39 34 30 28 33 24 28 23 40 39
58 64 53 45 36 34 35 41 35 28 24 24 22 25 31 34 40 44 46 49 50 36 29 29 33 41 50 56 55 52 51 56 44 34 33 38 41 40 34 30 26 23 20 14 10 24 32 45 44
82 56 37 41 44 49 36 39 25 25 24 23 23 27 32 35 38 43 46 50 44 31 30 30 31 35 49 53 51 50 44 32 32 36 42 44 38 35 32 29 28 20 11 7 6 16 18 42 43
81 57 40 45 47 57 52 48 30 23 24 25 23 29 34 38 42 46 50 52 39 33 33 34 33 34 34 33 32 32 32 33 39 44 42 39 39 38 34 30 25 13 6 5 7 9 12 31 46
63 56 55 48 46 59 38 41 28 26 23 21 24 31 37 40 45 49 54 54 38 36 36 36 36 35 36 36 35 35 36 40 42 41 43 45 40 37 35 32 15 6 5 6 8 10 15 30 44
72 79 82 70 67 50 31 37 29 20 19 18 25 31 37 42 46 50 54 57 49 40 40 40 39 40 39 38 38 37 38 40 43 45 50 46 43 39 37 23 10 6 6 8 10 11 18 33 39
80 69 48 58 54 41 35 43 28 20 19 19 26 31 36 42 45 50 52 57 63 48 44 44 43 42 39 38 38 39 42 44 48 52 51 46 42 36 25 14 8 7 8 9 12 16 30 33 32
83 75 39 40 35 38 38 29 23 22 24 21 25 31 36 41 45 48 54 59 65 53 49 47 46 42 40 39 40 44 47 51 55 52 49 45 37 30 19 10 7 8 10 12 17 24 27 31 30
72 42 54 43 51 46 36 30 29 26 25 24 23 30 35 40 44 49 54 59 63 57 48 49 48 45 42 41 45 48 53 56 54 52 48 41 32 25 12 8 8 9 12 19 25 26 28 32 34
83 68 48 34 36 39 40 33 22 22 22 24 24 27 34 41 45 49 53 60 64 52 50 50 50 48 44 44 48 52 56 57 55 50 43 35 23 15 9 8 9 11 20 26 27 29 31 34 35
59 60 41 43 50 37 36 33 20 20 23 23 23 27 33 41 44 48 53 64 62 55 54 53 52 50 46 45 49 55 59 58 52 48 38 24 15 10 8 9 12 21 26 28 30 32 34 33 36

GFSSGP_850_rhum_006.txt.gz
RH
26 24 28 26 42 35 36 23 24 25 24 19 19 19 22 19 22 43 45 45 53 48 34 38 77 88 78 77 90 82 79 75 67 64 80 79 85 93 76 78 78 93 93 66 54 93 89 84 82
28 28 26 26 36 37 28 18 25 24 20 20 20 19 19 21 26 39 51 38 54 52 45 42 76 78 78 87 86 70 65 69 65 62 96 88 87 87 90 87 86 82 73 56 49 46 42 57 78
39 33 28 40 36 29 29 26 24 18 19 20 20 19 17 24 28 40 48 31 48 54 74 70 69 82 89 84 82 77 68 65 56 54 89 84 84 82 84 90 94 83 80 60 43 43 34 31 49
41 30 28 36 39 27 15 19 18 18 18 20 20 24 24 30 35 43 43 44 55 58 54 42 60 84 82 83 81 80 68 71 54 42 85 82 78 89 80 86 90 87 74 65 50 47 50 56 52
37 34 41 39 35 25 19 11 16 19 19 20 20 24 26 34 37 47 47 52 55 62 54 35 30 57 63 71 80 74 66 72 70 44 82 82 80 80 87 81 86 89 60 55 48 33 35 51 64
38 32 45 43 31 23 20 18 16 16 16 20 20 21 30 32 32 35 46 50 54 62 51 31 25 36 50 57 67 76 72 79 76 50 59 76 79 80 87 96 81 79 49 36 35 32 29 31 40
45 47 47 39 32 25 22 18 15 16 20 20 21 21 29 32 25 41 49 53 58 62 57 38 33 43 35 44 47 82 86 82 79 52 41 37 67 80 85 79 60 35 32 32 34 37 38 38 39
42 44 46 41 39 35 21 22 19 17 21 23 21 23 25 28 23 24 38 58 56 67 68 66 42 48 42 47 47 55 64 75 64 43 26 25 42 50 43 46 38 34 34 36 38 39 41 42 43
45 57 53 43 38 32 20 23 22 23 26 24 23 22 21 23 23 26 33 42 61 58 72 77 79 77 69 68 80 77 44 38 32 30 33 24 50 67 61 55 37 39 43 45 46 48 49 50 52
51 61 51 31 28 27 22 22 23 26 27 25 22 22 20 20 22 23 25 32 39 52 58 71 78 83 85 86 80 67 56 59 57 56 67 66 76 78 72 51 54 54 54 55 59 60 64 68 67
51 61 40 30 26 24 24 27 24 28 34 28 24 24 26 25 26 23 22 24 28 41 57 67 71 79 80 86 81 91 87 79 87 86 85 83 69 76 76 77 81 68 68 74 76 84 86 85 89
53 44 40 36 30 28 31 29 30 28 29 29 29 28 28 28 27 22 21 21 26 39 53 62 69 70 84 88 83 87 86 86 85 84 86 84 89 90 95 94 88 96 97 98 97 99 96 95 94
50 42 37 34 32 31 29 33 35 32 30 30 30 29 27 26 27 24 21 22 32 40 49 57 59 68 76 90 91 86 86 84 85 85 93 94 96 98 95 96 95 98 96 94 91 89 89 88 87
48 45 45 39 32 31 32 33 32 32 30 30 30 27 23 21 24 24 22 32 42 46 52 58 60 70 78 86 92 92 88 86 87 92 97 98 94 92 97 98 95 87 91 90 91 87 84 81 84
51 67 48 45 36 32 32 39 38 32 31 29 29 20 18 22 27 27 32 36 41 44 47 48 59 66 78 86 93 94 92 92 96 97 98 98 99 95 98 96 93 90 88 82 80 56 52 52 54
73 68 85 49 38 35 35 48 35 30 28 28 19 19 24 31 34 36 39 42 40 42 37 31 30 46 73 86 93 91 94 96 96 95 97 98 95 94 97 85 59 58 50 45 40 42 41 41 39
78 82 83 67 41 37 38 45 35 31 25 21 19 19 28 34 39 42 43 46 42 49 36 35 36 48 77 88 88 90 92 96 96 96 95 82 74 69 48 33 31 36 40 41 40 37 37 33 31
79 90 65 72 51 40 41 41 36 31 25 21 20 18 28 34 40 45 47 49 54 52 47 48 58 75 85 91 90 92 94 95 89 77 65 46 33 30 32 37 39 38 34 33 30 26 25 23 34
60 60 74 52 47 44 43 40 37 30 28 25 22 22 29 36 44 48 52 58 65 69 67 62 66 78 85 93 94 89 73 70 65 49 36 31 32 37 38 36 32 29 27 26 22 20 16 16 17
65 74 80 54 45 46 42 41 35 32 28 26 24 22 30 40 46 48 49 55 62 70 73 79 81 86 90 86 76 69 68 51 39 32 31 35 39 38 34 33 32 31 29 24 17 15 11 14 16
62 74 79 69 46 49 42 46 38 30 25 25 25 21 31 39 45 47 48 52 59 53 48 60 66 65 69 68 66 56 44 38 32 33 37 41 38 37 36 33 30 30 25 18 11 10 10 12 14
66 56 64 79 68 76 43 63 42 34 34 31 25 25 34 37 43 47 50 52 50 48 45 46 52 55 56 54 50 41 33 31 35 40 40 39 39 40 40 36 32 29 21 15 11 11 11 10 14
61 52 68 82 85 74 51 58 42 34 39 32 29 28 34 37 42 46 51 52 50 48 43 42 41 46 50 48 37 31 32 36 40 39 42 43 44 46 43 40 36 32 24 16 11 10 10 10 17
52 64 76 92 90 95 76 54 47 37 31 30 27 32 34 37 43 48 54 55 49 45 38 35 34 34 33 34 34 35 36 39 40 42 46 46 47 46 45 42 37 29 20 13 10 9 10 12 19
68 78 95 100 99 82 45 54 35 26 24 25 28 34 37 40 45 52 56 55 48 44 40 37 35 36 37 36 37 38 40 41 43 46 50 50 49 49 46 41 35 26 16 10 9 9 12 16 22
81 84 100 96 98 59 38 52 40 24 22 23 26 34 38 43 48 53 58 55 49 45 44 40 39 39 38 38 39 40 42 43 46 50 52 51 51 47 44 37 27 16 10 9 9 12 17 22 24
91 97 79 99 37 54 50 34 28 28 26 29 32 37 40 44 48 53 56 59 56 52 48 44 42 40 39 39 41 42 44 47 51 52 53 52 49 45 36 25 17 11 9 9 13 19 22 24 24
88 68 99 87 56 65 54 46 43 36 34 31 36 39 41 43 48 51 56 62 61 56 52 49 46 42 41 41 42 44 47 51 54 54 53 51 46 38 26 18 12 10 8 13 19 22 24 25 26
98 98 93 80 55 56 61 48 33 32 32 31 34 36 40 43 47 50 56 61 62 58 54 51 48 47 45 43 44 46 50 54 56 55 53 49 41 29 18 13 10 7 11 17 22 24 26 30 31
80 78 78 57 60 49 53 46 26 30 28 31 28 34 38 42 47 51 55 61 61 56 56 52 51 50 48 46 45 47 52 56 56 54 51 44 32 20 14 10 7 10 16 22 25 29 32 33 34

GFSSGP_850_rhum_009.txt.gz
RH
26 24 28 27 35 45 42 31 24 30 26 20 20 20 22 24 27 46 54 50 37 36 27 40 71 76 73 78 84 87 78 67 60 55 87 84 90 90 88 82 88 78 68 51 43 85 83 83 83
27 26 31 29 37 40 39 26 31 24 20 21 20 19 21 27 38 49 51 43 45 37 30 40 71 84 76 80 84 69 55 57 52 63 93 89 88 89 91 93 88 74 62 48 41 38 44 41 51
30 31 34 44 47 34 31 24 21 18 19 21 21 20 23 32 47 51 50 44 44 39 42 40 54 66 79 83 81 68 56 53 44 42 87 84 84 83 82 89 89 85 57 45 32 35 30 23 23
39 35 30 40 42 36 28 16 18 18 18 20 20 25 32 34 37 42 37 47 43 37 38 40 51 60 68 73 73 64 57 49 35 33 80 83 82 83 82 81 88 83 56 27 21 21 21 26 35
43 39 49 47 43 35 25 17 17 19 18 20 20 24 33 42 38 42 44 55 50 47 52 39 34 45 68 69 67 65 59 52 45 40 71 76 81 81 80 78 82 78 38 28 29 30 29 30 33
47 42 59 59 47 33 26 19 17 17 17 18 22 23 36 44 39 50 49 55 54 51 51 38 28 40 55 59 60 55 60 65 56 38 56 64 74 80 80 87 80 66 34 34 36 37 38 38 38
57 63 63 53 48 41 26 18 16 17 22 23 22 24 34 31 27 42 47 53 56 56 51 43 32 34 40 38 48 50 69 62 55 48 33 32 59 76 80 78 46 36 36 38 40 42 42 43 44
54 60 62 56 50 47 30 22 19 17 20 23 22 26 30 27 23 26 41 51 56 60 52 52 45 41 36 39 44 48 52 54 51 36 26 24 42 49 37 35 37 38 39 42 47 50 53 55 59
62 74 74 62 51 41 30 24 22 22 23 25 25 24 22 22 23 24 29 38 49 60 52 54 59 58 53 59 67 70 54 44 39 30 32 27 50 62 45 44 49 52 56 62 66 70 75 76 77
67 83 68 45 40 38 31 27 23 25 28 28 27 24 25 23 22 23 24 27 35 42 46 62 66 64 63 70 76 70 48 60 54 52 52 57 61 64 64 65 75 73 75 73 76 80 84 88 90
65 74 56 45 39 35 32 30 27 29 33 28 29 28 29 27 26 26 23 23 25 28 46 49 77 78 72 74 72 68 70 72 71 79 71 76 74 76 78 83 86 90 86 90 90 89 90 87 87
79 60 56 51 45 44 40 31 31 30 32 29 30 30 30 29 27 28 24 22 24 32 40 49 58 79 85 86 81 78 86 81 81 83 77 88 87 91 92 98 99 97 88 79 80 85 85 87 85
72 58 53 49 47 43 38 37 35 33 30 30 30 30 30 30 28 27 26 22 22 32 40 50 58 72 84 90 88 90 88 86 85 88 92 92 90 95 96 96 93 84 80 82 85 81 83 79 71
57 57 53 48 46 41 39 37 35 32 32 32 31 31 30 30 24 25 26 24 25 37 42 49 56 63 79 91 92 88 88 86 87 90 94 97 93 94 99 96 88 86 86 87 84 80 61 40 39
62 71 59 60 48 50 45 45 42 32 32 31 32 31 29 21 20 24 26 24 33 43 49 54 55 61 74 86 95 93 90 86 91 92 93 98 97 98 97 93 91 86 80 73 54 37 36 36 36
74 76 85 58 56 48 47 60 39 32 32 33 32 31 25 23 24 26 27 30 38 46 53 55 59 65 75 85 94 92 90 92 91 94 92 96 98 100 94 92 65 44 36 36 37 35 32 28 26
87 85 88 78 54 52 47 55 42 32 31 33 30 32 24 26 29 30 33 36 38 39 39 37 44 64 77 90 92 86 91 94 95 92 94 93 91 88 66 32 36 37 35 32 29 26 23 22 22
72 88 67 83 61 58 62 56 43 32 33 33 30 21 29 30 35 38 36 40 44 44 41 41 40 65 82 91 87 89 91 92 91 92 81 53 37 32 36 36 34 31 29 28 27 25 24 21 20
64 66 66 60 56 60 56 58 45 37 36 34 29 26 36 37 41 40 44 54 59 57 59 62 65 80 88 92 89 90 90 93 88 63 35 31 35 37 35 32 29 27 26 27 25 24 23 22 20
73 86 84 66 61 72 63 57 47 40 37 35 31 32 39 41 42 47 59 67 70 74 73 78 83 87 90 91 91 90 86 68 44 32 34 37 37 35 34 37 38 36 31 28 24 20 18 18 15
75 88 81 75 64 65 73 73 55 43 36 32 29 29 37 35 42 51 59 69 77 81 85 85 85 88 89 88 80 69 56 37 32 34 38 38 37 39 43 43 43 39 33 27 20 17 14 14 16
79 56 59 66 70 89 65 82 61 47 40 37 32 34 43 39 42 49 57 65 75 83 85 84 89 89 82 67 62 46 33 31 34 38 37 38 41 45 47 47 44 38 32 26 20 15 13 12 13
68 51 56 62 78 83 76 89 53 43 43 39 45 43 43 39 43 49 53 61 60 64 77 74 67 65 58 46 36 32 32 35 37 37 39 41 46 49 49 47 44 38 32 26 20 16 13 11 12
54 72 72 72 78 97 85 86 64 45 38 35 39 44 44 44 48 51 53 57 58 60 57 54 49 52 51 47 37 33 35 37 38 42 45 48 49 50 49 46 41 34 27 21 16 13 11 10 13
70 78 92 98 98 87 72 95 76 41 36 33 36 44 46 45 49 52 54 58 55 53 50 48 46 48 46 37 34 36 39 40 43 47 49 49 50 50 48 44 38 30 23 17 15 12 9 12 18
81 75 84 93 83 66 78 100 59 39 32 29 38 42 44 48 50 52 53 55 50 44 40 37 36 35 36 36 37 40 41 44 47 50 51 52 51 50 47 42 35 26 18 14 10 9 12 18 20
76 87 63 98 90 86 91 78 53 36 35 38 43 46 51 53 52 52 55 53 49 43 39 36 37 38 38 39 40 42 44 47 50 52 52 52 51 50 46 38 29 21 14 8 10 14 18 21 21
60 58 90 99 98 96 86 57 49 40 42 45 48 48 53 53 52 53 54 52 50 44 43 42 42 40 40 40 42 44 47 50 52 53 54 53 53 50 42 32 23 13 8 11 16 20 22 22 22
91 94 73 75 85 99 97 60 39 36 39 45 47 47 52 52 51 53 55 55 52 50 48 47 46 43 42 42 43 46 48 50 53 55 55 56 54 46 34 22 11 8 12 17 22 23 22 22 23
71 81 60 72 84 97 58 49 33 37 36 40 44 47 50 51 53 53 56 60 60 56 53 52 50 47 45 44 45 47 49 51 54 56 58 57 51 36 21 11 10 12 19 22 22 21 22 26 37

GFSSGP_850_rhum_012.txt.gz
RH
30 26 27 27 32 45 44 34 27 27 27 21 22 22 24 27 28 39 42 46 38 33 26 37 64 86 82 81 82 82 80 58 49 44 70 91 89 88 84 91 94 60 44 35 36 66 64 78 77
32 27 29 30 37 38 38 27 24 22 20 22 22 21 24 38 45 44 47 40 41 29 26 38 61 73 74 77 82 81 52 46 47 79 88 90 83 90 92 93 78 65 42 34 29 30 34 33 44
35 31 34 47 51 42 34 24 22 18 20 22 22 25 29 41 47 45 47 35 40 36 29 34 56 77 74 66 69 63 49 45 44 50 87 89 86 85 86 89 75 76 53 32 28 30 33 30 29
37 37 35 45 48 40 30 30 20 18 16 21 22 32 33 37 43 42 32 36 39 41 39 43 52 63 73 74 72 65 46 42 33 43 82 85 83 84 81 79 72 80 63 32 32 29 28 35 43
43 44 55 52 49 39 33 26 19 20 19 21 22 28 37 40 38 38 30 40 42 42 45 41 51 54 57 65 66 62 51 46 32 43 66 72 81 82 85 78 80 79 37 36 38 39 39 38 38
50 47 66 65 51 39 36 27 21 19 19 21 24 30 38 44 46 43 49 49 52 47 52 56 41 47 51 63 68 57 56 59 38 39 56 60 74 80 80 89 85 54 36 38 40 42 44 44 45
62 69 68 60 55 51 38 28 19 18 23 24 24 33 37 36 36 46 51 55 56 54 54 53 36 40 47 57 59 55 62 65 49 43 35 38 55 73 79 76 44 40 41 42 45 48 53 57 64
57 66 69 63 59 54 35 28 22 18 20 22 22 35 34 30 28 42 45 51 56 56 57 51 37 37 36 39 46 54 62 59 45 37 27 26 45 58 44 38 44 47 51 57 67 68 75 77 80
69 83 86 66 58 46 34 32 28 23 21 24 24 25 25 25 34 44 48 49 56 58 55 50 47 43 42 48 57 66 61 46 41 33 29 28 38 48 43 50 56 64 71 71 74 76 78 85 90
79 92 78 58 49 47 39 33 29 27 30 29 28 28 28 27 29 32 33 32 36 42 43 48 48 52 53 59 66 71 61 60 47 40 50 54 54 59 62 68 79 83 81 81 85 87 90 88 88
77 85 63 54 46 42 44 40 35 30 35 30 28 28 31 25 27 32 27 26 24 26 41 47 47 58 59 61 69 70 65 65 70 71 67 70 70 72 79 86 95 98 88 87 90 84 86 84 84
80 69 62 58 53 53 53 43 41 35 30 28 29 28 30 31 31 29 28 26 23 28 34 44 52 56 66 73 75 78 80 76 71 76 77 78 83 90 95 96 97 93 88 86 84 83 81 81 83
79 67 62 62 59 56 51 52 47 40 36 31 30 29 27 28 30 30 30 28 22 24 28 42 53 60 66 77 81 80 84 84 84 87 88 90 90 92 95 98 96 88 85 78 82 86 86 74 52
60 57 61 59 57 54 55 51 46 41 36 33 32 32 27 29 30 31 28 28 24 22 28 43 56 67 78 87 91 89 88 86 87 86 89 94 97 96 98 95 90 86 82 84 86 72 45 35 36
63 78 71 62 58 61 51 60 58 46 38 33 32 31 30 31 32 28 23 26 27 24 26 46 60 68 79 88 95 92 88 86 85 85 90 92 95 96 94 92 89 86 85 69 48 37 37 35 30
77 78 90 59 59 60 57 75 50 41 37 35 34 32 31 32 33 29 24 26 27 33 32 52 63 65 78 89 92 87 89 85 85 87 90 92 96 97 94 91 89 53 34 36 35 31 27 24 23
87 95 83 73 54 61 64 64 47 41 39 38 34 32 33 33 32 29 27 31 33 42 46 55 58 62 75 88 93 89 84 84 86 90 90 94 95 98 95 54 34 35 32 29 26 26 25 24 23
76 86 80 71 67 65 66 66 56 42 40 38 34 32 32 32 29 28 29 33 36 40 49 55 58 68 77 86 91 89 88 88 89 91 90 93 78 41 35 35 31 29 28 26 25 25 24 22 22
83 79 75 67 54 60 61 66 56 50 47 44 36 34 34 30 33 35 35 35 40 44 43 42 45 63 74 90 89 85 86 87 91 92 79 36 35 36 34 33 36 38 37 33 28 26 24 22 20
78 84 88 70 56 56 66 75 62 48 48 43 41 37 33 34 38 37 37 41 48 49 55 52 49 69 83 88 89 87 87 90 90 60 34 37 37 35 38 42 46 45 41 33 28 25 21 18 16
83 86 76 75 66 60 60 60 59 58 47 43 39 37 33 36 36 39 45 55 60 63 69 63 68 77 88 94 88 89 91 86 49 34 37 38 37 41 44 48 49 46 38 32 26 21 18 16 14
89 67 70 73 78 88 63 82 64 58 58 49 42 39 36 40 41 48 58 65 67 72 82 82 86 92 95 95 92 91 80 51 34 37 38 36 41 46 49 50 48 43 35 27 21 16 14 14 13
78 59 64 68 79 84 74 90 67 60 60 55 43 40 38 38 40 48 60 65 73 78 85 87 87 87 88 86 72 65 42 32 37 38 37 40 46 49 50 50 47 40 31 24 17 15 14 12 11
63 69 69 72 83 96 67 76 63 66 54 51 44 41 44 45 47 54 64 72 80 85 87 91 92 91 78 64 47 34 32 35 36 38 42 46 49 50 50 49 45 36 27 22 17 14 11 11 14
63 74 92 100 98 82 57 78 63 52 42 39 40 46 49 49 49 60 64 68 78 86 85 84 82 71 53 43 36 34 36 37 39 42 46 49 50 51 50 48 41 32 24 19 15 10 10 13 16
73 70 86 91 99 72 68 87 72 54 43 42 42 38 50 54 55 59 60 62 58 66 69 62 58 50 51 46 35 36 39 40 42 46 49 50 51 51 50 46 36 28 22 15 9 10 13 17 19
79 87 59 76 79 88 86 79 67 61 53 41 41 51 58 61 60 58 58 58 58 57 56 55 54 51 52 42 36 39 41 42 46 49 51 52 52 53 51 44 34 25 14 9 11 14 19 20 18
68 62 89 82 99 90 83 88 71 62 47 53 55 55 59 66 68 61 59 58 56 54 54 53 48 41 40 40 39 41 43 46 49 51 52 54 55 54 50 39 28 15 10 12 17 21 20 18 17
84 78 71 63 78 98 82 77 51 51 46 54 56 53 62 70 66 60 59 55 50 47 46 44 43 41 40 41 42 43 45 48 50 52 54 56 57 54 44 29 17 11 12 19 22 20 18 20 22
63 67 62 74 69 71 98 75 38 37 42 49 52 55 64 67 64 60 57 54 51 48 47 45 45 43 42 42 43 45 47 49 51 54 57 59 58 48 32 18 12 14 22 24 20 20 20 22 26

GFSSGP_850_rhum_015.txt.gz
RH
32 30 25 28 33 47 44 37 27 28 26 23 24 25 25 31 29 38 40 42 32 36 27 38 88 89 86 83 82 79 85 70 48 47 95 96 92 91 82 93 66 48 41 35 50 68 67 82 81
34 30 27 31 44 41 40 29 26 23 20 24 24 28 28 42 44 39 38 32 32 26 23 32 63 85 89 79 85 84 79 51 46 48 77 85 90 95 94 77 72 69 44 34 33 35 42 42 52
39 33 33 50 54 48 37 27 25 21 17 23 24 30 33 46 44 34 37 29 30 27 26 33 47 75 76 77 78 73 57 48 46 84 91 95 92 85 85 71 74 78 51 33 28 30 33 32 31
40 38 37 50 52 44 29 31 25 22 16 22 24 30 36 37 43 44 35 33 31 30 28 33 46 59 67 69 61 64 52 47 41 55 84 88 87 83 85 82 79 76 44 34 37 36 34 36 38
43 44 57 56 54 42 36 31 26 25 20 21 21 29 38 37 37 40 32 34 35 35 34 35 45 57 56 65 61 64 53 38 30 42 74 83 86 83 90 81 83 80 41 39 41 42 42 43 43
52 49 70 64 51 42 40 31 28 23 19 22 25 34 37 39 37 33 36 40 46 42 40 40 41 50 58 58 65 66 52 46 31 41 57 68 80 82 83 86 90 60 40 40 42 45 48 51 58
63 68 71 62 57 50 41 31 32 23 23 25 24 36 36 38 36 42 42 48 52 54 51 48 43 44 57 58 61 62 52 55 41 34 40 49 65 76 78 81 48 41 43 46 54 58 69 73 76
62 71 72 70 60 54 37 30 27 20 21 24 24 37 34 30 34 50 53 52 54 56 57 55 46 40 46 47 51 54 59 62 45 39 33 32 54 73 53 39 46 53 62 69 72 76 79 84 91
70 84 87 66 64 46 38 35 31 29 26 25 24 25 27 26 29 48 51 54 58 58 59 59 51 38 45 44 48 56 57 57 51 39 31 31 46 44 47 52 64 73 80 81 88 88 89 88 89
82 94 73 59 52 49 39 38 36 33 33 30 30 29 27 25 27 33 42 43 47 53 52 57 53 44 45 46 53 68 71 57 52 42 36 51 58 59 62 70 76 86 84 91 94 91 85 86 85
82 84 64 60 53 46 49 44 41 38 40 30 29 29 30 28 30 32 32 30 26 29 44 48 50 52 52 53 65 76 69 68 60 53 67 67 67 71 79 89 95 93 91 92 90 86 87 85 82
80 72 68 64 58 59 60 52 46 40 36 35 33 32 32 30 29 30 31 31 33 28 33 40 50 56 59 67 73 77 72 73 71 80 84 83 83 90 94 92 94 89 89 85 78 77 81 84 86
81 74 65 59 63 65 62 63 62 53 48 40 40 34 32 31 31 31 32 32 32 32 32 36 48 56 63 71 81 85 82 82 80 87 88 89 91 94 91 94 95 92 85 81 80 81 87 84 58
66 65 64 59 61 62 64 61 58 52 47 45 42 37 33 30 28 30 31 31 30 30 26 28 42 54 65 74 85 90 88 90 88 89 89 92 95 96 96 94 90 87 83 81 84 83 57 40 37
69 80 72 68 60 65 57 65 64 54 52 50 46 39 34 32 30 30 31 30 28 28 27 23 33 54 66 77 89 92 91 89 84 86 87 88 90 94 94 89 88 86 87 85 51 39 38 33 28
77 80 93 60 62 61 60 69 53 47 47 48 44 40 35 32 31 30 31 32 29 27 27 26 36 58 71 83 88 86 85 84 85 84 87 88 89 93 90 92 89 86 42 37 34 29 25 22 21
86 91 90 73 58 62 72 68 52 43 44 48 43 40 36 33 32 31 31 31 30 28 30 29 45 62 78 90 85 88 87 86 87 88 89 87 91 92 93 87 48 35 30 28 27 25 24 24 23
82 98 85 81 62 63 72 66 57 50 51 50 46 39 38 36 33 32 31 32 34 35 37 44 59 73 84 91 91 86 91 93 90 90 88 87 92 94 60 36 32 33 34 36 33 29 27 25 24
88 90 92 73 57 70 75 71 59 55 56 55 53 47 41 37 34 33 33 32 36 38 48 57 69 76 76 85 91 86 91 94 94 88 90 89 68 37 35 34 38 43 45 40 32 29 26 23 22
79 91 87 77 63 65 66 69 58 56 53 56 52 49 44 40 36 33 34 36 36 37 41 51 61 65 76 84 88 82 85 89 87 90 87 41 37 36 37 41 46 47 44 35 31 27 23 19 17
85 92 82 80 62 60 64 58 40 38 44 49 53 48 44 42 38 32 34 37 38 38 43 46 49 55 78 91 90 85 84 84 86 86 42 37 37 38 43 47 49 48 42 33 29 24 19 17 15
83 72 75 77 82 93 65 62 45 47 46 46 50 50 47 42 40 36 39 39 42 46 53 59 56 66 92 92 85 82 81 80 85 52 36 38 36 43 48 50 49 48 41 32 27 22 18 15 13
72 62 70 77 90 91 78 91 69 51 53 53 62 49 45 42 39 36 37 38 44 58 61 68 68 90 95 92 87 85 85 87 62 36 38 36 42 48 50 50 50 47 40 32 25 20 17 13 12
63 76 80 77 85 94 70 79 54 43 57 58 55 50 46 42 40 38 42 53 58 68 75 80 86 92 96 95 94 93 92 70 35 38 37 40 46 50 51 50 50 47 37 28 24 19 12 11 14
63 85 97 98 97 84 60 72 58 45 45 46 49 46 42 44 43 41 51 64 67 71 85 90 93 95 94 94 85 79 62 34 35 36 40 45 49 51 51 51 49 42 33 26 18 12 11 14 18
78 76 90 91 94 84 52 78 56 50 36 32 34 39 42 48 46 42 53 59 69 76 87 88 92 91 91 72 64 46 34 37 38 40 44 48 50 51 52 52 47 38 28 17 12 12 14 19 20
100 98 69 75 66 96 83 74 68 64 66 61 54 47 46 54 55 49 60 70 74 79 86 88 93 92 76 56 42 37 38 41 40 43 48 50 52 53 53 50 42 30 18 13 12 15 20 20 17
72 64 94 98 96 90 73 86 67 62 54 49 55 50 52 56 62 63 68 74 80 82 85 85 84 75 52 48 43 38 42 43 43 47 50 52 54 55 53 47 34 22 14 13 17 22 21 18 18
86 84 74 72 84 91 85 54 64 57 48 56 58 52 58 65 74 77 70 70 71 77 78 72 65 58 56 56 44 42 44 44 47 49 52 54 56 56 52 41 26 18 14 18 24 23 20 20 19
63 69 73 94 84 68 84 71 46 57 48 51 59 62 69 77 83 76 69 66 64 64 63 61 60 58 55 48 44 44 44 46 48 51 53 56 58 55 45 30 20 15 20 26 26 23 22 20 22

GFSSGP_850_rhum_018.txt.gz
RH
33 32 28 27 40 50 48 39 28 28 28 24 25 26 27 29 34 40 38 34 29 28 32 81 88 83 84 78 79 76 80 79 47 90 88 92 91 92 92 84 59 50 43 39 56 67 64 87 85
32 31 28 30 48 45 42 33 28 25 21 22 26 32 29 37 42 40 39 30 26 24 27 44 88 85 83 79 79 80 80 56 42 87 94 91 95 93 91 68 73 61 37 31 33 39 44 49 55
35 35 32 50 57 53 39 28 28 27 20 22 25 30 33 43 43 36 33 29 24 23 26 38 88 89 71 69 78 76 58 49 44 57 85 83 87 76 76 76 78 61 36 32 29 30 31 30 30
41 39 38 51 55 46 32 26 30 30 22 24 26 29 35 39 41 41 39 31 27 23 27 31 51 66 62 66 62 60 53 46 44 61 89 93 85 94 98 89 82 64 37 36 38 38 37 38 40
45 43 57 59 57 45 38 32 30 34 27 21 23 27 34 34 38 38 35 33 34 29 31 30 40 52 62 65 57 57 46 35 32 50 80 88 86 87 77 84 84 74 43 45 46 46 48 49 52
52 50 69 66 52 43 40 33 31 27 24 20 26 34 32 35 35 38 34 39 42 39 36 36 40 50 55 64 63 60 52 39 28 42 69 86 85 83 81 82 87 61 47 48 52 56 62 70 74
65 71 69 61 55 49 41 32 33 32 23 24 26 34 30 36 35 37 39 46 52 53 48 42 38 40 54 60 66 65 56 47 35 43 57 64 79 83 84 82 64 44 51 62 74 81 83 86 90
64 70 73 69 61 56 35 33 29 23 21 21 26 34 30 31 29 39 46 51 56 58 59 54 51 42 42 50 66 64 60 58 47 43 43 46 63 75 77 50 50 63 72 78 84 84 86 85 86
69 84 90 72 66 53 39 38 34 31 30 31 27 28 28 26 28 31 42 49 53 56 60 60 57 51 45 47 54 62 62 62 58 51 40 35 48 56 52 56 70 76 82 84 92 87 86 86 85
82 95 75 63 55 50 43 42 40 37 38 35 31 29 28 26 26 26 30 36 43 45 49 57 60 56 48 53 52 57 66 62 57 48 38 36 47 56 67 72 81 88 88 97 93 91 87 90 87
83 87 65 64 58 57 54 51 46 43 50 37 33 33 33 29 28 29 32 33 31 36 42 46 52 58 56 54 52 61 78 73 63 51 53 58 59 66 79 90 98 92 90 88 87 82 79 81 82
81 75 75 69 63 65 67 62 63 50 45 36 38 41 36 34 38 29 30 29 31 34 38 46 50 57 59 59 60 70 80 72 64 61 72 72 76 88 97 91 90 91 88 86 78 78 79 84 90
81 78 68 64 62 62 62 68 70 66 58 52 45 45 40 38 33 32 30 31 33 34 34 35 42 52 60 64 72 82 82 80 80 85 87 89 92 95 97 88 92 90 84 80 82 84 86 83 60
68 70 70 65 60 62 68 64 62 54 54 53 50 46 40 40 35 33 31 30 30 31 31 31 32 42 57 67 77 83 87 89 87 90 92 92 90 89 92 93 90 85 82 82 86 82 48 38 36
73 82 77 72 64 65 56 69 72 54 50 52 47 49 44 36 37 34 32 31 30 31 31 29 30 31 54 66 82 90 90 91 91 87 89 86 86 88 92 92 90 85 88 87 47 36 32 28 24
75 79 89 66 67 62 60 67 50 43 43 52 48 45 42 36 36 33 33 32 31 31 30 28 29 27 48 70 87 91 85 85 87 84 86 86 89 91 89 88 88 88 55 35 30 28 26 24 22
76 89 84 72 55 64 78 74 56 52 51 57 53 50 47 42 38 34 34 33 32 31 30 29 28 29 53 78 92 89 83 83 88 83 85 94 94 85 88 89 82 38 32 32 33 32 28 25 23
80 88 82 79 62 68 77 77 63 52 49 54 52 49 49 46 41 37 36 34 33 31 30 26 31 36 65 81 89 84 86 90 89 90 93 95 89 84 86 70 34 34 40 41 34 27 27 26 24
82 92 94 79 67 74 71 69 60 55 55 59 56 54 52 45 44 38 37 35 34 34 28 28 32 48 72 81 88 84 93 92 95 97 95 90 87 88 43 35 37 43 42 40 31 26 26 25 24
74 81 81 70 66 71 69 68 53 51 55 54 62 57 57 50 44 40 39 37 34 36 32 33 39 60 78 82 92 88 75 95 96 96 91 87 83 38 36 38 44 46 46 41 34 28 26 25 23
86 89 84 84 66 63 68 60 38 31 33 38 41 41 42 51 48 39 42 35 35 35 35 38 50 72 81 89 96 95 82 95 96 90 87 84 38 37 38 45 48 48 47 44 38 30 27 25 20
91 67 74 83 90 91 63 71 44 42 41 32 32 38 46 43 40 45 41 39 35 34 38 43 50 69 84 93 96 82 76 80 80 77 80 47 37 38 45 48 49 49 48 46 39 30 26 21 15
73 65 78 84 94 94 84 93 66 52 53 48 55 48 42 40 33 38 41 38 37 37 39 46 52 55 68 93 94 76 78 78 78 77 64 37 38 43 48 50 50 50 50 46 38 29 22 15 13
63 75 78 82 85 96 72 84 54 43 38 40 44 36 36 39 44 40 40 37 40 43 49 56 62 62 77 97 79 80 80 79 78 77 40 38 39 47 50 50 51 51 50 44 36 25 16 13 14
74 100 97 98 97 84 65 78 56 40 38 41 42 41 37 33 42 45 43 40 44 47 58 66 65 67 92 84 82 82 81 80 84 62 37 37 43 48 50 51 52 51 48 41 29 18 14 14 18
83 80 93 94 94 86 64 82 66 47 37 34 31 34 39 40 44 46 43 41 42 48 63 71 76 89 92 88 88 88 90 91 65 37 38 42 47 50 51 52 53 51 44 33 21 16 15 19 21
98 97 70 84 80 96 79 71 50 55 59 60 50 40 35 38 43 46 46 46 46 54 71 76 88 96 94 93 95 90 78 50 37 39 41 45 48 51 52 54 53 48 37 25 18 16 20 22 20
84 79 98 98 96 92 80 65 62 51 55 57 53 66 49 40 42 49 52 52 59 65 78 92 96 98 98 93 77 65 43 39 41 40 43 47 50 53 55 55 52 42 28 19 18 22 24 23 22
94 96 98 89 95 91 85 58 58 62 59 57 59 50 48 46 50 54 58 62 66 78 90 95 98 93 92 75 58 43 39 42 42 43 47 50 53 55 56 54 48 33 21 19 24 27 26 25 23
61 71 73 81 84 87 86 55 44 63 62 59 73 64 58 55 61 68 71 74 81 84 94 96 96 92 83 59 47 42 42 43 43 46 49 52 55 56 57 52 39 25 20 24 29 30 28 26 24

GFSSGP_850_rhum_021.txt.gz
RH
33 32 30 27 36 38 41 34 31 29 28 26 24 26 26 28 31 34 40 40 32 29 36 84 92 93 87 83 75 73 73 64 51 82 88 83 89 87 93 87 52 46 37 36 56 76 86 91 90
33 31 28 28 40 42 38 31 30 27 25 21 28 30 28 32 38 43 45 36 33 28 34 57 91 84 79 76 75 75 70 46 56 88 90 94 91 82 67 71 64 46 36 32 36 44 49 69 67
35 33 31 43 48 43 38 29 27 30 26 21 27 31 30 38 40 42 37 33 30 28 39 56 88 82 78 71 73 74 56 43 36 97 93 72 69 73 80 79 67 42 35 31 32 34 35 32 31
38 39 38 43 46 42 32 24 31 31 25 23 26 30 33 39 43 42 34 31 34 26 38 57 96 92 70 62 66 63 49 42 39 72 88 92 90 88 90 88 81 58 42 43 45 45 44 44 46
43 42 49 53 48 41 37 34 32 32 29 24 23 26 33 34 38 41 39 35 29 27 40 54 98 94 64 57 56 56 46 39 38 71 89 87 82 81 86 78 83 60 46 49 51 52 55 57 61
52 47 56 55 47 43 38 34 33 31 27 23 25 33 31 35 36 39 35 34 35 28 36 49 86 70 66 62 57 55 50 38 31 56 85 89 83 80 83 81 81 54 50 54 58 66 72 80 84
62 59 59 56 49 46 38 32 33 32 30 24 26 31 29 35 38 36 38 44 40 38 41 41 53 65 71 63 60 57 50 38 31 47 67 85 84 84 79 76 74 48 56 71 76 84 82 82 81
62 57 69 61 50 44 36 35 31 28 23 25 28 30 29 35 36 35 40 50 53 51 54 53 50 58 77 67 66 62 56 47 38 40 50 60 75 80 83 71 50 66 75 78 83 82 81 88 88
67 77 76 61 60 45 41 39 35 35 32 33 31 28 30 29 37 35 38 44 50 56 58 62 61 58 56 67 68 66 62 60 51 43 38 39 58 72 60 52 71 81 82 85 90 86 86 84 85
75 84 74 61 54 48 44 44 42 39 39 39 35 32 33 32 32 33 29 32 39 46 55 62 64 65 61 60 67 64 64 60 58 47 42 37 47 54 58 68 83 90 90 93 88 85 86 83 82
84 79 67 63 58 61 62 58 50 46 50 42 38 34 34 35 36 39 39 32 32 38 48 55 62 68 68 54 62 62 67 71 59 49 39 43 58 66 71 84 92 93 90 84 82 82 77 78 82
78 76 78 71 61 63 67 64 67 58 50 45 40 40 43 39 38 40 45 39 32 33 38 46 53 62 67 64 60 59 69 80 68 51 54 65 68 76 86 94 86 90 86 84 83 77 80 84 84
81 76 71 67 65 64 63 68 64 64 56 50 51 49 45 43 38 36 36 42 41 34 33 35 40 46 57 64 64 64 74 79 71 60 73 77 85 91 94 89 90 86 84 80 78 83 85 66 42
68 73 72 67 65 61 62 59 66 51 47 43 42 46 42 42 39 36 35 32 33 33 33 33 33 36 46 59 66 71 83 84 78 82 86 89 91 87 86 87 87 84 81 81 82 83 41 35 30
76 81 70 70 67 65 61 63 70 55 54 51 47 43 37 36 37 38 35 34 33 31 31 31 32 31 35 51 69 79 88 90 86 86 86 88 86 84 89 85 84 85 81 85 53 34 29 27 25
77 76 76 62 63 64 59 59 48 42 49 56 51 47 42 27 26 32 33 35 34 32 32 32 32 30 31 43 71 85 91 85 85 84 84 84 84 88 90 84 85 86 83 36 32 31 31 28 24
82 86 90 66 58 60 71 75 56 58 59 58 54 54 54 51 40 28 27 33 36 35 33 32 32 29 32 39 77 83 91 84 86 88 83 83 89 94 88 82 85 77 34 33 36 33 26 21 21
84 90 79 71 60 67 69 68 56 53 52 51 51 49 47 48 48 44 40 34 39 36 34 32 32 31 31 39 77 82 93 90 94 91 87 90 95 90 87 84 78 35 35 38 37 29 24 22 21
76 83 86 76 63 69 62 61 52 46 50 51 51 49 45 46 40 41 42 41 38 36 34 33 32 31 34 45 75 86 90 88 97 95 95 97 93 87 87 73 35 36 42 42 38 33 28 24 22
75 83 78 64 61 65 65 65 50 48 46 43 42 44 48 39 37 37 36 38 41 37 36 34 33 36 40 51 67 78 84 92 90 98 99 96 89 85 67 36 36 44 45 44 43 39 33 27 24
77 86 77 72 67 62 67 61 38 31 37 40 42 41 41 44 40 29 36 39 39 39 36 35 35 38 49 63 80 88 94 93 99 99 99 90 82 69 36 36 45 48 48 48 47 44 36 28 22
87 71 72 76 80 80 63 67 37 33 30 30 30 30 35 38 38 27 30 36 43 40 37 38 40 47 57 78 87 82 82 86 92 98 94 81 64 38 37 43 48 49 50 50 49 45 38 28 20
77 63 70 74 88 84 74 88 55 48 47 40 40 35 32 29 32 28 25 31 40 40 37 37 40 52 71 88 96 96 85 86 88 93 78 73 50 38 40 48 49 50 51 51 50 44 33 24 18
71 80 76 81 85 96 68 76 53 41 36 34 32 28 27 30 32 40 38 32 41 41 40 40 42 50 78 98 100 95 83 82 85 77 73 68 39 39 46 49 50 51 52 52 49 40 29 21 17
71 100 95 96 97 82 60 77 53 40 37 36 34 34 28 28 30 33 43 44 43 42 40 42 46 52 68 100 99 99 91 85 80 76 74 54 38 40 48 50 51 52 53 52 46 35 24 18 18
86 84 87 89 85 71 67 81 54 44 35 34 35 34 34 31 30 34 36 45 46 41 42 43 51 62 69 97 100 100 89 77 79 75 71 40 39 45 49 51 52 53 54 51 41 28 21 20 21
97 97 68 84 71 92 63 60 49 44 46 50 50 49 52 43 34 32 40 46 47 43 42 41 56 67 73 91 100 96 81 81 81 73 42 39 42 47 50 52 54 55 53 45 34 24 20 22 24
89 73 96 97 96 86 73 75 61 48 42 56 57 56 56 56 48 35 43 49 49 47 49 59 66 68 80 98 96 94 89 83 74 48 40 40 45 49 51 54 55 54 48 38 27 22 23 27 27
92 98 99 92 90 86 72 48 40 34 45 62 60 65 65 62 55 44 38 47 54 59 67 72 77 87 90 92 94 90 85 69 45 40 40 43 48 51 53 55 55 51 41 29 23 24 30 30 29
66 70 73 95 78 85 87 62 48 58 64 61 64 66 64 70 66 64 54 58 67 75 86 87 93 93 92 92 88 77 61 43 42 41 43 47 50 53 55 56 53 44 32 24 24 30 32 31 29

GFSSGP_850_rhum_024.txt.gz
RH
33 31 29 30 28 26 26 18 20 22 23 22 21 22 21 22 25 28 36 46 37 37 89 91 86 87 88 76 66 62 66 46 56 71 70 79 82 83 90 83 44 39 41 58 52 84 88 90 90
33 31 32 28 28 29 22 19 20 22 21 22 22 25 23 22 35 49 50 40 42 57 90 95 97 96 86 74 67 65 56 41 80 89 82 87 80 79 63 60 48 35 33 33 41 59 58 83 81
35 32 29 26 27 28 24 20 16 22 22 19 23 28 25 28 46 46 47 34 45 62 86 92 91 92 86 75 68 67 47 36 84 89 80 61 64 74 80 76 59 41 38 34 33 34 33 31 32
45 38 32 29 28 24 24 18 23 22 21 22 22 22 30 37 46 52 36 40 38 82 85 65 89 88 85 74 70 65 44 32 66 96 72 80 83 88 90 86 78 52 47 47 46 45 45 47 51
46 35 29 32 27 22 22 23 23 22 22 20 20 21 25 40 38 41 36 37 66 82 92 56 96 96 92 71 66 58 44 38 43 70 80 82 84 86 92 84 80 55 49 50 51 51 55 65 72
38 32 31 30 25 25 23 23 24 22 21 21 19 19 24 37 41 38 39 40 42 70 88 89 98 98 89 71 60 56 47 33 42 78 87 85 83 85 82 85 80 54 50 54 60 69 75 79 79
33 32 26 25 24 24 25 24 24 21 20 21 23 20 25 38 45 41 38 40 44 78 50 77 93 97 89 74 69 62 50 33 33 68 86 86 82 84 84 79 77 49 55 67 74 76 78 80 83
42 31 28 31 26 27 24 27 25 25 21 25 26 20 22 37 45 45 42 47 50 45 56 64 96 96 92 82 76 69 58 42 32 48 68 82 81 82 78 72 58 57 71 78 78 79 86 88 87
62 38 35 32 30 25 30 28 28 33 29 30 28 28 34 31 44 57 63 53 57 52 48 61 93 96 98 99 73 74 64 56 42 38 44 58 87 77 81 58 55 73 80 81 86 87 87 84 79
47 43 33 26 27 30 28 33 32 32 28 27 30 32 36 35 45 67 68 67 72 60 57 63 85 97 100 98 89 84 82 62 61 44 36 58 61 76 60 52 72 83 86 90 86 85 83 78 79
48 47 31 43 41 42 39 41 41 32 31 28 27 29 37 40 45 53 58 57 67 72 74 56 61 85 97 97 97 98 97 96 95 74 44 38 47 52 68 84 93 94 91 85 82 77 78 78 80
55 46 46 43 50 54 46 44 45 39 31 28 39 40 42 40 40 40 49 54 59 70 72 50 53 56 69 94 95 98 95 97 97 85 61 62 77 67 93 94 95 83 82 83 81 80 80 82 78
53 41 51 50 58 53 49 47 43 40 39 41 42 45 44 40 41 40 40 46 56 57 51 44 49 49 54 67 95 97 96 97 98 92 61 83 88 92 89 90 84 83 84 79 78 79 81 70 35
51 56 53 54 51 50 49 42 41 40 39 38 39 37 36 38 36 38 40 40 39 48 55 58 40 46 52 57 70 94 96 99 99 95 68 78 89 84 84 83 82 82 83 79 79 83 50 32 28
61 61 47 45 46 45 49 48 44 40 39 36 35 33 35 34 33 38 39 39 38 36 40 51 47 50 52 69 91 96 96 98 99 97 93 83 83 84 83 81 84 84 80 79 82 34 30 30 28
56 56 56 42 48 47 50 41 28 34 37 38 37 36 33 33 34 30 33 37 39 40 37 34 34 34 49 86 95 99 96 97 99 98 82 84 81 80 82 85 82 83 80 74 33 34 32 25 20
55 52 56 48 40 41 49 46 36 48 45 43 39 39 40 42 44 39 33 36 39 38 39 33 34 34 36 71 95 99 98 99 87 82 82 80 79 82 87 86 82 82 72 34 35 34 27 22 19
48 61 50 48 40 46 47 46 38 40 39 38 39 39 40 42 43 44 41 40 39 36 32 36 34 33 35 69 97 100 100 96 88 81 83 80 83 88 90 85 82 82 35 36 38 34 32 28 22
53 56 56 47 44 50 46 42 35 33 35 35 34 33 34 34 36 40 44 43 46 38 31 36 34 33 34 63 74 91 84 89 91 87 90 85 90 97 86 82 82 36 37 42 40 40 38 34 27
59 64 62 48 42 50 46 45 37 33 32 31 30 27 26 26 30 30 38 41 44 45 40 37 34 34 36 59 60 88 84 80 91 99 93 94 98 95 83 80 39 37 44 44 45 45 43 38 30
58 64 62 63 52 47 50 45 28 22 22 24 28 28 28 27 26 27 28 35 41 44 44 37 36 35 40 51 86 88 89 95 98 100 98 100 97 89 71 44 37 43 46 47 48 48 46 38 31
65 45 51 58 64 69 48 57 32 25 25 23 22 23 24 25 27 28 27 30 34 42 35 40 38 38 42 47 53 61 72 90 98 98 99 98 95 64 49 38 40 46 48 49 50 50 47 40 28
62 51 54 56 64 67 58 83 36 32 32 27 22 21 21 23 25 27 30 31 32 37 36 40 40 45 45 42 56 80 98 100 92 96 96 97 77 47 39 40 45 48 49 50 51 51 46 38 27
58 61 63 61 75 91 56 69 41 28 24 23 21 21 21 21 27 30 31 36 36 45 36 43 42 45 49 56 68 89 98 90 87 95 97 92 64 45 40 42 47 49 50 51 52 50 45 35 24
66 87 75 84 93 63 35 50 43 26 24 23 21 19 24 25 26 31 35 41 51 51 37 46 45 48 52 69 85 98 99 91 87 87 95 78 60 49 41 45 48 50 51 52 52 48 41 29 22
72 69 68 64 50 40 40 59 33 22 23 23 26 28 39 42 43 34 35 45 52 48 36 49 48 50 57 75 92 93 100 95 92 91 77 70 70 44 42 47 50 51 52 53 50 45 34 24 21
79 94 58 79 58 70 44 32 25 22 24 24 26 38 43 48 54 48 39 45 54 64 41 48 54 56 66 86 92 84 100 97 90 79 72 69 60 41 45 49 50 52 53 51 48 38 28 23 24
70 57 89 93 81 66 40 34 33 26 25 26 32 35 44 51 53 54 46 49 57 70 50 58 70 65 73 86 98 90 93 90 92 71 69 65 44 43 47 50 52 53 52 49 42 32 24 26 29
86 95 98 72 76 64 50 33 19 23 21 25 34 42 53 59 56 63 55 64 75 82 86 75 81 77 77 84 94 92 93 95 78 65 58 50 41 45 48 51 53 52 50 45 34 26 25 29 30
43 59 66 94 83 86 84 63 23 27 34 41 36 43 54 66 68 71 77 82 91 95 92 84 84 81 81 84 98 96 99 84 77 66 46 40 43 47 50 52 53 51 47 38 28 26 28 30 31

GFSSGP_850_rhum_027.txt.gz
RH
35 42 35 31 27 25 24 19 13 17 16 15 18 18 18 20 22 29 54 65 60 74 91 67 81 69 68 68 62 59 65 41 35 53 81 82 83 82 86 75 42 36 50 68 65 85 90 87 87
34 38 33 25 29 28 23 15 16 12 17 19 18 18 19 20 26 50 56 60 62 77 93 91 84 82 74 73 68 64 52 57 80 84 75 80 81 77 56 50 36 31 28 32 39 61 67 78 73
36 36 27 26 26 27 21 16 15 15 18 18 18 20 20 24 35 40 55 44 62 75 84 93 88 96 87 76 70 64 40 56 87 91 81 57 58 66 71 64 47 38 31 28 30 33 30 34 35
42 33 26 29 27 20 18 16 14 17 17 19 20 19 24 34 37 45 60 57 62 73 79 88 94 91 87 81 73 64 38 42 87 81 50 64 79 83 79 74 61 43 42 41 40 40 43 45 50
42 28 29 27 23 17 15 16 17 18 17 18 19 18 22 39 47 55 63 58 63 71 84 75 88 94 87 77 67 57 37 30 74 78 66 75 80 84 87 84 75 49 47 48 49 51 58 64 69
34 26 29 27 22 17 14 17 18 17 16 17 18 18 23 42 46 59 62 60 61 72 84 94 89 95 90 76 64 56 41 32 46 68 76 78 82 85 83 82 79 55 51 57 67 70 73 75 76
34 29 27 23 19 16 15 18 18 18 16 16 17 19 23 34 55 61 62 61 64 72 80 94 94 92 89 77 65 61 47 32 52 71 81 83 81 83 81 82 77 48 53 69 75 75 77 81 83
35 28 29 24 20 19 14 18 19 18 18 19 20 18 20 36 60 60 61 64 65 73 77 82 99 88 80 79 72 66 54 33 36 67 74 80 81 84 86 78 65 49 67 73 76 82 85 83 79
48 38 33 28 21 19 15 19 20 21 21 21 20 20 32 38 59 60 63 68 68 74 76 75 88 100 93 97 71 71 61 43 33 47 58 73 86 83 83 76 52 63 70 76 82 85 84 78 73
44 39 30 18 16 19 18 23 21 23 23 20 24 26 32 40 49 56 58 61 66 71 74 78 78 86 97 98 95 81 84 58 45 38 41 56 88 91 89 54 54 71 77 82 83 81 80 76 72
40 40 23 21 29 29 25 23 28 27 26 20 20 23 28 33 42 47 51 50 57 64 70 79 82 82 97 98 98 97 95 96 90 84 75 77 81 67 60 51 64 79 85 84 81 79 76 77 79
41 33 30 27 32 40 36 31 28 28 28 22 23 25 29 34 32 34 39 45 46 55 65 76 81 88 96 99 99 88 85 87 87 90 85 78 72 72 80 84 90 94 82 82 80 76 76 78 74
40 37 30 35 38 41 42 38 33 32 32 30 30 30 35 35 32 32 33 36 42 49 60 71 78 90 91 95 96 87 83 84 86 91 84 72 75 80 81 87 87 80 82 81 78 77 77 75 34
38 38 36 39 38 40 40 36 34 32 31 31 31 31 31 31 33 32 33 34 36 44 52 64 76 91 91 87 88 83 82 84 90 89 87 80 81 84 91 85 80 81 80 78 76 78 75 32 28
51 52 43 40 40 40 40 43 39 34 30 28 27 26 27 28 27 29 30 32 34 33 41 49 67 80 88 90 88 84 85 85 93 89 88 87 90 88 79 80 77 78 80 80 78 70 32 29 24
50 46 53 31 33 34 39 43 22 25 27 28 28 28 26 25 24 26 28 30 34 34 33 35 51 69 84 86 88 84 83 84 94 91 88 91 88 79 77 77 79 76 80 78 74 33 31 26 22
50 51 42 36 32 34 42 43 27 32 36 28 28 28 28 27 27 25 25 28 30 33 36 37 40 51 62 74 80 81 82 85 89 91 92 97 79 76 74 80 81 78 78 78 33 33 31 29 25
44 46 40 38 29 36 40 39 30 29 31 32 33 32 30 30 32 32 31 31 28 28 34 36 40 43 49 63 76 80 83 85 92 96 99 80 77 75 76 84 83 80 81 36 36 36 37 35 31
37 43 42 34 30 36 37 35 31 27 26 27 28 28 29 29 29 30 33 36 34 31 35 36 37 41 48 58 73 82 86 88 97 99 84 80 77 77 86 91 83 80 45 35 40 42 42 41 36
46 49 47 37 34 38 38 38 30 27 26 26 26 25 26 26 26 25 27 32 37 35 37 38 37 43 51 59 71 87 92 96 100 95 86 83 82 83 93 91 81 65 35 42 44 45 46 44 40
49 52 49 48 39 37 40 39 24 20 20 20 24 26 26 25 23 21 21 24 29 36 36 38 39 43 55 65 83 98 98 100 99 98 96 90 89 88 97 86 78 37 38 45 46 47 48 45 42
56 38 41 44 52 55 40 50 29 20 19 18 18 19 20 22 23 23 22 21 24 28 35 40 41 48 61 72 89 70 57 75 94 100 99 93 93 96 92 75 47 39 44 47 48 49 50 47 42
54 44 49 49 55 64 51 64 34 23 25 21 19 19 19 20 20 21 21 24 24 24 32 42 49 59 73 74 82 79 80 91 98 100 100 99 98 98 90 56 42 43 46 48 49 50 50 49 40
51 51 54 53 59 80 46 39 30 21 17 15 15 17 18 17 18 19 24 25 26 28 31 44 54 70 82 81 80 75 76 89 93 99 99 99 96 94 85 43 43 45 48 49 50 51 51 49 40
55 68 69 79 90 65 27 38 32 19 18 19 18 18 18 20 27 30 24 27 29 31 32 49 61 79 85 91 76 74 94 85 85 97 95 94 95 88 63 43 44 46 48 50 51 52 51 48 36
65 61 60 58 47 39 28 41 30 17 16 18 19 19 20 21 34 44 44 31 30 36 38 57 72 82 85 76 88 93 97 89 93 92 91 94 90 78 60 43 45 47 50 51 52 52 51 43 31
66 86 52 66 50 61 38 28 21 18 17 16 16 20 22 29 40 44 49 44 31 40 49 61 76 81 84 90 93 99 96 97 98 90 91 89 73 58 47 43 45 49 50 52 52 52 48 37 27
57 53 84 90 79 60 36 30 28 20 18 16 17 18 23 33 42 48 53 45 36 42 52 66 73 78 85 92 98 96 98 100 97 91 90 77 61 58 47 44 47 50 52 52 52 50 43 30 26
71 81 73 55 81 65 57 38 19 22 23 21 21 27 33 43 47 51 58 50 47 44 59 68 73 79 87 93 88 96 99 99 95 94 86 73 59 51 44 45 49 51 52 52 51 45 34 27 28
39 59 58 90 68 76 81 64 26 22 23 24 24 30 36 38 44 51 65 66 65 63 69 74 76 81 87 79 84 93 99 99 96 91 72 61 48 44 45 47 50 52 52 52 47 37 28 26 30

GFSSGP_850_rhum_030.txt.gz
RH
33 43 36 33 46 41 40 30 14 16 16 14 17 18 20 19 32 61 56 59 55 47 47 49 41 49 48 46 47 54 51 36 34 71 73 84 86 82 78 40 32 38 62 58 60 76 75 76 82
33 39 33 32 46 47 35 23 20 14 14 18 18 17 18 22 38 44 59 60 77 66 53 52 45 47 55 58 59 60 38 50 62 89 77 79 82 80 48 32 27 27 28 36 41 67 78 80 66
35 40 34 43 42 43 34 20 17 14 17 17 17 16 16 30 39 50 55 60 77 88 54 51 64 57 60 58 59 53 40 86 88 81 70 50 58 51 48 44 36 30 25 27 30 32 26 28 28
48 39 32 37 36 30 26 20 15 16 16 17 18 20 23 35 38 48 50 61 73 80 90 70 69 78 79 64 58 47 34 85 91 63 50 64 73 75 70 56 44 41 39 37 35 37 39 43 47
47 40 42 38 33 26 20 15 16 18 16 17 19 21 32 40 41 51 49 60 71 77 85 87 70 93 83 76 61 42 29 73 88 50 56 70 73 79 77 68 51 44 44 45 46 49 54 60 66
44 34 44 42 33 22 18 14 17 18 17 16 17 19 37 44 49 57 56 60 69 73 81 79 73 84 78 69 54 38 28 29 73 69 63 65 74 83 87 71 54 43 45 49 55 62 68 74 80
45 45 43 34 30 23 18 14 18 18 18 17 16 19 34 45 52 61 58 58 67 76 82 64 70 65 74 56 46 42 29 26 47 59 67 72 76 76 74 69 60 43 51 57 66 69 78 82 81
38 44 47 36 30 27 17 14 17 18 19 17 18 20 33 56 56 61 59 60 65 76 82 70 70 62 72 60 49 42 36 27 44 56 71 76 77 84 80 74 57 42 56 66 70 76 79 78 70
40 55 50 41 32 26 16 17 18 19 20 19 19 19 32 52 59 59 60 64 63 74 79 86 71 82 80 73 54 46 39 28 32 50 64 73 78 79 78 63 48 51 62 70 76 79 78 75 70
50 62 51 30 23 24 18 17 19 21 21 22 21 25 32 38 58 60 62 66 66 73 75 80 86 86 94 94 66 61 52 37 28 35 50 68 87 86 78 73 47 60 69 74 78 77 75 74 73
44 54 34 27 22 27 33 30 22 26 29 23 20 22 26 35 44 55 57 60 65 70 73 74 80 82 90 97 96 77 54 53 40 32 36 55 89 91 85 60 51 69 75 77 78 75 76 77 76
45 36 35 33 28 33 38 32 32 28 27 26 26 23 28 30 34 41 48 50 55 62 69 76 78 81 84 89 98 91 81 79 74 72 62 52 80 68 72 69 86 88 84 79 81 74 75 73 67
42 38 32 31 32 35 37 40 42 38 32 28 28 29 28 33 33 31 33 38 46 54 60 70 79 82 84 88 97 91 92 87 88 88 80 79 68 59 78 89 88 90 79 80 78 76 76 71 37
33 36 37 35 32 36 38 40 40 35 33 33 32 31 30 30 34 34 32 33 34 41 53 64 74 83 88 91 91 82 86 82 85 88 82 74 71 77 82 84 84 78 79 80 77 76 78 40 27
44 55 46 42 40 41 38 46 44 37 35 31 29 29 30 30 30 30 32 32 34 35 44 55 68 78 87 95 87 85 83 81 84 86 90 75 79 82 83 82 72 77 79 80 79 78 46 28 24
55 55 70 39 39 37 41 57 37 31 34 34 32 29 27 26 27 28 28 29 32 33 34 47 58 72 78 88 89 88 84 83 82 86 88 81 85 84 84 74 77 77 76 79 79 68 30 27 26
53 69 56 45 34 34 41 51 37 32 29 34 31 28 28 27 27 25 25 25 27 29 34 34 47 59 66 86 89 82 85 81 80 84 89 84 89 83 75 75 76 80 77 78 79 32 32 32 31
63 58 53 48 36 37 44 46 36 31 30 30 33 32 30 29 28 26 25 24 25 28 31 34 35 52 61 71 85 85 85 80 80 83 86 83 88 79 75 77 81 79 78 80 38 34 37 38 36
51 47 46 40 31 39 41 39 34 29 28 29 29 29 30 30 30 29 29 30 27 26 27 28 35 38 41 65 79 84 82 76 77 82 82 82 85 76 76 79 82 72 78 60 33 39 42 43 41
46 52 54 43 34 38 42 44 36 33 30 28 27 27 26 26 27 28 28 30 32 33 32 28 34 37 39 42 65 77 80 78 78 81 90 90 83 79 80 83 86 81 78 36 38 42 44 45 44
54 57 56 52 42 40 43 45 37 26 27 27 28 26 25 25 25 25 26 26 28 32 34 35 32 36 40 41 51 75 85 78 85 85 86 96 87 85 88 90 90 82 66 35 42 45 47 47 47
63 42 46 49 57 68 48 78 42 31 26 22 21 20 23 25 26 26 26 24 24 25 30 32 36 36 37 43 54 72 83 78 85 88 94 98 91 92 93 94 92 80 46 39 45 47 49 49 49
53 49 51 54 63 68 60 81 54 28 29 24 22 18 19 20 20 21 22 22 23 23 24 28 33 38 39 45 58 77 79 72 75 92 97 99 100 100 98 96 85 73 38 44 47 48 49 50 50
51 51 54 59 66 89 68 61 50 26 23 22 22 19 19 19 18 20 22 24 24 24 22 24 32 36 40 51 67 82 72 71 80 93 98 99 99 100 98 94 79 59 41 46 48 49 50 51 51
61 67 93 96 97 89 35 58 40 23 21 23 21 18 18 18 19 24 31 35 36 26 26 26 27 41 43 62 76 89 81 80 70 81 94 96 99 98 91 86 76 57 43 48 49 50 51 52 51
67 64 90 80 85 67 41 60 38 23 20 17 18 18 18 18 20 34 41 45 49 42 29 29 29 50 50 66 88 93 90 87 69 72 90 96 99 96 88 88 60 46 46 48 50 50 52 52 50
66 84 54 77 60 84 54 33 25 22 22 20 19 17 19 19 22 37 43 47 49 46 35 31 33 53 63 81 89 97 98 82 76 81 99 98 98 93 90 73 56 45 47 49 51 52 52 52 48
53 52 90 92 97 80 50 40 39 28 26 24 23 22 21 21 37 44 47 50 51 44 36 36 40 51 72 89 96 94 94 96 92 87 99 100 95 92 77 68 50 46 49 50 51 52 52 50 42
69 76 70 67 81 91 75 51 26 32 29 28 26 28 34 39 44 45 49 51 56 48 42 42 51 66 81 89 93 92 95 97 94 91 97 94 91 77 72 57 46 47 50 51 52 53 52 47 36
52 65 63 88 78 80 89 66 29 31 28 28 28 25 30 34 38 40 49 56 56 65 57 53 57 74 81 89 92 95 98 97 94 89 85 79 86 64 57 47 46 49 51 52 52 52 49 39 28

GFSSGP_850_rhum_033.txt.gz
RH
34 32 36 37 48 57 52 45 30 21 18 19 18 19 20 25 33 52 53 56 60 47 65 47 40 33 34 34 37 39 41 43 41 53 74 90 84 79 58 28 36 57 58 55 74 72 74 73 77
34 33 37 35 58 61 56 35 34 21 19 17 16 15 18 45 43 60 58 60 58 50 61 48 43 32 30 34 36 31 28 30 85 84 82 82 82 74 30 25 24 28 43 47 76 75 76 80 74
36 38 42 54 59 60 52 29 25 19 17 17 17 17 18 44 44 48 54 61 60 54 56 43 40 36 35 38 33 27 55 82 85 73 63 63 50 37 32 33 27 23 26 29 33 53 44 26 25
37 44 40 47 52 43 36 28 20 18 17 16 18 22 36 41 46 53 58 58 69 68 55 48 41 40 39 45 35 26 63 71 78 50 36 42 48 42 42 37 38 35 30 26 28 32 37 41 45
52 49 55 53 45 35 31 26 20 20 18 18 18 23 42 48 42 50 60 62 76 74 57 55 41 46 44 43 34 27 50 75 59 37 58 58 54 57 50 40 38 38 38 39 42 48 55 62 68
51 46 64 63 50 33 28 20 20 20 18 17 19 21 43 49 45 52 63 66 75 74 76 75 56 45 51 50 34 26 28 47 60 40 58 59 73 72 56 45 38 39 41 45 52 59 64 72 76
55 60 62 48 44 36 29 21 21 20 19 19 18 22 49 54 52 51 62 67 72 77 83 84 69 60 60 50 35 26 21 35 55 55 58 68 78 77 61 52 40 40 46 53 55 63 74 76 74
42 58 56 53 45 40 25 19 16 19 21 18 18 30 58 57 59 52 61 66 69 78 80 78 77 65 59 51 40 32 22 21 31 43 60 69 74 69 67 51 40 42 52 55 60 67 72 70 67
42 64 70 57 50 39 24 25 19 19 18 19 21 34 46 55 62 60 59 70 70 74 76 70 66 64 63 57 44 40 31 23 27 42 60 71 75 78 74 59 41 47 57 61 65 70 71 69 65
53 71 65 42 39 35 27 32 26 21 21 22 22 33 50 53 61 60 61 62 68 74 79 76 77 65 71 72 56 46 37 28 25 43 50 61 69 73 72 64 45 56 62 68 73 71 69 73 73
49 72 50 47 36 32 37 35 33 28 28 22 21 29 30 27 47 60 62 64 64 72 73 80 83 82 74 66 68 56 47 37 28 33 50 63 72 67 72 65 46 65 69 73 74 72 73 74 74
58 45 44 40 37 36 39 38 42 38 32 32 28 27 28 40 35 54 60 63 64 66 72 74 79 86 81 80 56 58 54 47 39 30 38 63 68 84 73 68 52 66 75 78 75 71 72 71 63
52 46 40 38 35 36 35 41 43 42 38 30 29 30 30 30 39 42 51 56 60 64 66 73 74 80 81 82 84 63 67 65 58 51 48 49 61 76 66 69 86 79 84 77 77 74 73 73 45
38 41 44 42 42 41 40 40 39 41 34 34 31 30 31 32 30 33 34 37 44 54 62 67 74 69 78 81 84 75 70 77 81 75 78 62 66 60 63 78 86 85 85 79 77 75 76 70 30
47 55 54 50 46 46 39 52 51 36 33 35 34 30 29 30 32 31 33 32 34 36 49 60 68 74 72 78 84 80 73 90 86 85 87 84 69 68 75 82 86 87 77 80 80 79 77 36 26
56 58 77 55 45 44 45 57 44 36 38 39 36 34 29 28 29 28 29 31 33 34 34 51 63 69 73 75 82 82 75 84 83 84 86 86 70 77 78 83 86 78 77 78 80 80 71 29 27
61 80 75 62 42 45 51 57 43 38 37 38 36 35 34 32 28 28 27 25 29 32 32 35 55 61 64 65 73 83 82 83 82 84 84 85 81 80 81 80 82 75 76 76 78 79 36 31 32
77 76 67 64 42 41 49 57 47 36 35 34 32 30 34 33 30 28 27 26 26 26 30 29 42 48 53 59 65 74 70 86 84 80 81 85 84 79 84 84 76 76 77 77 78 59 33 37 38
58 63 60 49 39 40 46 49 42 35 33 33 31 31 28 29 32 30 30 28 26 25 25 26 30 42 53 60 67 72 83 84 79 80 81 83 83 80 82 79 77 78 81 77 75 32 38 41 42
66 62 61 51 41 43 49 47 39 36 35 33 32 32 29 28 28 29 31 31 30 29 26 25 27 36 42 57 60 56 61 78 78 78 81 81 82 83 84 80 79 81 81 76 62 34 40 43 44
56 62 61 61 51 48 53 57 46 37 34 33 32 31 30 28 27 27 27 27 28 29 30 30 29 30 44 49 59 55 58 70 75 77 78 83 84 85 83 83 80 84 83 77 45 37 43 45 45
66 51 54 57 65 77 55 88 67 39 33 28 29 30 28 27 27 26 25 25 26 27 28 29 31 32 33 44 58 54 56 66 74 67 74 82 77 81 87 88 84 89 86 77 38 41 45 46 47
61 53 56 59 68 71 68 80 69 51 37 32 27 21 22 21 20 21 22 23 23 24 25 25 27 29 32 38 40 41 56 64 65 65 71 69 66 87 88 91 90 93 88 68 38 44 46 48 48
51 54 56 63 75 98 74 75 65 42 29 23 24 20 18 20 21 21 24 26 26 24 24 24 23 27 28 32 41 43 45 56 64 72 68 69 77 83 90 95 96 94 84 64 39 46 48 49 50
62 70 95 93 92 90 57 81 63 32 26 24 26 19 18 20 20 21 22 23 27 29 30 27 25 24 28 32 35 46 46 51 54 56 63 64 80 94 94 98 97 94 73 48 44 48 49 50 51
76 68 90 87 98 84 54 72 51 32 26 22 18 17 17 17 20 22 28 32 33 30 30 32 34 28 25 30 38 42 50 59 66 65 62 76 87 83 96 96 91 88 56 47 47 49 50 51 51
73 88 61 81 73 93 69 47 31 24 25 26 24 23 22 18 19 37 42 42 41 35 26 29 44 33 28 27 46 49 59 66 66 72 84 97 100 96 93 92 88 71 57 48 49 50 51 52 52
57 59 86 94 98 92 70 56 42 33 32 30 30 36 37 28 40 46 43 42 30 25 29 40 40 36 30 42 56 63 61 66 72 78 96 97 100 97 92 91 79 72 52 50 49 51 52 52 52
71 70 66 74 90 96 98 66 35 32 34 33 33 31 33 37 38 39 37 38 32 29 24 44 39 38 34 47 62 67 77 76 80 94 90 82 97 94 95 88 73 72 60 49 50 51 52 51 50
63 75 72 94 74 92 93 70 29 31 33 34 34 38 50 43 34 38 42 44 35 30 28 56 50 46 45 54 64 80 79 77 86 91 89 92 98 94 88 88 73 50 54 51 51 52 52 52 48

GFSSGP_850_rhum_036.txt.gz
RH
38 33 38 36 46 59 58 52 37 34 22 20 19 19 21 32 34 44 51 52 61 61 56 48 51 48 44 40 39 37 42 53 77 84 72 67 73 69 23 27 74 71 80 82 83 76 74 72 64
38 34 39 38 59 62 58 42 35 32 22 20 17 18 22 47 48 50 54 56 58 51 50 42 41 36 35 31 26 22 23 29 36 55 78 80 72 38 20 21 43 55 62 78 74 74 74 73 71
40 35 39 53 64 64 56 37 26 21 19 18 17 19 29 42 39 39 48 54 60 50 43 39 37 32 27 28 26 20 25 52 86 78 73 64 43 24 22 20 20 28 46 71 77 75 73 40 28
42 41 46 56 63 50 44 31 27 26 19 16 19 24 42 44 41 42 48 52 59 53 44 40 43 38 36 30 21 31 40 58 66 52 37 30 27 29 29 28 22 22 24 25 31 28 30 38 48
48 50 60 59 55 44 37 30 26 28 22 18 19 26 40 47 49 46 44 47 55 55 48 41 49 47 43 32 23 32 40 52 49 28 31 34 35 34 33 34 34 32 31 32 36 42 52 61 67
57 54 74 60 52 39 34 26 24 23 20 19 21 37 46 48 50 47 54 57 61 54 55 50 54 55 48 40 26 23 26 41 32 42 48 45 46 44 38 38 39 40 42 47 53 57 62 70 73
64 66 72 61 55 47 36 27 24 23 22 20 18 40 54 56 60 50 59 74 78 71 56 67 58 63 58 48 32 24 24 33 33 41 52 58 71 55 42 39 40 44 49 55 59 67 74 74 72
47 63 64 56 50 48 31 24 21 22 23 18 19 61 60 51 60 64 69 75 81 80 78 78 78 66 68 55 41 29 21 26 37 43 54 66 75 67 53 45 39 48 54 58 68 72 69 65 65
46 70 78 61 53 41 29 31 26 21 21 21 24 31 24 43 57 63 67 75 80 86 86 82 87 70 64 58 48 37 25 23 33 50 56 70 70 66 62 52 40 50 57 62 67 70 69 64 62
57 78 68 49 44 42 33 34 33 26 22 24 27 32 46 55 60 60 63 73 81 84 77 84 79 78 63 63 53 45 33 24 25 41 50 66 72 70 70 54 41 52 61 66 70 69 68 69 70
57 76 54 50 46 42 39 38 38 33 30 29 36 47 55 57 62 60 60 60 63 73 78 77 76 71 65 67 60 50 40 30 26 35 48 59 62 62 65 61 44 54 62 70 70 72 73 74 72
60 51 47 46 41 44 40 36 43 39 32 32 34 36 52 60 62 61 60 60 62 66 71 75 74 76 78 71 67 61 45 38 28 31 45 53 57 56 58 62 45 49 63 69 70 71 69 72 70
59 51 45 41 40 43 38 42 44 43 36 32 37 34 33 32 38 61 61 63 63 62 65 66 71 73 76 81 76 64 50 49 40 30 36 46 48 55 67 70 57 53 69 73 69 70 71 73 69
48 47 45 43 44 45 43 43 39 41 36 33 33 32 32 32 32 45 61 63 63 64 62 63 68 69 71 75 79 76 67 53 51 44 33 33 38 51 62 78 69 78 80 80 74 74 74 75 61
48 56 53 50 47 48 42 49 55 38 32 33 31 30 27 28 30 32 32 37 41 48 67 66 65 67 64 68 72 76 75 72 63 67 62 54 42 47 62 66 72 82 86 80 77 77 77 77 38
57 61 68 50 45 42 46 55 44 37 36 37 34 32 29 25 24 26 29 30 33 33 35 61 69 66 64 64 67 70 75 77 65 78 77 72 71 62 58 64 74 84 87 82 79 80 81 76 30
63 76 75 66 50 49 56 59 45 34 38 39 36 36 35 30 24 28 22 28 30 32 32 32 55 72 62 64 69 69 70 77 69 79 84 80 83 72 67 73 76 86 88 78 77 78 80 62 31
79 79 71 69 49 47 57 64 52 43 44 42 38 35 33 32 32 30 28 26 25 29 30 30 30 48 64 62 62 69 69 77 64 72 81 84 84 83 73 78 82 89 86 77 76 78 78 33 35
61 63 67 56 42 45 48 51 46 37 37 36 33 34 31 30 30 30 32 29 29 28 26 26 25 28 48 64 62 64 66 75 74 82 83 84 87 85 84 81 84 88 86 76 78 78 63 34 39
72 63 66 55 45 45 52 53 43 39 36 35 34 32 32 30 28 28 28 30 33 31 29 28 25 26 29 52 57 58 53 62 68 74 82 82 84 81 85 82 83 88 83 79 82 78 38 37 41
59 64 63 63 56 49 56 41 41 39 35 32 31 32 32 30 26 21 20 25 29 31 31 30 29 26 26 32 51 57 64 60 63 68 78 74 79 82 72 80 82 85 79 78 81 75 35 39 42
69 53 56 61 64 80 57 83 65 48 43 35 29 29 28 27 25 24 24 23 26 27 27 29 29 31 32 32 48 56 62 64 60 58 62 74 78 67 65 84 86 85 79 81 83 74 37 42 44
65 53 56 58 70 75 71 83 66 51 45 33 30 22 19 18 19 20 20 22 23 26 26 25 26 28 29 34 34 44 57 58 59 56 56 61 68 69 70 78 85 85 83 83 85 74 39 43 46
54 56 67 75 79 94 73 76 63 46 33 26 22 20 19 17 16 18 20 24 23 23 25 26 25 25 25 27 35 34 38 56 58 61 56 54 65 68 71 77 85 88 83 86 89 72 41 44 47
59 69 88 89 94 87 63 84 71 47 35 27 30 23 19 18 17 21 23 26 28 28 26 24 24 24 24 24 25 34 38 37 52 54 55 57 59 67 67 71 88 96 81 90 85 70 45 46 49
68 66 83 72 95 88 63 81 48 40 34 25 24 23 22 23 23 24 24 23 22 22 22 23 24 24 24 24 23 25 33 42 44 52 53 56 57 53 58 73 94 96 90 91 82 58 48 49 50
75 86 63 82 75 94 74 58 34 29 28 29 30 37 36 36 37 34 45 45 41 36 32 29 26 24 22 27 26 27 27 38 42 46 52 55 57 58 68 86 98 98 95 78 77 52 51 56 53
63 64 89 93 99 84 72 67 48 32 35 35 37 36 35 36 40 43 43 46 42 32 26 24 21 24 27 37 35 29 29 32 47 47 53 58 62 69 84 100 98 90 90 84 64 59 68 51 52
74 74 72 80 87 94 97 71 42 33 34 36 41 36 37 44 49 52 52 42 45 34 30 26 23 20 24 37 35 32 32 51 63 63 60 62 73 84 97 100 93 80 85 78 66 74 73 59 51
65 73 73 91 72 95 93 80 39 39 38 40 37 44 49 60 66 67 66 52 50 38 32 29 25 22 20 41 35 37 49 72 84 68 69 82 99 100 100 97 82 78 78 72 84 89 53 51 49

GFSSGP_850_rhum_039.txt.gz
RH
38 36 34 37 48 60 59 50 41 37 28 20 21 21 24 26 32 40 51 52 49 52 53 44 55 73 72 66 73 81 84 85 80 88 88 67 69 67 22 59 75 76 96 92 94 94 74 73 59
39 36 36 40 57 61 54 45 38 32 25 21 20 22 33 45 45 46 50 50 52 52 45 39 42 55 54 54 58 58 58 77 88 72 58 69 69 32 20 54 94 96 95 87 82 76 75 69 69
41 37 41 54 70 62 50 41 33 25 23 22 20 23 29 39 42 41 42 43 57 54 40 28 33 45 47 44 41 36 36 37 39 57 70 68 44 17 17 26 73 72 78 76 74 76 67 61 29
43 40 43 60 66 52 44 34 31 31 23 20 21 37 42 43 43 42 45 46 56 50 44 26 28 38 36 32 30 29 30 50 70 64 49 30 19 21 18 18 21 42 64 77 76 69 30 33 40
47 49 67 65 57 50 40 33 30 32 28 22 21 31 37 43 42 45 49 48 52 55 50 32 30 32 33 34 24 29 44 69 55 32 24 20 22 24 25 24 21 22 24 24 28 35 45 57 65
55 56 75 66 53 44 37 30 27 26 24 22 22 38 41 44 41 42 51 54 63 56 52 40 36 37 39 34 25 39 45 51 30 24 24 23 26 26 29 30 31 32 33 37 45 56 63 74 74
68 73 75 58 50 46 38 29 29 28 26 22 20 53 48 44 43 43 56 63 71 65 53 42 42 47 47 42 27 40 38 44 28 34 32 37 35 31 31 34 36 40 44 54 60 67 74 77 72
56 64 68 63 55 44 32 28 24 23 25 21 20 51 57 36 45 51 64 72 82 80 68 51 44 51 53 48 36 33 35 51 32 40 43 51 60 38 36 35 39 45 54 60 69 76 72 69 66
50 74 83 58 53 43 34 33 29 27 24 22 24 26 31 34 49 57 72 85 88 83 76 64 65 56 50 51 43 34 33 52 40 40 50 59 61 52 43 38 39 48 57 65 72 72 70 67 64
59 81 70 54 48 42 38 38 38 33 30 24 28 34 45 52 51 49 60 74 85 82 76 79 78 79 67 60 50 40 32 39 45 45 50 59 62 57 51 45 39 50 58 65 69 70 68 68 69
63 73 54 52 44 46 43 42 36 39 38 28 32 61 62 64 63 55 54 52 47 70 71 69 79 83 77 68 55 44 37 30 36 47 50 57 66 68 70 59 42 51 61 63 67 67 67 70 71
64 57 53 47 42 45 43 39 43 38 36 33 36 44 66 67 66 63 60 56 60 67 66 70 72 76 73 71 60 50 42 36 30 36 44 54 61 66 71 65 47 50 60 64 69 70 68 68 69
62 54 50 45 43 46 43 44 46 44 34 34 35 36 36 45 66 69 62 61 67 70 70 70 71 70 72 74 71 64 57 46 36 29 38 50 54 55 63 67 62 50 62 68 72 71 69 68 71
55 52 50 46 44 44 46 46 41 41 35 33 37 34 34 33 33 36 55 66 63 67 68 69 68 69 71 73 76 74 68 60 48 38 30 38 49 56 64 69 69 55 63 75 75 73 72 71 73
54 55 54 53 48 51 46 53 60 41 37 36 33 33 30 29 29 30 35 58 68 66 66 65 65 68 68 70 73 78 76 74 58 51 44 33 38 46 61 72 75 66 79 84 80 75 75 74 76
63 61 73 51 51 46 44 57 43 36 38 38 34 30 27 24 24 26 27 33 40 54 66 65 67 70 71 70 71 72 65 70 77 72 55 46 38 38 54 66 75 74 87 88 82 79 79 79 77
65 84 75 60 49 48 58 63 45 38 37 39 34 29 26 27 25 22 23 24 30 31 32 32 35 53 69 72 73 70 66 64 68 76 66 63 63 63 53 66 69 74 90 90 85 80 80 81 74
83 72 71 69 49 53 63 70 54 45 45 47 43 39 37 36 31 28 28 27 28 25 28 30 30 30 34 63 72 71 71 71 71 74 71 68 73 75 78 72 67 79 87 91 87 82 79 79 66
65 68 69 60 46 48 53 53 47 39 39 40 36 34 36 36 31 31 31 31 32 32 26 24 28 28 28 30 54 74 66 68 73 73 73 67 75 80 78 74 69 79 82 86 87 82 78 78 49
74 72 74 58 49 48 56 57 45 40 38 36 35 33 31 31 32 28 28 29 30 31 31 30 26 27 28 28 29 52 62 64 62 65 64 70 74 67 72 76 78 75 81 90 89 82 78 78 39
80 70 67 64 57 52 60 52 42 35 35 32 31 32 31 31 29 24 22 21 22 26 30 32 32 30 29 29 29 40 59 65 63 64 66 72 66 70 65 61 79 80 79 85 87 82 78 77 40
72 54 57 60 65 79 59 82 65 45 45 39 33 28 26 24 23 22 21 22 22 23 20 24 28 29 30 31 32 31 38 52 58 58 58 63 69 69 66 65 64 81 80 85 87 82 80 77 40
64 54 58 60 73 70 70 84 64 46 40 34 30 26 25 20 19 18 17 19 21 24 25 24 27 27 28 29 34 35 42 44 48 56 57 60 60 63 66 63 60 75 79 87 93 83 82 79 46
56 58 66 80 76 90 68 71 59 40 33 36 31 24 25 22 20 19 18 19 20 21 21 22 25 26 27 27 28 36 46 50 57 64 61 61 59 59 63 70 66 68 84 88 96 87 84 79 58
58 67 83 74 96 78 71 80 58 45 40 36 40 33 38 35 32 25 26 34 34 25 23 22 22 24 25 25 25 26 27 34 42 45 52 60 63 60 59 60 64 64 67 81 98 91 87 83 50
65 65 78 58 87 86 69 85 49 39 35 33 41 37 33 34 34 37 42 44 45 44 38 34 29 24 22 23 23 25 26 25 29 38 42 45 54 63 62 57 59 66 67 86 99 88 88 81 57
76 85 63 85 78 95 74 57 33 35 38 36 36 34 36 40 44 47 49 41 43 45 43 39 34 30 25 23 22 20 23 29 27 27 42 40 47 57 58 60 62 63 76 100 97 81 78 62 62
62 65 86 93 66 76 60 68 46 36 35 39 43 39 41 50 59 62 63 63 58 53 43 33 29 28 24 23 23 23 22 29 32 28 29 43 47 51 55 59 61 70 100 100 93 72 64 58 55
74 80 82 81 83 85 91 56 48 34 40 44 44 45 57 68 74 74 73 70 70 60 47 41 33 29 26 24 20 21 31 39 34 32 34 38 55 64 66 71 80 98 99 97 86 64 63 73 74
64 71 77 83 75 98 87 79 44 46 39 43 46 56 64 74 81 78 71 71 75 66 57 56 37 33 30 28 26 28 30 41 43 40 58 72 78 91 99 96 100 100 98 91 61 68 80 76 88

GFSSGP_850_rhum_042.txt.gz
RH
40 38 34 36 48 62 59 48 42 38 30 22 23 23 26 25 34 41 48 57 44 42 57 86 76 77 92 98 91 81 82 81 82 97 90 60 60 58 21 77 69 81 80 88 99 98 74 70 51
41 40 34 39 56 57 53 46 40 35 26 24 23 29 33 36 46 43 53 46 48 46 42 49 68 85 98 99 100 86 85 87 87 97 97 59 62 26 34 81 82 97 99 100 99 78 70 66 54
42 39 39 56 70 60 48 39 39 28 25 24 21 23 27 36 39 39 42 39 41 50 37 34 45 45 96 98 80 64 82 84 88 93 77 64 41 17 22 72 66 98 88 83 76 70 69 53 28
43 40 43 63 66 57 39 34 33 34 23 23 22 32 44 42 41 39 40 42 41 52 41 31 32 43 43 51 46 45 65 84 85 69 61 39 18 16 17 30 41 61 70 68 71 70 38 32 41
45 46 68 68 61 52 46 36 32 33 29 24 23 26 38 45 43 42 43 46 49 50 48 35 30 31 36 38 32 31 33 39 66 54 37 19 19 19 16 17 29 56 70 68 52 31 38 48 55
57 52 74 70 60 43 40 33 30 28 26 24 23 33 37 43 43 42 44 48 61 54 50 39 33 28 26 31 30 26 32 93 66 38 24 21 21 22 23 22 20 22 24 28 38 52 62 68 70
67 75 74 58 51 46 38 30 30 29 28 24 22 39 37 35 38 47 50 53 60 65 54 40 32 29 32 38 29 32 34 64 49 27 24 25 26 26 27 29 30 32 36 43 55 63 68 72 72
57 66 74 66 55 49 32 29 25 24 26 24 23 37 35 34 34 46 59 60 67 68 62 46 34 33 34 35 30 37 40 54 39 33 32 39 33 33 33 34 36 39 46 52 58 70 67 62 62
58 78 83 59 56 43 35 34 32 30 30 26 24 25 31 33 43 45 62 72 80 75 66 58 40 36 37 37 35 34 47 49 40 42 44 52 58 40 36 36 40 46 52 57 71 70 61 61 61
61 84 74 52 46 42 40 39 38 35 37 30 26 48 38 41 51 44 47 54 78 78 76 68 52 48 46 44 43 35 31 32 47 38 48 54 62 56 46 43 42 53 59 75 80 70 67 64 63
65 73 55 52 44 44 46 45 39 39 39 31 32 47 67 64 66 63 62 54 47 65 72 72 70 73 72 65 56 45 34 29 37 43 43 51 63 65 63 54 45 53 59 64 68 70 70 68 69
66 59 51 45 47 48 47 42 43 40 36 34 34 36 59 77 75 73 69 58 54 50 60 72 73 78 78 78 75 60 43 36 30 37 47 52 59 67 66 62 54 47 59 65 70 72 70 68 68
64 56 52 48 48 48 47 46 47 43 37 35 34 34 35 40 71 76 75 73 70 66 64 65 72 74 77 78 73 69 58 48 38 31 35 48 53 63 66 65 56 46 58 64 70 71 70 68 69
59 55 53 50 48 47 49 48 45 42 37 35 35 33 32 33 34 38 65 71 68 63 61 66 68 72 74 75 76 74 72 66 54 45 34 38 49 58 63 67 63 62 53 66 72 75 73 71 70
54 59 56 56 51 51 48 56 62 42 39 38 35 35 34 31 30 30 31 34 58 65 64 63 65 71 71 72 75 78 77 76 72 66 50 37 43 53 62 64 65 67 59 62 75 77 74 73 72
66 60 76 54 56 49 46 59 44 37 38 38 36 34 32 28 27 26 26 28 29 46 68 68 68 71 74 73 73 73 73 62 74 73 62 53 44 45 55 62 72 77 71 72 82 82 77 77 77
70 88 80 62 54 50 58 65 46 41 43 44 38 35 34 32 29 26 22 23 24 27 35 57 68 71 69 71 74 73 72 72 70 73 72 72 65 51 43 56 68 81 79 77 85 86 80 79 79
82 74 72 71 49 59 64 71 53 38 40 47 44 40 38 38 33 29 24 26 30 27 26 29 33 34 34 35 51 69 70 72 72 70 76 78 74 66 52 47 58 75 77 76 88 89 84 81 80
70 70 69 63 49 50 59 59 52 42 41 40 36 33 32 34 32 33 31 31 31 31 31 30 28 29 31 31 32 38 56 69 70 68 65 71 75 74 73 70 64 71 69 66 82 90 87 82 80
73 77 76 62 51 50 58 59 49 42 40 38 37 34 32 31 30 30 28 27 28 29 30 31 32 30 29 30 30 30 30 35 48 64 62 61 69 73 73 66 72 78 71 73 82 89 88 83 78
81 77 73 70 57 54 65 59 44 37 35 32 29 30 30 29 28 25 26 27 26 23 22 26 30 32 33 32 31 31 35 36 38 50 59 55 64 64 66 69 70 80 74 74 78 85 87 85 79
86 53 58 60 65 80 62 81 61 47 42 37 31 29 30 28 23 24 24 19 20 21 23 22 20 27 30 32 33 34 32 33 31 31 38 56 60 57 63 69 68 63 78 80 80 86 90 89 82
84 54 60 63 73 69 67 79 55 41 33 32 33 42 40 37 36 34 29 25 21 23 24 25 24 22 24 29 30 32 33 36 43 37 39 54 61 56 58 59 67 61 67 79 83 86 89 91 87
59 58 67 78 74 88 66 65 43 36 39 41 39 44 38 38 35 34 35 36 39 37 30 24 24 26 27 27 27 28 28 30 38 47 55 54 62 61 61 62 59 60 59 69 76 87 94 94 91
57 70 87 70 82 75 72 75 52 46 42 40 41 41 40 44 44 45 42 38 40 43 44 44 40 32 28 28 27 27 28 28 32 36 47 51 52 54 62 65 63 59 58 62 70 90 96 97 92
65 61 77 54 75 75 73 85 45 41 36 39 38 38 46 53 60 61 58 52 45 38 40 45 43 38 35 34 32 33 32 30 27 29 31 38 42 48 52 61 62 64 63 63 67 92 100 100 95
74 84 63 86 79 89 70 58 30 33 40 38 40 43 49 58 62 66 66 64 59 54 47 41 41 38 36 37 33 30 28 29 29 28 28 30 36 42 47 53 58 66 67 67 70 88 100 100 93
62 66 82 90 72 64 51 63 41 35 39 48 47 46 51 61 68 74 78 73 63 57 55 48 49 42 38 28 25 24 23 22 27 33 34 31 29 41 49 57 65 62 72 81 96 100 100 98 79
75 82 82 79 84 77 72 40 48 40 42 49 49 47 59 70 76 80 78 71 67 66 64 64 60 50 44 35 31 28 26 24 24 33 40 42 40 44 58 71 77 82 94 100 100 100 99 86 70
63 74 72 81 77 95 93 71 44 43 41 46 48 52 77 82 86 86 83 81 79 80 76 74 71 63 56 50 42 35 32 27 35 44 49 44 55 64 76 92 99 100 100 100 100 99 85 66 67

GFSSGP_850_rhum_045.txt.gz
RH
39 39 35 34 40 46 48 39 40 36 30 24 25 25 26 28 36 36 43 50 42 46 58 98 87 70 77 83 87 86 88 85 86 86 66 78 68 58 24 53 56 64 68 93 98 94 72 52 51
42 39 35 37 46 46 40 40 38 34 28 26 25 26 35 31 44 41 51 54 47 44 38 63 74 85 84 95 93 84 81 81 92 95 66 53 53 23 59 83 92 94 97 99 92 74 62 60 34
43 40 37 50 52 46 38 34 34 29 26 24 22 25 27 38 45 45 46 42 47 42 30 36 64 68 76 92 97 88 81 83 90 89 46 50 28 20 66 83 94 98 100 99 83 62 55 34 24
44 41 43 52 57 50 32 31 36 32 26 24 23 23 37 45 46 45 47 46 46 48 37 33 54 88 93 96 99 77 85 78 81 65 49 38 18 18 40 60 88 96 90 74 59 57 35 29 38
46 42 56 62 56 48 44 39 35 32 31 24 24 23 27 44 46 43 44 45 50 55 46 40 35 65 53 54 84 57 72 70 72 68 44 21 19 17 20 28 47 65 63 63 65 33 35 42 53
52 48 61 59 55 44 40 35 34 30 27 23 24 27 31 44 48 43 43 47 54 58 51 44 49 55 29 42 39 36 33 33 56 51 29 20 22 21 19 22 46 60 64 44 32 40 51 59 67
62 60 59 57 49 44 38 32 31 30 27 24 23 28 28 38 47 47 46 49 53 58 56 47 34 37 38 33 28 30 32 67 62 45 22 22 22 25 27 24 23 25 26 34 47 56 62 67 66
55 54 66 59 48 42 32 29 25 27 24 24 23 29 28 41 46 49 50 52 56 61 58 50 37 35 31 29 25 26 32 80 52 33 25 27 29 30 32 34 35 36 41 50 56 62 66 62 60
58 67 68 56 50 40 35 34 31 30 31 28 25 28 29 36 46 52 54 52 58 63 63 57 46 35 33 34 30 27 33 40 56 32 34 40 37 36 37 38 40 45 55 58 69 70 63 61 61
61 72 66 49 44 41 38 37 35 34 37 30 30 43 40 32 49 51 58 57 55 60 65 62 53 40 38 39 38 32 28 28 42 34 42 49 59 45 41 39 43 50 57 63 82 67 62 61 62
65 64 56 51 41 39 44 45 40 39 38 32 32 45 60 56 92 80 65 60 65 67 68 69 64 50 48 48 46 44 36 30 34 38 40 50 58 65 52 45 41 50 55 72 78 68 65 64 65
67 61 52 44 48 50 50 44 44 41 34 35 36 35 43 71 98 97 90 72 77 71 69 71 72 62 62 67 67 63 52 40 35 36 39 40 48 62 66 57 50 44 52 60 65 67 65 64 66
65 59 52 46 48 48 48 47 44 42 36 36 36 34 34 38 60 77 78 79 76 72 59 60 66 68 70 70 74 78 75 58 45 38 41 43 44 52 66 69 63 56 49 58 62 66 67 67 66
60 54 54 50 50 48 50 49 47 42 35 36 36 32 32 33 34 42 55 68 72 72 67 63 63 66 72 58 68 78 77 70 61 50 43 39 44 48 59 69 70 69 50 56 64 69 70 69 67
60 66 58 55 53 50 48 53 60 39 39 38 34 35 33 34 33 33 35 36 42 56 63 64 66 70 71 72 71 74 74 74 73 68 60 50 42 42 47 60 67 70 67 56 62 70 73 71 70
67 61 73 54 56 50 45 54 42 38 42 41 39 36 36 29 28 29 29 29 28 29 32 46 63 66 67 67 70 69 66 66 72 74 77 74 61 45 42 50 59 68 72 65 60 72 78 74 74
72 84 78 62 58 54 50 62 47 45 44 42 38 37 36 35 30 24 23 26 27 25 26 29 39 64 68 67 69 67 67 68 70 73 74 76 76 61 50 46 53 65 74 78 69 76 82 79 76
81 80 76 63 52 60 64 68 55 44 42 41 37 34 34 37 32 30 27 25 26 26 26 28 29 38 63 70 72 71 67 66 72 68 69 72 76 77 69 59 53 63 70 79 82 80 88 85 79
65 71 71 64 51 52 60 60 51 44 43 42 39 36 33 32 32 32 33 32 32 32 34 31 30 29 32 41 49 44 40 42 56 61 56 60 68 70 77 72 64 55 62 66 77 80 90 90 84
68 75 75 63 53 52 57 57 47 42 43 42 40 38 35 33 31 28 27 24 24 25 27 31 32 32 32 32 32 33 33 33 35 44 54 56 59 59 66 71 70 63 56 64 78 78 82 92 87
76 78 77 71 56 54 61 56 46 38 36 33 35 34 30 32 30 26 26 24 21 23 26 25 27 30 31 32 33 34 34 38 37 40 35 47 56 59 58 60 61 69 71 67 71 72 75 88 90
92 58 62 60 66 73 60 68 50 44 35 36 46 45 44 42 40 39 39 37 31 27 26 26 24 24 25 31 35 36 35 36 31 30 30 30 39 51 56 57 62 64 66 77 75 72 75 85 94
76 55 60 64 71 68 66 66 43 37 35 38 44 43 48 51 53 50 44 41 44 43 38 32 27 26 26 26 33 35 34 34 34 34 34 35 36 45 52 59 62 60 62 65 70 79 79 82 94
58 58 66 72 69 82 63 63 35 36 39 41 42 43 52 59 60 56 50 42 37 38 41 39 37 35 30 30 31 35 37 35 36 37 36 38 39 43 49 51 63 63 61 61 62 68 85 85 91
60 80 86 69 82 76 72 73 47 40 42 40 42 46 53 60 62 63 58 53 46 41 38 38 40 40 40 38 33 33 35 35 44 47 42 46 44 44 43 45 54 65 64 65 64 64 73 88 91
66 65 77 59 60 60 71 76 42 40 40 41 42 50 54 62 68 70 74 73 66 57 49 45 39 41 41 39 40 38 37 35 33 35 39 42 47 49 50 49 50 52 60 69 69 68 66 88 96
72 79 59 82 77 77 56 53 33 35 41 41 45 51 55 65 67 70 76 75 66 58 53 50 47 42 40 40 35 35 34 36 36 35 36 36 34 34 42 56 62 57 58 64 69 69 69 74 100
62 63 79 83 73 59 41 49 30 35 43 46 46 49 55 73 70 69 72 76 69 70 73 67 61 56 51 45 43 35 31 30 28 26 24 31 33 33 38 54 70 71 72 69 73 83 91 100 100
73 78 78 71 74 55 44 29 41 40 45 49 46 48 64 72 74 76 79 82 73 71 82 76 72 69 65 59 52 44 37 34 31 27 25 26 33 42 46 55 77 92 94 95 100 100 100 100 100
64 74 68 76 73 89 84 50 40 39 43 46 44 48 58 75 77 78 77 86 85 78 82 74 70 66 62 58 54 51 48 42 33 31 30 37 45 54 60 70 84 99 100 100 100 100 100 100 100

GFSSGP_850_rhum_048.txt.gz
RH
38 36 35 34 29 26 25 22 22 26 23 20 23 21 19 21 23 28 44 59 67 80 94 83 94 66 76 78 78 82 88 90 88 88 84 82 72 62 26 38 55 56 61 94 93 83 55 37 54
42 38 37 34 30 31 22 20 23 22 22 24 23 22 26 23 44 63 70 56 79 92 95 94 80 72 82 88 89 87 89 86 96 92 62 69 56 30 59 84 85 87 95 99 92 71 51 40 29
44 39 34 31 32 30 23 20 17 22 23 21 19 23 23 29 51 62 57 53 87 92 92 94 76 75 75 88 91 89 83 85 97 94 40 51 27 42 89 93 91 98 100 93 82 65 40 23 24
51 42 38 35 35 27 21 22 22 22 23 22 21 18 30 41 56 63 47 49 90 91 91 70 75 90 90 96 98 90 78 80 92 62 32 29 16 40 76 90 98 97 98 90 73 48 27 29 39
52 39 38 41 33 27 25 23 25 23 22 19 20 18 21 51 45 48 52 56 88 91 91 73 75 88 95 99 98 95 83 87 86 64 34 19 16 21 44 77 77 98 87 63 50 33 30 39 50
45 38 42 44 34 27 26 26 25 23 21 18 19 19 25 41 49 47 51 80 92 94 94 95 94 99 100 100 94 88 89 91 76 63 36 19 17 17 20 37 67 70 60 55 38 32 46 58 64
42 42 41 35 32 30 28 27 26 21 20 17 20 18 29 52 47 47 49 84 88 93 79 92 84 99 97 91 55 51 59 84 68 46 28 20 21 19 18 32 52 58 49 32 37 50 61 67 66
45 38 39 36 36 33 25 28 24 22 18 22 24 18 22 58 49 49 51 56 61 85 78 86 93 92 91 63 41 39 37 71 91 56 24 25 26 27 26 23 24 27 30 41 55 59 67 66 61
56 40 41 40 38 30 27 25 26 28 21 23 25 30 44 34 45 56 59 61 65 91 93 94 91 92 89 82 41 38 39 89 79 55 26 28 48 33 34 36 35 37 50 55 70 66 63 58 58
37 38 30 28 30 30 28 23 26 26 26 25 27 36 38 39 44 82 75 67 62 66 75 89 91 90 66 47 59 37 71 85 88 54 32 57 93 88 77 41 43 48 90 86 80 69 60 57 58
38 35 28 39 34 33 29 28 31 25 27 22 23 35 60 50 65 94 93 75 54 57 63 63 77 86 58 50 65 84 95 94 94 89 82 86 94 87 66 71 46 74 69 91 84 76 64 61 61
46 35 35 40 46 44 34 31 31 28 24 31 36 36 39 74 91 99 98 80 74 66 67 67 66 68 51 50 48 75 90 92 92 78 84 88 82 95 96 94 92 93 94 99 96 86 64 62 62
44 43 41 40 47 47 44 37 30 34 34 37 38 32 36 38 59 83 93 88 68 62 67 71 69 78 67 57 79 80 86 70 75 63 53 87 84 93 96 97 96 92 93 94 93 66 64 64 64
44 44 41 40 44 45 43 40 42 34 34 35 36 33 32 35 37 42 64 78 87 88 81 69 66 74 95 69 70 73 74 83 75 68 60 44 69 65 74 93 98 96 94 92 79 63 66 67 66
53 49 40 45 41 37 42 40 43 34 30 31 28 28 32 34 36 37 39 42 48 63 78 92 79 63 64 68 74 75 77 70 70 73 90 65 54 56 55 68 94 94 95 78 63 61 64 67 68
51 44 53 33 41 44 40 30 31 35 34 33 30 28 29 33 32 33 36 38 37 34 40 60 83 72 71 63 64 64 70 65 63 72 75 74 67 56 54 69 93 96 97 79 60 57 63 69 70
47 40 41 42 43 35 41 30 28 32 35 32 31 31 32 34 34 26 25 26 27 30 31 29 31 62 71 50 62 64 67 67 66 71 66 63 70 76 68 64 85 95 94 80 71 62 62 72 76
50 42 46 39 44 49 47 36 35 38 40 36 33 31 30 31 33 32 35 38 32 29 27 27 27 35 48 78 59 66 62 64 71 67 65 69 62 64 78 73 80 88 86 84 74 74 69 76 82
40 43 38 41 43 44 42 42 38 36 36 35 32 30 30 30 32 36 34 32 33 33 33 33 32 28 32 68 70 58 67 63 62 59 56 66 62 64 67 70 75 68 65 85 68 75 82 78 86
45 43 41 54 46 44 44 45 36 34 35 36 34 32 32 33 31 31 26 25 25 26 27 29 31 33 33 37 75 40 46 59 62 59 52 53 57 55 61 61 65 71 71 77 77 72 81 87 88
54 48 54 49 50 45 45 38 38 33 32 36 37 34 34 37 39 44 48 38 28 23 23 24 26 28 31 32 38 76 89 86 46 39 37 36 39 50 54 54 58 63 72 69 64 59 65 89 83
62 56 55 56 55 48 46 35 38 30 36 34 38 42 45 48 50 53 54 55 44 40 36 30 27 26 26 29 33 42 75 86 64 42 35 32 33 35 47 57 52 56 58 62 66 64 61 83 83
63 51 53 53 56 58 51 50 32 28 34 35 36 44 52 57 60 60 58 44 41 40 40 38 35 31 27 27 27 29 60 84 88 89 90 51 36 34 36 38 55 54 58 59 59 68 68 68 85
47 51 54 56 57 80 54 49 27 28 28 34 36 44 52 57 62 65 60 50 46 41 39 38 39 39 36 33 30 29 31 67 88 92 93 81 65 46 42 45 47 56 57 58 59 63 72 77 82
71 68 91 92 91 65 55 52 27 30 30 31 39 45 52 59 64 69 72 70 57 50 47 43 39 37 40 40 40 40 35 44 83 93 93 94 89 51 42 48 56 57 56 54 56 60 63 73 89
95 93 72 63 48 41 54 48 29 30 30 34 42 48 53 62 67 72 77 76 69 54 50 47 46 45 42 40 41 39 41 39 37 39 58 95 98 97 52 50 53 60 65 67 73 68 62 68 76
78 96 48 61 57 58 34 35 29 32 34 35 44 50 53 66 70 75 77 77 76 64 65 64 57 52 52 51 47 44 37 35 34 35 36 37 44 50 46 52 53 70 72 74 74 75 70 69 77
54 48 71 77 70 55 31 28 24 40 36 35 39 45 52 66 70 75 78 82 80 68 77 75 71 66 64 62 59 54 48 41 36 33 31 32 31 40 41 36 42 46 62 86 99 96 97 98 99
60 60 57 50 53 40 23 18 23 27 30 36 33 44 56 68 74 75 76 83 82 72 79 75 71 68 66 63 59 55 51 48 43 39 37 33 32 35 34 43 58 64 68 91 97 100 100 100 100
53 53 44 55 66 65 62 29 30 26 31 34 36 48 61 74 77 73 73 78 86 76 82 76 72 67 60 57 58 56 54 50 47 45 42 42 40 38 47 43 56 96 99 99 97 99 100 100 100

GFSSGP_850_rhum_051.txt.gz
RH
38 45 40 35 29 24 24 18 14 18 17 16 19 17 14 17 19 34 60 73 66 80 91 72 94 83 74 80 82 79 82 96 93 94 85 84 76 59 27 41 50 48 75 93 91 67 40 33 55
61 50 37 30 30 30 23 16 19 16 18 19 19 19 18 17 32 60 67 79 70 78 94 93 81 70 76 84 80 83 89 90 86 52 61 75 56 27 80 81 67 80 96 95 85 66 41 27 33
45 49 33 29 29 28 23 16 14 18 19 18 17 19 19 25 43 52 73 74 74 78 88 92 64 69 82 86 86 90 94 95 98 64 47 48 23 58 90 91 92 93 96 88 81 56 27 20 22
60 41 34 34 30 23 18 16 13 17 19 19 18 17 25 46 46 61 75 73 75 75 81 82 72 76 87 93 94 93 90 93 98 72 39 23 24 74 88 91 92 95 85 85 77 40 24 30 37
54 39 38 38 31 21 17 17 17 16 18 17 17 17 22 59 66 71 74 70 72 72 85 75 81 81 89 96 98 96 91 92 98 44 25 17 22 50 73 90 98 97 92 79 50 26 30 40 51
49 38 43 40 31 22 18 19 19 18 17 16 16 16 30 62 70 77 76 73 73 74 83 93 77 88 91 96 97 98 90 96 97 64 27 17 16 18 28 68 77 93 79 52 40 30 43 54 60
46 41 43 34 27 25 20 19 19 18 17 16 15 17 30 55 86 82 78 75 78 80 81 93 90 100 98 96 99 97 84 94 92 61 29 20 17 17 22 36 66 66 56 46 30 42 54 60 59
47 38 42 34 29 27 20 21 20 19 18 17 17 17 22 51 86 52 74 82 81 84 80 80 91 91 100 100 99 89 69 61 65 57 33 22 24 20 18 34 45 48 38 29 41 50 59 57 53
48 46 45 36 30 25 20 21 22 20 18 18 16 21 49 55 49 51 58 64 77 85 82 77 79 89 89 90 72 55 45 48 95 68 33 24 27 28 25 23 24 24 29 41 57 56 58 53 51
44 46 37 26 23 27 22 23 19 22 19 17 20 31 58 59 32 51 72 82 70 88 83 81 80 82 84 82 83 46 48 70 99 85 42 34 81 59 60 43 33 33 64 73 59 63 58 56 58
38 33 27 22 30 31 26 24 18 21 18 17 18 22 44 66 63 81 90 93 78 73 86 88 85 83 83 80 81 79 81 91 99 92 90 82 83 85 62 44 36 41 49 72 65 72 60 60 64
39 30 22 25 34 37 27 22 21 22 18 20 21 30 31 50 66 76 79 85 84 95 85 66 89 89 85 80 80 73 80 87 82 85 78 82 84 91 92 85 56 56 90 93 88 90 80 67 58
39 28 28 33 43 39 27 24 22 23 24 30 31 34 30 29 40 60 72 82 84 91 96 81 72 93 93 87 79 77 77 86 87 85 80 77 84 86 89 88 87 85 86 88 92 92 82 71 62
38 34 34 33 40 41 37 29 30 28 27 29 29 29 26 27 29 35 55 68 73 79 87 97 72 64 96 94 90 86 84 85 92 90 87 79 80 86 88 87 88 88 84 85 86 88 84 70 62
43 37 35 32 34 36 40 36 35 32 27 28 25 27 26 25 25 30 34 41 54 60 68 81 87 57 69 92 72 90 93 90 89 94 95 86 71 76 87 88 87 89 90 88 87 86 82 69 60
43 42 50 32 35 34 36 35 24 29 29 26 23 22 20 21 24 24 28 34 37 39 43 57 73 90 95 94 88 66 95 97 95 91 94 97 93 73 79 82 86 87 91 95 90 90 84 69 61
50 44 41 31 27 34 40 28 20 26 28 25 22 22 22 22 24 24 22 27 32 36 38 38 43 61 79 86 97 67 65 80 95 97 95 94 97 96 91 86 85 87 89 92 94 92 84 70 64
46 41 28 27 37 33 34 34 22 28 29 25 23 22 23 24 25 25 24 25 28 30 32 34 35 36 49 64 78 87 63 57 70 99 95 97 94 87 93 92 92 90 89 91 98 94 89 71 66
29 31 26 26 37 39 34 31 27 26 28 27 26 24 22 22 23 26 32 34 35 36 37 36 37 37 38 47 60 79 66 36 42 65 84 95 85 91 98 90 92 94 91 89 91 96 93 78 73
38 32 32 36 36 38 28 36 30 28 27 26 26 27 26 26 27 28 33 39 35 31 31 33 36 38 39 38 42 54 73 38 29 36 58 78 88 78 77 86 80 81 83 90 96 96 91 85 77
38 37 30 37 44 39 40 39 33 30 30 31 31 28 26 27 29 36 42 47 49 47 28 24 26 30 37 38 40 44 65 86 83 58 44 58 70 87 100 81 82 85 94 89 84 94 92 81 77
43 36 37 49 48 36 36 23 36 32 32 30 32 33 35 38 41 45 47 53 56 48 39 37 32 28 26 27 33 39 52 69 82 86 91 81 62 52 59 72 94 97 100 99 90 85 92 93 80
49 46 49 50 49 51 44 43 30 27 35 32 32 39 44 47 51 51 58 61 60 44 38 38 40 50 38 30 28 30 33 38 58 75 84 85 90 81 56 56 84 93 95 94 100 100 93 82 90
46 51 52 52 53 74 47 38 33 29 27 30 32 37 43 48 52 56 62 64 64 63 47 40 38 42 53 44 39 35 32 37 54 63 80 84 89 92 96 91 84 94 98 100 100 100 98 86 89
50 60 82 87 94 60 44 49 26 22 21 26 31 37 44 50 53 59 63 67 66 68 60 55 57 55 55 52 50 53 42 38 38 57 69 80 85 85 83 77 76 86 93 100 100 100 100 98 97
65 60 63 63 63 51 45 46 26 22 24 32 38 42 48 53 58 62 65 68 67 70 72 67 58 57 66 69 69 69 67 55 53 56 54 73 82 86 90 95 84 68 64 95 100 100 99 100 100
96 96 44 48 37 41 33 28 30 26 26 30 38 45 48 55 60 63 66 68 72 73 79 83 80 79 79 67 70 72 74 69 53 50 56 59 71 80 88 91 100 87 65 83 99 100 99 100 100
68 56 84 77 75 50 35 26 23 33 32 33 36 38 46 58 62 64 66 70 76 76 81 82 81 81 79 67 65 63 66 59 51 52 57 65 71 77 83 90 93 99 86 87 96 99 100 100 100
56 58 52 50 50 46 27 20 23 29 30 31 29 39 50 60 64 64 65 67 76 77 82 81 72 70 64 60 60 61 59 56 54 56 53 46 43 44 46 52 72 86 79 75 84 99 100 100 99
45 44 42 56 63 53 53 32 20 24 26 30 30 43 53 66 68 65 66 71 72 77 83 82 76 71 67 64 62 60 58 58 59 60 60 56 50 46 45 53 67 82 95 100 100 99 100 99 100

GFSSGP_850_rhum_054.txt.gz
RH
38 35 46 38 50 42 40 27 18 18 17 16 17 16 20 18 44 73 61 60 64 63 45 51 86 97 75 78 82 84 91 98 94 93 83 79 65 39 29 45 42 57 92 90 80 57 36 29 57
39 52 44 37 48 48 36 22 22 17 19 18 18 18 18 41 48 62 70 65 79 79 61 64 78 87 78 79 82 83 96 96 87 53 60 67 40 70 66 62 53 78 92 88 76 52 23 23 31
42 54 48 46 47 44 35 21 19 19 18 18 18 18 17 40 49 62 71 68 77 88 82 62 85 71 85 86 80 88 97 84 42 41 51 43 35 86 88 86 88 94 92 84 80 35 20 20 25
44 52 45 48 42 33 26 18 16 19 18 18 18 20 39 51 54 64 68 70 75 86 92 69 57 77 84 97 97 91 88 95 61 45 38 19 63 88 91 88 92 89 84 83 74 26 26 33 42
62 50 53 48 43 30 21 17 16 19 17 17 17 21 51 64 67 68 72 74 74 79 86 77 64 80 90 95 95 95 93 96 93 41 24 17 44 73 82 88 98 89 89 83 43 25 35 44 52
76 54 67 58 41 30 23 18 17 16 17 16 16 24 55 67 72 72 69 71 70 75 83 81 63 72 86 96 96 96 93 96 92 46 20 16 22 28 58 73 84 84 86 53 34 32 43 51 52
84 77 70 52 40 31 25 18 18 18 17 17 16 20 60 75 78 75 71 71 71 76 84 66 65 84 89 97 96 95 91 95 89 51 21 17 16 16 23 51 56 65 52 40 27 39 50 52 50
64 85 74 50 42 38 22 19 18 18 18 17 16 29 58 83 62 76 73 76 76 79 82 83 63 55 85 98 98 97 89 88 81 55 23 19 18 17 22 30 45 45 39 27 32 42 49 48 47
59 83 90 64 45 36 21 21 20 20 19 17 17 37 52 78 63 56 74 78 80 83 78 82 86 72 83 90 84 89 95 70 58 58 34 20 21 20 19 36 44 39 28 26 36 42 46 45 47
49 66 64 42 34 33 24 22 22 21 21 19 17 30 49 56 40 43 50 69 80 84 80 77 80 85 90 92 93 65 43 40 45 54 47 22 25 29 24 23 23 25 28 32 41 43 44 44 46
48 57 43 34 31 32 26 24 23 22 26 19 18 23 49 60 60 61 55 59 59 82 82 80 78 81 84 85 81 64 38 37 44 85 49 26 64 74 50 36 32 31 32 35 44 50 50 49 44
47 42 36 29 34 33 29 26 24 21 21 22 24 27 38 54 62 60 70 78 76 66 82 82 84 83 82 81 75 75 62 77 67 80 79 52 78 82 76 45 37 33 35 40 43 54 65 54 55
46 35 32 30 40 38 30 29 26 22 22 26 30 30 29 28 41 58 64 74 81 85 68 71 85 88 86 83 78 76 76 86 83 88 85 75 76 85 84 71 73 62 44 75 77 82 68 70 60
40 37 32 31 41 39 32 28 25 23 23 27 29 29 28 27 27 32 56 67 76 82 83 76 61 71 86 89 79 78 75 78 85 84 83 79 78 82 83 87 84 81 73 89 89 90 93 86 63
39 43 39 33 39 39 36 40 36 27 27 28 27 28 27 26 25 24 29 38 60 68 71 73 59 54 70 92 91 83 86 83 84 87 90 87 77 80 81 78 88 87 86 77 84 87 88 87 72
48 46 52 38 37 37 41 50 34 30 31 30 27 25 24 24 24 24 25 30 36 45 48 73 74 72 66 71 94 85 86 94 91 90 92 92 85 78 75 79 76 87 89 89 82 84 87 87 77
54 66 57 45 33 36 40 42 31 27 30 31 28 25 22 22 21 21 23 23 26 33 38 44 50 72 84 84 83 87 75 84 95 96 91 94 93 88 85 74 70 72 83 90 90 87 88 86 80
66 61 50 45 34 38 48 46 30 25 26 26 24 22 22 23 24 24 25 24 24 27 30 33 36 39 49 67 82 84 77 64 76 82 96 95 92 83 92 89 84 81 79 84 90 86 88 88 83
41 46 46 34 36 38 40 40 35 27 29 30 28 26 24 22 23 22 27 27 28 30 32 33 33 35 36 36 51 66 74 71 65 51 57 82 93 85 74 78 81 85 85 84 84 86 87 89 89
38 43 41 32 39 40 37 39 32 29 29 28 28 26 25 25 25 27 29 30 30 29 29 29 31 34 35 36 36 47 56 62 58 54 43 45 70 99 93 85 74 70 81 90 91 86 86 89 88
42 46 36 41 44 40 41 44 37 32 29 30 31 31 30 27 26 29 41 45 46 41 34 31 30 31 34 37 39 38 43 52 81 73 50 33 40 66 93 97 99 75 69 82 92 89 87 86 90
47 34 36 47 55 55 43 39 34 38 35 33 31 29 29 33 37 41 47 52 56 48 40 37 35 31 27 27 34 40 41 41 57 82 80 70 64 53 57 84 89 97 99 99 88 96 94 100 96
43 45 49 50 57 59 51 61 39 38 40 38 34 36 42 44 46 50 56 55 62 52 41 39 39 42 47 37 33 30 30 34 42 58 72 81 88 88 77 70 74 97 97 98 100 100 99 100 100
49 57 57 55 60 91 59 50 48 42 37 37 36 41 44 48 51 56 60 62 64 58 50 45 44 44 47 55 52 49 42 37 34 33 38 51 70 83 87 88 87 100 97 98 99 99 97 97 99
56 71 95 96 97 87 48 56 47 30 30 34 37 38 43 49 53 59 63 64 65 62 56 53 52 50 53 57 57 60 65 63 52 44 41 52 68 79 86 84 82 88 99 99 97 98 96 93 97
68 69 92 75 92 74 45 69 40 27 27 29 34 39 46 52 57 62 64 65 68 69 67 59 58 60 66 66 64 64 68 71 69 68 65 59 59 74 82 84 85 86 99 100 100 97 96 92 93
88 96 47 70 36 70 55 36 31 29 38 36 37 43 47 54 60 62 65 67 72 72 70 72 75 79 77 70 71 72 77 75 65 59 58 53 47 50 66 75 86 92 85 98 99 97 96 96 92
80 61 84 95 83 64 44 39 41 40 36 38 46 45 47 56 61 63 64 65 73 76 73 79 74 73 69 65 66 68 68 64 61 60 54 48 46 48 49 56 72 89 100 100 98 99 98 99 98
91 97 75 70 71 84 55 37 26 35 33 41 37 39 46 56 63 64 63 64 68 78 78 79 75 70 66 64 62 59 58 58 57 58 59 55 50 46 45 45 53 68 84 94 100 99 98 98 99
53 55 54 97 85 72 76 52 23 32 36 33 30 43 51 62 66 66 65 66 72 77 78 82 78 72 67 64 63 62 62 61 66 68 66 66 69 61 56 52 50 61 95 100 99 99 99 99 100

GFSSGP_850_rhum_057.txt.gz
RH
38 36 46 49 52 58 53 40 20 20 20 19 18 20 24 39 56 69 62 63 64 54 49 71 69 76 62 70 84 85 93 93 90 80 82 77 50 25 40 38 56 90 88 81 64 30 24 43 53
40 40 48 41 60 60 53 32 22 25 20 17 16 16 35 59 58 65 67 75 68 57 58 78 92 76 73 78 82 85 98 95 88 52 60 46 53 57 54 47 79 91 89 81 64 21 20 30 47
43 53 56 57 63 63 49 27 26 20 17 18 19 18 37 54 67 64 66 81 75 60 54 72 98 79 82 76 77 87 96 89 39 35 40 38 83 80 71 76 88 92 87 83 58 20 18 22 27
44 52 49 61 61 46 38 28 23 21 18 18 18 52 51 58 60 66 70 76 78 74 68 82 93 75 82 82 83 87 85 43 32 30 23 56 86 90 84 87 91 85 80 79 38 22 27 35 39
51 54 71 64 56 46 31 20 19 22 20 18 18 45 68 70 55 67 74 76 81 81 80 79 71 84 89 92 96 92 91 61 45 29 16 46 82 76 80 85 95 81 80 73 26 28 36 45 48
64 64 80 80 61 42 32 20 17 20 18 17 33 54 69 73 66 73 75 76 77 81 88 75 65 87 97 95 96 95 91 58 24 29 17 24 48 63 72 73 84 74 79 40 25 34 42 46 47
67 86 82 76 68 48 36 21 18 19 19 18 18 66 83 77 71 73 73 72 77 81 83 82 63 85 95 97 96 91 89 60 24 23 17 16 16 28 49 51 56 64 51 33 27 38 45 44 43
66 72 75 73 69 59 35 21 17 18 19 17 21 62 78 78 75 73 73 74 75 78 79 70 67 73 84 97 97 96 88 78 46 31 18 17 16 16 23 38 38 37 32 27 30 38 41 41 40
71 88 87 82 73 58 39 43 21 18 19 20 43 49 59 68 76 73 75 77 79 80 79 79 61 59 68 93 98 92 86 59 47 34 19 17 18 17 19 26 31 34 31 24 32 37 40 40 40
82 86 68 52 57 58 45 38 36 22 21 31 52 52 52 59 65 74 78 80 82 82 82 80 78 78 58 68 66 65 45 40 31 30 31 19 19 21 19 25 27 27 23 24 32 38 41 41 42
59 78 59 53 51 66 47 38 35 25 26 22 49 40 37 45 45 57 78 81 84 82 82 81 80 83 75 70 73 70 54 33 29 32 40 26 25 30 24 23 24 24 23 26 31 35 42 42 42
58 50 52 48 52 62 40 31 31 24 28 26 22 35 42 44 50 49 52 58 83 83 82 81 80 83 82 82 82 67 56 40 51 40 55 46 36 46 57 51 33 30 29 32 40 41 49 46 43
62 45 45 43 38 45 37 30 28 24 29 26 36 44 44 47 52 59 55 54 74 80 83 81 81 82 84 83 78 67 62 64 74 66 72 74 61 54 72 71 59 43 38 33 40 49 63 64 52
49 48 41 36 40 37 33 31 28 24 27 27 25 28 27 28 29 42 65 64 64 76 70 79 83 83 84 86 83 72 67 71 84 81 78 84 78 66 76 75 65 64 63 59 50 65 78 78 67
46 57 51 50 44 41 35 39 38 28 27 28 28 28 27 26 26 27 32 46 66 67 66 66 58 71 76 79 90 80 76 77 79 83 83 84 84 76 76 79 70 70 82 80 74 81 92 92 88
51 55 76 45 45 41 36 52 40 27 30 29 30 28 27 25 24 24 24 27 33 47 70 70 74 74 70 71 76 86 81 82 81 84 86 88 86 84 76 76 77 72 82 89 88 79 83 90 90
65 77 69 49 41 46 44 51 36 31 31 31 31 30 28 26 24 23 22 23 26 33 37 42 57 65 72 79 79 76 82 86 86 84 91 90 91 87 83 75 71 74 77 82 90 90 84 79 81
81 70 61 54 43 44 50 49 39 31 28 31 31 30 26 25 23 23 24 25 24 23 30 34 37 39 41 55 76 87 82 82 83 82 81 80 90 90 74 75 72 78 77 78 81 84 91 88 80
55 56 61 50 38 43 48 49 42 36 29 30 29 27 26 24 24 23 24 25 25 26 25 28 30 35 38 43 44 55 74 83 74 76 76 80 83 76 91 82 79 75 84 82 79 79 90 92 89
52 58 56 40 40 43 46 51 45 39 33 27 27 27 28 27 27 28 30 29 28 28 28 30 33 33 34 35 36 37 40 49 59 66 67 71 74 75 71 73 91 84 88 91 84 86 87 86 90
49 53 50 49 46 44 42 47 41 36 31 30 31 30 30 29 27 32 32 31 30 28 27 27 27 28 28 30 34 36 38 40 45 50 64 75 78 68 62 76 82 82 86 85 88 89 90 75 72
58 40 40 54 59 65 42 58 40 40 40 36 32 30 29 31 37 45 47 41 37 34 35 33 31 31 30 31 35 38 40 41 42 44 53 78 84 77 73 66 72 80 80 85 82 86 87 80 80
54 48 55 55 59 58 54 66 50 44 45 41 37 33 36 41 44 47 47 47 43 44 42 40 40 42 41 36 35 31 30 30 30 33 42 58 68 80 83 84 73 67 70 76 82 89 86 88 98
53 61 65 67 71 91 66 64 52 50 40 43 41 43 44 45 50 51 53 56 61 60 53 48 43 42 43 43 42 46 42 40 38 36 33 33 41 52 63 78 80 83 83 84 83 85 87 97 100
61 69 96 97 96 92 54 66 52 38 37 39 47 44 45 48 54 59 62 64 64 62 59 57 52 51 50 50 52 52 56 58 56 52 47 42 38 49 68 76 82 87 86 83 84 91 89 88 90
69 65 87 85 98 85 49 73 54 34 30 33 37 41 46 51 57 59 62 62 66 66 63 60 57 58 57 58 62 66 67 67 68 66 63 61 57 50 52 70 78 73 83 85 86 82 93 96 93
85 91 54 73 52 83 65 45 33 43 47 41 42 46 49 53 60 62 65 67 69 71 71 65 67 65 64 64 63 66 70 71 68 66 61 55 52 48 49 54 63 72 74 80 92 94 81 92 94
80 67 83 94 90 70 63 47 49 50 51 46 50 47 46 58 61 62 65 65 66 74 75 71 73 68 66 65 64 63 63 63 62 60 57 56 53 50 47 46 49 57 70 82 84 91 95 97 97
83 95 78 77 85 88 64 50 28 36 44 48 51 45 50 56 62 64 64 63 65 76 77 74 74 71 68 66 63 60 58 57 57 57 56 55 55 56 57 54 50 48 52 62 86 80 87 99 98
70 76 70 93 85 74 82 58 32 36 39 42 44 45 51 59 64 65 64 63 69 77 78 78 76 76 71 66 63 61 62 62 63 65 68 69 69 66 64 63 58 56 55 59 80 96 98 97 98

GFSSGP_850_rhum_060.txt.gz
RH
39 37 39 41 52 62 60 48 24 22 22 20 20 39 54 47 55 48 66 65 70 67 56 62 77 74 78 74 81 85 89 83 88 84 74 67 33 30 36 58 89 87 78 67 24 19 25 55 71
39 38 44 43 63 65 58 38 32 25 20 19 19 37 50 68 65 68 75 68 66 66 57 68 81 79 71 80 80 79 70 73 68 55 56 33 49 43 44 76 92 88 82 72 19 17 36 46 54
42 40 48 58 69 64 52 32 28 22 20 18 20 39 51 68 63 66 64 68 71 58 58 72 81 74 76 83 76 74 63 77 39 36 31 68 64 58 56 88 91 89 78 65 19 17 22 39 42
44 45 53 70 67 51 40 39 24 22 20 18 34 63 62 64 63 65 68 74 76 60 67 95 97 84 77 76 71 73 62 46 30 26 35 73 80 78 88 89 90 85 69 54 21 25 27 26 29
44 52 75 70 66 52 43 34 27 22 21 19 28 66 76 69 69 65 78 77 74 62 64 97 94 86 85 78 81 79 54 30 26 25 42 73 61 71 74 80 75 75 66 37 24 32 37 39 41
51 57 85 84 68 51 45 35 28 21 20 42 63 70 77 74 77 75 80 79 79 66 72 92 81 92 88 88 86 90 60 24 16 21 50 72 55 51 53 45 71 66 66 29 28 35 38 40 42
60 76 87 79 72 60 45 39 25 22 20 20 49 80 78 73 76 79 79 82 78 80 78 63 72 91 97 98 90 98 76 32 15 15 16 32 50 56 53 50 59 58 49 27 30 36 38 40 42
61 62 80 78 70 65 46 48 32 20 20 36 45 86 88 74 76 79 80 81 83 89 88 85 69 95 98 98 99 87 81 47 33 18 15 14 18 31 51 50 55 56 41 28 30 37 37 37 38
69 87 73 69 67 59 59 60 43 25 21 24 38 54 62 72 74 77 84 90 90 86 81 74 71 76 80 72 77 91 77 52 34 28 18 16 15 16 20 35 45 47 39 30 33 40 40 39 38
76 74 68 50 50 74 74 63 60 32 38 62 57 62 73 75 75 79 84 85 86 84 80 76 65 61 65 66 63 68 52 53 38 34 28 18 18 18 17 22 27 35 37 29 34 40 43 42 42
87 76 60 52 50 75 84 73 64 48 27 53 57 67 69 66 70 77 80 79 80 83 80 80 80 77 58 49 52 58 58 45 37 33 38 26 21 20 21 20 22 24 24 24 30 38 42 43 43
74 60 58 54 52 83 83 71 67 46 29 26 24 27 45 39 56 66 77 82 81 79 81 84 84 83 78 71 63 64 57 51 36 32 40 41 24 27 32 33 34 32 27 26 30 35 43 47 46
62 55 56 62 61 71 75 82 75 46 34 28 43 53 46 43 45 44 53 76 86 84 79 78 83 86 85 81 76 74 63 52 54 60 50 54 50 43 46 53 60 56 41 32 33 37 43 47 52
62 54 53 60 55 68 80 80 73 39 29 48 55 53 51 50 49 59 64 59 70 84 84 82 78 80 78 78 83 81 73 61 70 76 72 70 70 69 65 59 61 65 62 60 58 45 54 62 64
54 66 57 53 46 44 57 64 60 35 31 30 29 28 27 28 28 37 51 60 63 65 67 81 82 80 76 72 75 81 80 71 69 77 81 82 79 75 75 68 67 69 68 67 71 72 66 67 79
55 68 81 54 48 42 36 51 39 33 31 30 30 30 29 26 26 26 26 30 35 57 62 71 71 81 84 81 76 77 78 74 74 76 81 83 85 85 82 79 69 71 76 76 79 80 78 74 79
68 88 80 59 47 48 42 50 38 30 33 31 30 30 30 28 26 24 23 24 26 33 40 51 72 76 82 84 84 84 83 81 78 80 81 80 82 85 84 81 73 75 75 76 78 82 88 87 82
83 74 67 58 52 50 52 52 37 32 32 31 30 31 31 29 27 26 24 23 24 26 31 38 40 47 50 68 79 86 87 87 86 86 87 86 83 81 90 85 77 85 85 81 78 76 84 92 90
62 63 68 54 44 48 56 53 45 35 35 33 31 30 32 27 25 25 26 25 25 24 24 28 34 36 39 41 50 61 70 81 86 86 85 87 86 87 80 77 77 71 82 79 83 85 82 86 92
61 63 66 48 44 46 51 55 50 43 40 33 29 31 30 28 27 28 29 27 26 26 26 27 32 36 37 38 41 42 43 51 56 60 74 80 82 80 80 79 78 78 78 79 80 92 94 91 86
61 65 59 52 48 43 48 56 50 44 39 34 32 28 27 29 28 30 30 30 30 30 29 29 29 30 33 35 36 38 38 39 40 43 51 61 73 85 88 86 74 69 80 77 83 87 93 96 92
73 48 46 51 59 69 43 72 42 46 43 40 33 32 30 30 30 33 32 30 31 32 29 27 27 28 29 29 30 31 33 37 40 43 43 42 43 48 57 66 70 76 70 79 79 79 82 87 93
58 47 55 58 62 58 56 61 54 43 48 44 40 33 31 33 34 41 44 41 38 37 34 33 35 37 37 35 33 32 32 32 33 35 36 36 38 50 69 79 77 75 76 73 74 78 79 79 86
54 61 68 73 72 90 66 61 61 54 46 41 41 35 33 43 48 50 53 51 46 43 41 39 39 40 40 40 39 37 37 38 37 36 33 31 32 38 44 49 58 70 72 75 83 85 84 87 93
61 69 95 94 96 90 61 69 52 42 39 42 44 47 47 49 52 53 54 54 52 51 52 50 49 48 46 46 47 48 47 48 48 49 49 44 40 39 39 45 63 73 74 82 86 86 87 87 88
75 66 87 86 96 80 56 82 56 41 34 33 35 42 44 48 52 54 58 61 59 59 60 59 57 54 53 53 53 56 59 60 62 64 62 59 55 51 47 46 48 63 76 79 76 82 87 91 86
83 94 60 73 66 87 68 56 38 44 45 48 47 45 47 50 56 60 62 63 63 67 68 67 63 61 61 60 60 61 64 68 72 72 68 64 60 57 55 51 49 52 58 65 69 71 79 92 92
83 68 80 92 85 75 66 61 53 51 54 52 57 53 51 54 61 63 64 65 66 68 68 70 66 65 65 63 63 63 63 63 63 61 61 61 60 60 59 55 50 47 49 54 60 67 76 86 91
95 92 82 76 84 89 76 59 37 45 45 51 55 48 50 54 62 64 65 65 65 68 73 75 74 72 71 67 64 63 62 60 58 57 55 55 55 54 54 55 57 55 53 52 54 66 75 76 64
72 82 73 88 84 80 82 59 34 36 44 47 50 46 46 54 62 64 65 65 63 67 74 77 77 75 75 71 67 63 61 61 62 61 61 63 68 72 73 71 69 64 64 64 67 68 68 76 96

GFSSGP_850_rhum_063.txt.gz
RH
39 35 35 40 53 65 62 50 36 26 23 21 22 34 36 61 47 46 56 57 67 48 58 60 56 59 74 74 82 82 89 92 92 55 54 36 30 30 48 83 71 74 66 24 16 18 62 76 71
40 37 38 43 64 69 59 43 35 28 21 38 42 45 60 69 68 68 66 64 65 50 55 65 66 76 80 75 84 91 93 84 68 53 28 39 37 44 69 91 86 78 63 19 14 27 37 65 66
41 39 44 60 72 67 53 35 35 25 22 22 34 50 60 70 67 62 66 68 76 65 52 82 77 79 72 79 77 77 69 68 39 28 31 50 48 57 78 90 84 80 54 18 14 25 38 44 49
42 43 51 74 69 55 44 41 37 29 21 22 43 68 70 69 67 63 63 70 69 67 63 86 80 71 80 83 71 71 46 39 27 22 51 56 60 61 84 88 85 71 46 20 22 20 24 34 35
51 48 74 73 69 57 47 41 38 30 24 23 44 79 77 70 71 69 68 76 72 60 70 94 82 74 81 76 68 62 33 19 23 40 82 86 72 81 85 84 80 54 43 23 28 33 31 30 33
61 51 84 84 70 55 53 43 43 27 22 56 65 77 80 79 73 77 77 79 73 58 75 97 95 89 84 78 73 65 38 17 18 27 87 67 85 84 73 69 62 58 44 25 31 36 38 40 44
67 77 83 78 76 61 49 47 39 34 23 38 56 90 84 83 86 82 80 84 77 63 60 88 93 89 90 87 81 63 51 21 15 15 18 35 77 68 64 58 67 60 47 27 34 39 41 43 48
60 62 86 76 68 64 60 52 47 39 26 46 53 88 84 81 84 88 87 86 83 74 69 62 78 92 98 96 90 67 56 34 20 16 14 16 22 43 52 60 65 62 49 31 34 41 43 45 47
71 80 69 65 66 58 64 64 53 43 38 46 47 64 61 78 81 91 93 90 89 92 88 82 63 83 90 86 83 75 68 54 35 31 17 16 16 17 28 41 41 44 40 33 31 41 43 43 45
88 82 66 50 52 68 73 70 67 57 51 65 77 69 73 76 80 86 91 88 91 88 85 80 77 81 80 79 71 72 67 61 52 45 32 18 18 17 19 26 37 39 37 31 26 34 40 41 44
87 73 60 49 48 68 78 70 62 61 49 33 76 76 75 74 78 80 86 82 73 81 79 74 72 73 74 74 71 67 64 54 47 42 39 33 20 20 19 20 28 33 34 30 25 30 35 40 41
86 68 56 58 64 74 76 69 69 60 54 46 42 67 61 72 71 76 80 83 82 81 75 79 81 79 75 65 61 61 68 64 56 42 37 39 36 22 23 23 24 26 26 25 25 28 36 40 43
68 63 59 74 69 70 71 75 82 62 46 39 38 52 54 61 70 62 71 80 83 83 77 78 82 82 80 78 73 75 73 64 56 48 48 40 42 30 33 45 49 55 54 41 33 32 36 42 46
64 55 64 85 77 78 76 72 69 55 49 45 50 58 51 44 55 72 80 80 80 82 79 78 79 80 79 74 74 74 77 72 62 64 63 61 60 64 60 56 56 58 60 61 60 59 46 50 56
62 72 74 79 70 68 68 89 87 53 50 51 49 63 63 58 56 55 54 57 65 75 78 76 76 77 79 78 76 75 75 77 66 63 69 74 75 74 75 74 69 66 69 72 72 71 72 69 70
73 74 85 67 59 56 78 85 76 60 57 51 33 32 31 30 29 35 55 60 64 69 75 77 80 83 84 83 81 81 79 77 74 68 69 73 77 80 80 80 74 77 77 76 78 78 77 78 80
68 93 81 68 52 59 71 59 58 60 63 54 39 32 30 28 27 27 27 28 34 39 59 73 80 82 82 84 85 85 86 84 83 80 73 74 78 77 82 77 75 82 87 84 81 82 85 81 81
86 83 72 67 55 52 62 49 40 40 45 43 39 35 32 30 28 26 26 26 26 27 34 42 61 77 82 86 92 92 90 89 90 86 79 80 82 85 88 88 86 89 94 92 90 87 86 86 84
66 68 70 55 51 53 54 52 45 40 38 36 33 33 32 32 30 27 27 26 25 25 25 31 38 42 51 72 79 80 75 83 86 84 88 91 92 92 93 94 94 94 94 90 84 90 92 91 91
61 71 72 52 50 51 56 57 48 42 43 36 31 31 31 33 29 26 27 26 25 27 27 27 28 34 36 40 43 49 56 65 65 73 86 89 93 93 91 89 87 84 84 80 78 83 93 93 92
64 71 66 60 50 46 49 57 51 45 46 40 34 31 30 32 30 28 27 28 29 29 29 29 30 32 34 36 37 39 43 46 46 49 52 57 69 78 84 84 86 85 86 85 68 76 88 90 92
72 52 52 56 58 75 48 80 50 50 50 45 37 34 32 31 30 29 28 30 30 30 30 30 30 30 30 30 31 34 36 37 38 39 39 40 42 44 45 47 55 67 70 65 73 72 80 85 86
62 49 55 53 62 58 56 66 55 43 53 46 40 36 34 31 30 29 30 32 32 32 33 32 30 30 32 36 38 38 36 34 33 34 34 35 37 39 40 41 49 59 74 74 74 74 77 82 89
57 62 68 73 72 90 65 64 66 51 44 38 38 34 34 32 32 36 40 41 40 40 40 39 36 36 38 40 41 43 43 41 39 38 37 37 37 36 35 35 37 46 60 72 71 73 89 88 87
59 71 96 95 96 92 65 67 51 42 42 40 38 38 34 38 41 47 47 48 47 46 48 49 48 47 45 44 43 44 44 45 45 45 46 47 48 50 53 53 52 57 68 72 84 86 90 86 86
70 64 89 86 96 81 68 81 58 45 39 36 34 35 36 48 51 51 52 54 55 57 57 56 55 54 52 50 50 50 52 56 60 62 63 63 62 59 56 57 60 61 61 70 83 86 88 89 91
80 93 57 77 72 89 72 60 42 40 41 40 44 44 54 55 55 56 61 62 61 61 61 61 59 58 56 55 55 56 58 60 63 68 69 68 66 64 61 58 56 53 52 53 57 67 80 91 100
83 73 83 91 81 80 68 68 51 41 47 51 61 57 54 53 57 61 61 62 63 64 63 62 64 64 62 62 61 62 63 62 62 61 61 60 59 58 57 56 56 56 53 51 51 57 67 74 81
97 94 82 76 81 80 82 60 46 36 42 54 58 52 49 52 55 59 62 64 65 64 63 65 70 71 69 69 67 65 64 63 60 60 59 58 58 59 62 62 61 58 58 59 58 57 58 62 63
81 81 83 90 85 86 84 69 32 43 42 49 54 48 48 50 55 61 63 64 64 64 65 70 74 75 75 73 73 69 66 63 62 62 62 63 67 72 74 73 70 71 70 67 70 69 70 74 80

GFSSGP_850_rhum_066.txt.gz
RH
43 39 35 35 51 66 55 45 41 32 24 22 21 27 36 57 47 50 64 50 41 54 72 66 60 64 74 70 77 81 84 91 93 47 44 33 30 50 69 61 66 57 24 15 17 50 77 74 69
44 42 38 42 64 67 56 46 37 32 24 50 42 53 61 76 70 63 68 61 42 51 58 69 60 64 74 69 82 89 93 90 71 44 36 35 39 59 78 76 74 57 20 14 19 27 67 69 66
46 47 40 60 76 68 48 39 41 36 26 32 46 57 66 76 68 60 69 61 64 46 49 63 66 86 79 70 78 68 65 72 55 39 47 44 54 70 92 83 77 54 20 15 24 32 43 52 49
48 48 51 70 69 56 45 46 43 41 24 23 40 70 75 74 67 62 65 68 70 52 55 67 86 82 70 73 69 61 47 34 30 34 50 52 57 73 88 82 79 47 23 22 21 26 33 34 34
59 48 68 76 68 58 48 46 46 42 30 25 55 78 79 76 68 65 63 68 70 60 69 78 79 71 71 76 70 61 34 17 25 66 85 62 58 77 77 78 67 49 28 29 32 28 27 29 34
68 53 80 83 67 57 53 49 48 40 30 53 69 79 77 74 73 70 71 72 74 64 82 86 81 68 79 76 69 59 28 18 20 40 98 95 86 95 67 61 51 51 31 28 35 35 34 36 46
83 79 75 76 64 62 50 48 50 49 35 26 65 86 84 79 79 78 78 78 76 70 77 91 84 78 75 77 72 59 36 19 20 21 28 59 95 89 60 55 56 55 37 27 36 38 40 41 49
76 75 81 74 71 62 61 53 53 55 45 38 70 82 89 79 83 84 85 82 76 74 77 92 94 90 84 82 81 61 45 26 19 16 17 41 44 46 45 55 52 47 38 27 34 40 42 43 45
81 90 75 78 64 60 66 60 55 44 49 44 60 77 71 79 87 89 92 89 83 76 76 82 86 87 83 86 73 68 59 48 36 29 19 21 27 32 38 42 47 49 42 31 28 38 40 38 38
88 88 72 52 58 66 74 69 64 52 48 51 48 97 84 79 88 92 92 89 85 86 86 80 73 90 83 74 68 56 58 59 55 49 40 22 20 20 22 29 38 40 42 35 29 34 40 40 39
94 78 63 51 58 63 75 73 66 58 51 52 56 64 100 89 88 79 92 86 82 86 86 82 78 85 86 77 75 68 61 59 55 52 44 40 23 20 20 20 23 29 34 35 34 28 36 41 40
94 72 63 62 71 63 67 66 66 68 54 53 42 40 92 81 78 74 76 78 83 83 78 74 75 82 87 86 83 75 62 58 57 52 44 38 40 26 22 22 22 25 28 28 27 27 31 37 40
80 74 70 66 69 75 64 76 71 58 53 50 45 43 61 59 61 69 70 71 81 79 78 73 73 71 78 78 72 69 66 67 62 55 47 44 40 44 28 32 39 45 52 51 45 39 35 36 42
67 62 64 85 76 81 72 78 62 44 47 47 45 51 72 62 55 56 65 79 82 80 78 74 72 74 77 75 74 71 74 75 69 58 63 62 55 56 56 53 53 56 62 66 66 64 63 60 51
65 83 90 90 86 85 70 77 80 50 51 51 48 47 76 68 70 64 58 65 78 76 76 74 73 76 77 75 76 77 77 79 76 65 66 69 72 74 75 76 75 72 71 73 74 74 72 70 72
76 82 94 87 92 87 75 83 73 57 56 54 51 52 38 59 66 68 64 62 66 73 69 76 80 83 85 84 83 83 83 82 78 77 72 70 72 78 79 80 81 83 84 83 79 79 80 79 80
81 92 84 91 76 86 72 78 56 64 67 62 54 49 49 33 31 38 62 66 64 63 69 75 82 83 87 89 89 88 89 89 88 86 85 79 77 78 80 80 80 88 90 91 93 93 90 87 85
90 92 79 89 71 79 74 62 68 64 63 64 50 52 51 42 32 30 28 32 42 38 52 69 76 77 81 82 84 90 92 92 90 86 84 87 84 83 85 87 89 92 94 95 96 95 93 92 90
74 76 78 58 59 73 80 66 55 66 68 68 55 54 48 43 36 32 28 27 26 26 28 37 50 61 73 79 77 78 82 88 83 82 84 86 85 88 91 92 93 94 94 92 91 91 87 86 89
68 78 75 55 56 62 62 65 50 52 64 62 50 44 37 40 31 33 28 28 27 26 25 26 31 38 46 56 60 75 80 83 74 70 77 84 81 94 92 95 95 94 93 87 86 89 92 84 77
67 78 76 68 58 48 60 63 60 53 47 44 42 42 35 31 33 33 27 26 26 28 29 29 28 29 32 36 38 44 49 50 57 67 75 77 84 92 91 90 84 86 89 91 93 90 88 79 77
72 60 56 62 68 86 51 86 64 53 51 49 45 41 37 33 34 33 29 28 28 30 31 31 31 31 31 32 33 34 35 37 39 42 44 45 44 44 45 47 50 49 52 62 78 86 79 86 76
63 56 56 55 67 61 59 73 62 45 51 44 39 40 34 33 32 31 30 30 31 32 32 32 32 31 31 31 31 32 34 34 36 37 36 36 36 36 39 41 42 43 48 55 66 77 89 84 84
62 64 70 74 74 92 68 70 71 57 43 36 35 35 30 30 34 32 34 36 36 36 37 37 36 35 35 36 36 36 38 39 40 39 40 40 41 41 40 39 37 35 34 36 49 67 84 86 90
61 71 96 94 95 93 67 74 55 43 40 37 34 28 29 34 36 34 36 40 43 43 43 43 42 42 42 42 42 42 42 43 44 44 46 48 50 50 51 50 51 51 49 49 51 61 70 86 92
67 63 89 86 96 83 70 86 59 44 39 38 34 32 33 32 34 35 41 46 50 50 51 52 52 52 51 50 50 49 50 52 53 55 56 58 58 58 58 59 58 58 56 55 56 73 89 94 95
81 86 58 78 75 88 75 63 43 41 43 40 38 40 38 38 42 48 55 53 54 56 57 58 58 57 56 55 54 54 54 55 56 58 60 60 61 61 60 60 59 58 57 55 53 57 68 97 99
80 72 84 90 82 82 70 68 57 41 40 39 47 54 49 48 57 58 56 56 59 60 61 62 60 60 61 60 60 59 58 58 58 57 57 57 56 55 54 54 54 54 55 58 60 60 70 82 88
94 92 81 77 79 78 80 66 50 40 34 40 46 50 53 55 57 57 59 62 64 64 64 63 62 65 67 68 67 66 65 64 63 60 59 59 59 58 60 63 65 65 64 62 62 65 67 68 72
74 85 81 94 88 90 87 74 37 39 43 40 48 50 52 54 56 59 63 64 66 66 66 66 66 70 71 72 72 72 72 69 66 64 62 64 67 71 75 76 73 73 73 74 75 75 76 78 82

GFSSGP_850_rhum_069.txt.gz
RH
44 39 39 39 43 48 44 37 40 32 25 25 24 26 36 52 39 34 55 37 36 49 87 75 82 68 73 74 65 68 80 81 48 42 36 32 54 63 57 63 46 22 13 15 26 60 68 69 67
46 45 45 41 49 47 42 43 38 34 30 52 43 58 57 61 68 64 53 44 37 56 75 68 74 80 72 65 76 82 96 96 54 39 34 41 59 66 67 68 48 19 13 17 19 49 66 66 62
50 50 43 52 59 48 37 42 43 41 34 34 52 63 68 74 67 64 59 43 44 54 70 95 81 80 65 73 78 93 83 80 52 44 42 52 64 80 80 76 46 21 16 21 26 35 55 51 45
51 54 50 52 61 51 40 45 45 43 26 26 44 67 76 78 68 63 55 41 59 51 74 94 77 82 66 73 70 59 53 48 46 47 43 54 68 82 84 73 45 24 23 21 24 30 34 34 32
62 54 63 69 59 54 47 47 50 39 35 29 57 68 85 81 73 70 54 48 50 58 77 73 94 84 66 67 64 54 39 24 30 58 48 51 69 92 81 74 47 28 26 29 27 28 29 33 39
71 66 69 68 63 54 51 50 44 47 37 53 62 80 84 78 74 72 70 65 52 57 74 80 96 79 72 70 64 46 31 23 23 65 71 59 82 96 76 67 48 36 27 33 35 32 34 40 46
71 84 73 67 56 55 49 50 51 52 44 31 74 73 86 78 81 74 74 71 70 61 78 80 83 76 81 78 69 52 27 21 18 27 77 98 98 98 65 56 46 40 27 31 34 35 36 41 44
70 71 82 67 57 50 60 53 55 48 43 49 72 67 82 85 84 83 85 84 79 77 89 90 86 78 78 76 75 65 34 20 17 19 20 31 48 35 50 49 50 48 37 28 34 36 37 37 36
78 92 83 72 59 58 65 57 56 45 51 63 77 98 86 93 90 90 92 90 88 84 87 92 89 95 84 78 76 73 50 31 19 18 20 30 35 40 46 40 45 47 40 31 29 37 38 37 38
86 83 72 55 54 68 71 66 61 50 50 53 45 90 99 99 85 91 93 93 93 88 89 93 92 90 87 72 68 65 60 53 44 40 36 21 20 22 24 30 37 40 40 35 30 30 37 40 40
82 80 61 52 64 61 69 71 64 55 53 62 57 49 99 100 99 72 80 82 81 81 83 85 95 91 88 73 66 60 60 59 59 55 48 40 28 20 20 21 23 28 35 38 34 30 31 38 42
81 73 58 64 64 56 65 66 63 58 53 55 49 49 84 99 99 75 68 75 80 84 87 88 86 82 91 86 78 75 65 60 56 57 49 43 38 35 23 23 23 25 31 32 29 29 29 33 41
84 74 62 68 73 64 66 75 60 63 54 50 46 46 66 94 71 68 68 68 76 81 86 84 79 79 85 87 84 77 64 62 66 59 53 45 41 41 45 28 33 35 43 55 55 50 43 39 41
78 72 74 73 80 74 68 73 55 57 53 47 45 46 61 86 71 66 63 66 72 81 84 79 75 70 73 77 74 69 69 74 74 62 57 62 59 51 56 47 49 53 59 66 69 68 67 67 67
71 76 85 81 80 78 76 70 70 59 53 50 46 45 46 60 78 68 59 62 61 67 82 80 76 78 78 78 77 75 75 79 78 73 66 68 72 76 76 77 78 78 78 75 74 75 75 74 78
83 84 88 84 82 97 90 79 55 55 53 54 48 45 44 42 50 71 69 69 64 69 79 83 80 78 78 79 80 80 81 81 81 80 80 74 72 74 80 82 82 87 88 88 87 87 85 84 84
82 92 89 96 78 89 87 76 57 57 50 59 52 46 46 42 38 39 68 68 68 70 78 87 86 84 85 86 85 85 86 88 87 87 85 84 83 79 79 79 83 88 90 92 93 93 94 93 90
91 91 91 86 90 84 84 72 70 67 53 50 56 50 52 44 40 36 32 61 70 64 63 67 75 76 79 83 84 84 85 85 86 85 85 86 88 89 86 83 84 88 91 93 95 95 95 93 89
73 78 80 77 75 82 81 65 72 68 68 63 53 50 51 46 38 40 34 30 40 58 48 47 52 57 62 66 68 71 69 74 82 86 87 87 88 90 89 87 90 92 92 93 90 88 87 83 82
68 82 74 59 70 66 78 73 59 64 68 55 41 47 49 46 42 41 29 32 28 27 29 28 31 40 47 52 60 64 60 58 71 81 83 80 80 83 84 84 86 87 91 89 88 92 93 92 90
71 77 74 67 68 54 67 71 65 55 60 56 54 46 48 43 43 38 29 32 30 28 27 26 26 29 34 42 50 54 50 51 57 63 68 70 72 78 79 79 84 84 85 77 77 88 97 100 98
74 64 62 69 73 84 61 81 66 55 58 56 51 41 45 42 40 36 31 33 30 29 30 31 31 32 35 36 37 36 35 37 38 39 42 47 52 53 52 50 48 48 50 52 52 61 81 99 96
65 61 61 64 68 65 62 74 63 57 58 55 50 44 39 43 40 36 32 32 30 31 33 33 32 32 32 32 32 32 33 33 33 34 35 36 38 38 38 38 38 39 40 41 41 46 59 80 98
63 64 68 74 68 86 68 69 66 54 48 45 43 45 42 36 34 34 36 34 34 35 37 36 35 35 34 34 33 33 32 34 35 37 40 41 42 42 41 41 41 41 40 40 39 39 43 58 94
60 71 91 88 91 87 68 73 54 44 41 38 35 36 38 37 32 35 35 33 35 38 40 40 39 39 39 39 38 38 39 40 40 41 42 43 46 49 51 51 51 51 50 50 49 47 49 58 71
64 63 83 89 92 82 71 81 54 43 40 40 36 34 31 30 30 32 36 34 39 43 45 45 45 45 45 45 47 48 48 48 49 49 51 52 53 54 55 55 56 57 57 56 55 54 56 78 100
78 79 58 78 76 77 67 60 45 38 34 32 34 35 32 33 33 39 39 42 46 50 51 48 47 49 51 52 52 53 53 54 54 55 56 56 57 56 56 55 54 54 54 55 56 54 54 65 96
71 66 78 86 80 76 64 62 48 36 36 34 33 37 37 37 40 43 50 56 56 54 54 55 56 56 55 55 55 56 56 57 56 56 57 56 56 55 54 53 52 51 51 51 51 55 59 61 86
89 87 86 73 74 74 70 54 46 43 32 39 40 42 43 45 49 56 61 60 58 60 61 61 60 60 60 63 64 64 64 64 63 62 60 58 56 54 54 56 57 60 60 60 62 62 65 69 73
79 83 78 88 85 87 78 67 40 36 39 44 46 45 46 49 59 63 64 64 63 63 64 64 64 64 66 68 70 71 70 70 70 67 64 62 60 60 64 68 71 71 72 73 74 76 76 76 78

GFSSGP_850_rhum_072.txt.gz
RH
46 39 38 39 29 25 23 23 28 24 18 24 22 18 28 28 21 32 69 48 74 86 99 79 71 76 78 81 76 72 79 55 48 42 34 55 54 63 64 38 18 14 14 23 56 63 65 64 59
49 44 42 40 28 27 23 24 26 27 26 36 37 36 33 35 64 67 71 43 74 90 99 99 79 77 84 74 69 78 81 49 43 35 42 60 63 68 64 38 16 14 18 21 51 60 60 55 44
52 51 36 29 26 25 20 27 29 32 32 34 36 52 46 52 82 76 80 54 85 92 94 98 74 84 78 69 78 91 63 58 44 38 50 64 80 81 61 36 20 18 25 25 41 51 45 40 31
70 51 40 29 28 25 26 34 36 29 25 30 35 42 68 84 82 82 67 85 88 91 91 88 85 82 71 76 75 68 54 48 48 43 54 68 78 80 62 37 24 23 23 27 30 33 32 30 38
68 47 36 33 32 31 32 37 40 29 26 26 43 46 63 91 85 92 92 89 88 88 96 88 87 78 72 75 67 57 36 25 48 47 53 63 77 82 58 46 30 26 26 25 25 28 29 35 39
62 46 40 36 33 38 36 41 36 32 27 40 49 51 66 78 82 86 93 90 91 90 100 90 95 82 71 72 66 43 26 25 34 55 53 65 80 98 69 50 40 27 31 30 28 29 32 37 40
59 48 38 38 40 44 38 47 35 34 26 40 66 48 81 92 99 100 95 91 96 94 100 91 96 85 79 73 67 43 23 26 43 64 53 74 91 98 70 57 50 38 28 33 33 33 34 36 36
62 45 45 45 47 43 50 48 52 37 35 58 80 49 66 98 100 100 100 93 95 100 100 97 97 91 89 80 72 57 26 23 34 34 48 65 55 38 52 53 49 45 32 29 35 36 37 37 37
80 65 59 45 44 43 55 45 56 49 45 50 55 85 96 97 98 98 100 97 99 100 100 100 100 100 100 97 75 67 39 22 22 27 27 31 68 44 48 49 52 50 46 32 29 36 38 39 38
63 69 50 37 36 37 52 49 53 42 44 44 46 65 98 99 99 99 96 96 94 98 100 100 100 100 100 97 83 82 60 42 34 30 24 54 44 57 37 39 42 45 44 39 32 29 36 42 43
69 73 41 38 44 54 54 53 59 39 44 47 48 55 99 100 99 97 93 96 95 93 88 100 100 100 99 97 98 97 87 67 58 53 48 42 27 21 22 24 26 30 36 41 39 36 38 37 40
67 58 49 47 48 48 51 52 51 51 48 54 54 58 93 100 99 99 100 98 99 88 86 87 96 92 98 100 96 98 94 68 68 56 52 47 41 39 26 26 25 24 29 36 36 38 34 30 34
58 49 51 49 54 49 58 60 50 52 56 55 52 50 82 94 98 100 100 100 100 96 82 90 94 95 95 96 99 98 96 66 71 62 58 53 48 44 49 44 28 31 33 45 58 56 55 47 48
50 52 51 55 56 59 53 54 56 50 55 49 47 48 53 80 98 82 81 80 83 91 97 97 93 97 98 96 95 97 95 85 69 63 58 58 64 56 51 53 38 47 54 61 68 71 71 71 70
59 60 55 57 59 59 55 58 57 44 55 48 44 45 48 52 74 80 93 68 70 78 82 92 83 88 95 96 93 97 84 76 74 73 66 64 69 75 74 74 76 77 78 75 73 73 73 72 75
61 55 74 55 58 73 61 66 49 47 54 46 42 43 47 45 46 62 74 70 69 69 78 85 80 80 81 94 84 89 82 79 78 76 75 73 70 71 75 80 82 86 87 88 87 86 85 84 87
63 58 62 70 56 74 61 54 46 49 52 47 43 43 47 43 42 42 60 68 64 67 75 82 87 86 84 84 85 83 82 83 83 82 81 80 80 80 78 76 78 83 85 88 89 91 91 93 98
53 50 53 58 67 66 65 57 64 62 57 47 40 41 46 45 43 39 36 57 68 69 74 79 74 82 86 87 87 85 80 79 78 78 80 83 86 86 85 84 84 86 86 87 91 94 92 86 92
33 44 58 53 69 67 62 60 53 50 51 49 42 38 44 46 41 41 39 34 40 70 67 68 70 73 79 79 79 80 75 74 75 80 84 88 88 88 86 86 87 89 89 92 93 94 94 92 94
47 48 54 57 63 62 61 63 52 44 44 42 44 40 40 42 46 42 40 33 31 31 54 55 56 61 68 67 68 66 66 72 73 65 78 84 84 83 84 85 83 86 86 86 86 93 93 96 99
46 44 54 52 65 56 59 63 56 44 42 46 40 36 36 38 42 45 43 33 29 31 28 28 36 33 42 50 51 55 61 64 66 61 64 67 70 70 67 67 73 77 84 83 85 85 98 98 98
59 42 48 58 61 55 50 37 43 47 47 42 42 39 38 45 45 42 41 31 29 31 30 28 28 28 33 42 47 50 55 55 46 43 43 43 43 45 49 54 57 57 55 51 50 52 52 58 90
53 49 47 50 45 49 55 53 29 40 43 40 37 38 38 38 46 43 40 32 31 32 31 31 31 33 35 37 38 36 34 34 34 34 34 35 35 36 38 39 40 40 40 39 38 38 39 43 57
50 51 52 52 48 68 43 48 34 37 36 33 31 35 39 39 41 44 42 35 35 34 32 34 36 35 34 33 33 33 32 32 32 33 34 36 37 38 39 40 40 40 40 40 39 39 39 40 46
48 52 83 79 83 58 52 54 35 29 30 30 30 30 34 36 37 41 37 35 35 34 33 36 38 37 36 36 35 34 34 34 34 36 38 41 42 42 42 43 44 44 45 46 49 49 49 50 64
56 44 56 62 62 48 55 57 33 28 32 34 35 33 32 33 36 44 43 44 35 34 34 38 41 40 40 39 38 38 38 40 42 43 45 47 49 50 50 51 51 51 52 53 55 57 58 58 79
60 65 43 57 55 55 43 42 32 24 25 23 25 31 33 34 35 28 32 36 36 38 41 45 46 45 44 42 43 45 47 48 48 48 48 49 50 51 51 51 51 50 50 51 53 56 58 59 87
57 43 62 72 75 58 42 38 27 29 27 24 24 27 30 38 36 32 33 42 46 44 49 51 51 50 50 50 51 51 51 53 54 54 53 53 53 53 53 52 51 50 50 51 52 53 56 64 80
63 61 62 49 56 50 44 31 26 27 27 28 30 37 42 47 56 56 58 74 62 61 57 54 54 54 54 54 55 57 60 62 62 63 63 61 60 57 55 55 56 58 61 63 64 64 64 68 73
68 55 50 62 70 63 57 39 28 26 27 33 36 43 46 45 57 70 73 64 61 59 60 59 59 60 60 60 63 64 66 67 67 69 69 67 65 63 62 65 68 70 70 70 71 72 74 74 75

GFSSGP_850_rhum_075.txt.gz
RH
50 61 55 49 34 24 24 22 17 20 18 18 19 18 24 26 20 49 58 58 70 81 91 72 70 74 80 78 77 74 75 53 53 39 49 70 57 45 23 14 14 14 22 47 56 60 62 57 38
87 60 53 32 32 26 24 17 23 19 18 24 25 24 28 35 51 67 63 60 68 81 86 96 70 73 79 80 68 74 48 46 40 42 60 86 63 53 28 15 15 17 23 52 58 58 52 40 28
63 58 35 27 25 24 22 18 17 24 27 25 22 36 31 51 61 57 60 63 72 86 92 86 80 72 81 66 72 75 53 48 38 48 60 78 80 62 35 19 20 22 23 47 50 45 35 29 36
64 50 38 30 27 18 16 19 25 23 24 27 25 26 56 69 58 57 71 64 73 82 86 92 76 78 72 70 86 56 56 52 42 52 64 84 84 65 38 23 21 22 24 33 35 32 28 31 38
75 40 32 33 26 17 20 28 31 22 21 27 31 37 55 83 81 76 69 67 70 72 94 84 82 82 71 71 61 49 47 41 46 53 67 84 86 61 38 26 25 24 24 26 28 28 33 35 38
61 37 39 34 26 21 24 30 27 24 22 26 34 41 72 95 88 76 69 68 70 75 94 87 91 81 79 73 63 44 27 42 48 53 69 84 91 74 47 32 24 28 28 27 28 30 34 35 35
66 42 40 29 26 34 30 36 27 26 22 38 38 40 79 99 96 79 70 69 69 88 95 96 89 84 86 79 66 38 24 36 49 49 64 93 96 93 59 43 34 26 31 32 32 32 33 36 36
62 52 40 31 30 38 35 37 43 33 29 54 60 38 67 99 93 88 73 71 70 88 89 97 94 93 83 78 72 38 30 33 48 51 59 86 62 37 52 45 40 34 27 30 33 34 34 36 36
70 83 58 41 44 36 41 33 43 42 36 45 50 69 89 95 97 90 88 82 75 85 89 98 95 98 98 98 71 53 33 36 46 39 34 51 80 49 48 41 44 42 38 30 28 32 35 36 36
85 88 44 30 27 35 34 35 39 35 36 39 42 61 79 97 99 96 96 89 86 86 93 95 94 92 97 96 75 83 36 29 59 58 26 89 90 93 87 39 39 40 41 40 34 29 32 40 72
75 80 46 34 33 31 42 43 46 34 37 41 44 54 94 99 99 97 96 96 93 91 93 94 88 95 96 91 88 88 90 76 73 78 82 75 74 52 25 52 26 30 33 40 44 37 44 85 51
70 65 63 68 42 41 41 37 38 45 44 46 46 56 92 100 99 97 99 100 95 98 94 93 91 91 94 99 92 81 83 86 85 89 87 84 72 63 72 72 77 54 77 84 92 85 80 73 49
67 47 55 80 51 40 40 39 49 47 47 47 44 49 82 97 99 97 95 97 93 98 95 96 91 96 93 95 89 82 81 86 87 92 90 86 83 80 77 74 68 67 62 71 81 84 79 77 74
37 40 56 60 59 41 40 41 48 47 44 44 42 43 59 85 94 96 98 98 95 94 93 98 97 98 94 97 94 93 82 84 88 92 96 69 85 77 61 74 54 53 52 76 86 88 89 88 87
38 41 46 63 80 62 45 49 49 35 46 42 40 38 46 52 83 86 91 85 91 96 97 95 98 97 92 96 96 86 84 84 90 93 96 65 66 70 68 71 88 73 80 81 86 86 86 87 87
48 42 67 44 50 56 51 53 42 37 41 44 42 37 40 47 47 49 77 86 94 94 91 96 95 96 91 93 95 93 86 89 91 92 94 96 78 64 67 74 79 89 92 88 92 95 95 94 94
58 54 53 44 44 56 55 45 36 43 42 42 43 39 36 42 46 43 48 69 89 93 94 97 99 97 94 95 94 92 90 91 90 92 94 98 98 90 75 80 84 90 97 98 96 98 98 97 95
52 43 42 38 49 49 56 53 49 48 51 46 42 39 37 40 44 42 43 45 68 90 94 97 89 96 98 96 98 98 99 98 94 93 93 98 97 99 96 94 94 98 98 97 98 99 99 99 96
25 29 38 31 39 56 55 54 51 48 48 48 46 40 37 36 40 43 39 37 43 72 86 93 90 81 97 98 96 97 98 98 98 97 96 98 100 99 100 96 99 99 96 98 98 96 98 98 98
33 31 41 39 46 55 47 44 41 38 41 40 38 35 36 34 38 43 43 39 34 37 66 75 90 96 97 100 93 95 96 95 97 97 77 84 85 88 87 86 90 96 99 99 95 98 100 100 100
36 30 47 50 51 51 40 43 41 39 40 37 33 35 34 34 36 38 45 40 39 30 34 55 66 66 64 77 87 70 71 71 76 79 76 56 60 67 74 76 76 76 93 98 99 100 99 98 97
49 28 33 39 58 57 42 36 28 36 41 35 34 36 33 32 34 34 41 42 38 30 30 29 29 35 36 35 52 60 72 79 83 68 56 47 42 42 42 43 46 50 55 57 57 54 55 86 88
37 34 38 47 51 34 45 48 27 30 42 40 31 32 35 34 34 40 42 42 38 31 28 31 30 29 29 33 43 49 57 59 50 40 35 34 33 34 34 34 36 38 40 42 42 41 40 40 44
41 41 44 42 39 59 42 38 27 25 27 25 25 27 31 34 34 37 44 46 41 34 32 31 31 32 33 35 38 40 38 35 34 34 34 35 35 34 34 36 38 40 41 42 42 42 43 45 47
43 48 70 68 75 59 37 35 29 24 25 25 25 26 25 28 32 34 42 45 42 36 31 33 32 33 34 35 36 35 34 34 34 35 36 38 42 41 40 40 42 43 43 44 46 49 52 52 56
47 39 49 54 52 41 42 50 30 23 21 27 28 28 28 29 30 32 35 44 50 38 34 35 34 34 35 36 37 36 35 35 36 35 37 41 44 48 47 49 49 49 50 50 51 52 57 58 59
53 66 39 48 40 42 39 31 25 20 23 22 22 25 29 30 30 31 35 44 52 45 37 36 41 36 36 38 39 38 38 38 40 42 44 46 48 50 51 52 52 50 49 48 48 50 55 60 64
49 40 52 62 68 46 37 30 26 25 24 22 24 26 27 28 30 37 39 44 54 56 46 52 49 44 45 43 41 42 42 44 47 49 50 50 51 51 51 52 52 51 51 50 50 52 54 61 64
57 54 51 45 50 51 33 27 19 26 25 28 29 33 34 36 39 44 50 58 63 71 73 67 57 52 48 47 46 47 49 51 54 56 57 58 58 58 56 55 54 54 55 58 63 64 65 67 66
61 48 40 57 56 48 55 38 21 21 24 28 33 34 36 44 47 52 57 65 73 76 78 65 57 52 52 52 53 53 55 57 59 60 62 63 64 65 64 61 60 61 65 70 72 72 74 78 79

GFSSGP_850_rhum_078.txt.gz
RH
52 51 55 58 62 46 40 27 23 30 26 31 27 22 32 51 44 70 55 63 61 40 43 58 81 76 76 72 75 66 54 50 40 52 54 50 28 17 14 20 26 33 49 54 53 54 42 26 45
63 68 55 52 50 44 33 23 29 24 23 24 24 29 41 56 59 56 59 65 63 34 45 57 73 78 77 71 61 44 38 36 43 64 69 58 34 17 13 13 14 29 50 49 47 37 28 29 53
63 67 48 49 46 43 30 22 24 23 23 24 24 37 68 69 57 59 62 72 78 46 49 66 76 81 78 62 59 40 39 38 48 58 78 71 44 23 18 21 19 35 44 38 32 27 29 34 45
68 64 52 44 38 31 24 22 24 25 23 23 23 46 74 72 53 60 62 75 82 76 77 73 76 81 71 63 56 47 46 40 48 57 80 78 49 30 22 22 23 28 33 30 28 27 32 38 44
77 62 52 48 38 25 20 27 28 24 22 25 26 61 67 78 75 64 63 74 77 90 84 82 78 80 65 80 50 42 46 43 49 59 82 80 50 36 25 24 23 23 24 25 25 28 31 33 35
75 59 50 48 39 25 29 29 27 24 22 29 30 55 88 78 77 66 64 73 78 85 82 79 82 78 73 70 52 39 37 43 50 63 82 80 71 46 31 25 26 24 24 24 26 28 31 31 33
86 68 61 41 35 28 36 32 28 24 22 37 31 47 68 76 76 68 65 69 74 84 86 74 87 79 81 75 64 34 42 43 49 65 79 95 65 50 39 30 25 27 27 26 28 30 31 32 34
72 77 60 49 35 37 34 36 38 36 43 50 50 49 90 74 80 67 66 71 76 88 78 89 86 80 82 75 63 39 50 53 46 54 73 74 36 34 33 31 29 25 26 28 29 30 31 32 33
72 85 79 57 49 42 36 38 41 36 44 46 57 73 92 77 79 70 69 72 79 81 84 90 94 82 86 73 62 36 58 66 62 58 68 72 43 38 34 33 32 33 31 27 27 30 33 34 36
86 93 67 44 47 42 40 36 36 37 39 43 56 76 88 64 73 76 74 80 90 78 89 80 83 96 97 84 67 43 36 52 44 45 40 85 91 68 36 40 33 33 34 33 31 29 27 30 38
76 84 58 54 56 38 36 46 42 35 48 45 46 67 93 97 58 68 76 70 89 83 81 86 89 92 93 93 76 66 39 37 75 76 55 85 88 86 57 31 28 24 27 30 34 38 41 43 46
86 75 68 66 81 61 48 41 45 46 46 45 44 60 84 94 84 80 76 80 72 77 82 83 83 87 89 91 89 86 81 80 76 80 82 77 68 58 54 57 46 30 25 31 41 42 66 65 46
88 69 66 65 76 81 58 38 42 48 46 44 42 62 81 97 91 93 99 90 83 85 81 86 81 83 84 91 83 82 83 86 87 87 88 85 80 72 58 58 55 44 40 43 55 60 61 68 69
58 51 64 65 63 68 84 44 43 41 45 43 41 48 74 90 95 90 75 69 92 94 80 83 89 82 83 86 82 82 82 83 87 89 84 86 85 71 64 59 51 41 36 43 56 68 81 77 81
35 61 76 77 64 68 70 88 55 44 44 42 41 43 50 59 94 81 68 61 80 84 83 83 92 87 87 80 86 79 83 84 86 91 92 71 66 66 61 54 68 60 63 69 74 73 76 75 74
49 51 82 79 63 65 74 66 46 41 45 42 41 40 43 47 48 78 84 69 82 89 95 87 81 87 93 86 84 83 85 84 88 90 94 84 68 64 64 68 74 81 85 80 79 83 87 87 89
74 79 60 66 67 71 83 83 42 42 44 43 44 43 40 44 46 43 67 85 87 81 78 85 92 88 84 82 84 78 84 84 84 90 94 96 84 83 77 77 80 85 90 90 88 86 90 95 93
71 60 55 50 70 61 80 72 50 42 42 38 40 42 40 38 43 44 43 58 82 87 89 86 85 86 90 88 84 88 89 89 86 90 90 90 97 95 99 90 94 95 97 96 93 94 94 93 97
44 46 44 39 42 57 58 62 57 47 45 48 42 45 43 40 39 43 42 42 55 75 92 87 80 81 98 95 93 90 89 91 88 87 90 94 90 94 94 98 100 98 100 99 100 99 97 94 97
74 47 42 40 62 65 58 56 47 50 52 52 50 46 44 41 40 42 43 38 37 50 73 73 83 70 78 88 89 91 90 94 94 93 91 92 98 94 89 93 92 91 100 99 97 97 97 98 98
83 53 48 76 58 63 59 58 47 44 40 40 43 44 44 40 37 40 42 41 37 34 41 71 82 98 87 86 89 88 81 77 78 78 88 76 73 76 77 79 82 89 98 98 97 95 98 98 93
68 43 39 52 69 76 56 60 48 38 46 42 40 38 34 35 35 34 41 41 40 36 32 38 70 73 75 74 64 64 64 78 82 79 71 62 60 51 46 44 42 42 42 43 47 49 53 63 69
58 39 50 56 62 50 63 66 40 36 44 46 42 38 34 34 34 34 34 39 39 39 34 29 31 37 51 56 55 58 69 72 74 77 72 52 37 33 32 32 32 32 34 36 39 42 44 44 45
46 56 62 54 59 83 50 49 43 39 41 41 36 34 33 33 34 34 37 42 43 41 38 31 30 31 29 29 32 39 49 52 59 50 37 34 31 31 32 32 33 35 37 40 42 44 45 48 52
53 74 90 90 90 77 40 48 44 30 28 25 30 27 27 31 34 34 37 44 44 43 40 33 29 31 33 33 32 33 37 38 36 33 34 35 36 35 32 34 36 39 41 44 47 50 54 56 60
56 52 80 66 79 66 39 56 41 28 26 27 28 28 27 28 30 33 34 40 39 42 42 36 32 33 34 36 36 33 34 34 34 36 36 36 39 40 42 44 46 46 47 48 49 50 53 56 56
57 71 43 64 41 68 55 38 26 26 27 24 25 26 28 30 29 29 34 40 43 42 43 38 38 36 36 36 42 34 36 35 36 36 37 38 41 45 46 47 48 48 48 46 46 47 49 53 52
66 45 64 84 71 49 50 40 40 28 28 28 32 31 30 27 27 31 32 38 45 46 46 51 49 39 39 41 40 40 43 37 37 39 43 43 45 48 49 50 50 51 50 49 49 49 50 56 58
62 83 56 53 70 79 58 42 30 33 34 38 37 36 38 39 39 37 38 37 42 53 55 58 63 60 50 41 40 43 39 40 44 46 47 50 52 53 55 56 57 56 54 54 56 57 62 66 66
64 58 54 87 70 69 73 58 24 32 32 33 36 32 32 38 42 50 51 51 53 61 67 70 67 56 54 53 45 42 45 47 49 50 52 54 54 56 60 62 62 61 59 60 64 68 72 74 77

GFSSGP_850_rhum_081.txt.gz
RH
48 49 59 60 59 64 60 35 25 33 30 30 26 27 50 61 65 60 72 68 72 62 57 60 71 70 76 76 68 63 45 39 38 31 21 25 33 41 50 55 61 56 39 42 41 25 39 55 63
53 69 66 57 67 62 47 30 32 29 25 30 33 38 63 64 58 71 78 74 53 43 50 63 72 72 70 67 51 42 37 39 61 42 27 18 12 12 14 16 20 35 41 35 28 25 45 54 60
63 80 61 70 63 60 43 25 31 29 28 29 39 47 71 66 60 70 73 74 47 45 49 72 76 74 67 57 39 37 39 44 64 64 37 22 17 19 16 18 33 33 32 28 26 31 42 51 55
66 72 64 66 59 43 32 33 27 30 25 23 34 59 66 82 68 72 80 70 51 52 59 79 80 75 62 53 41 38 41 46 58 85 43 25 20 20 19 25 30 28 27 26 28 33 39 46 50
80 78 83 73 62 33 28 28 25 26 25 26 50 80 73 75 70 77 80 80 51 57 75 82 83 73 62 54 46 42 40 44 53 79 42 27 22 20 21 22 24 24 24 25 27 30 32 35 40
82 66 75 76 55 37 31 27 21 27 23 25 57 76 87 65 77 85 81 83 59 69 78 82 83 69 86 59 47 44 42 48 58 79 67 38 26 23 23 22 22 23 23 25 27 28 29 31 33
87 91 79 54 49 39 38 31 32 28 30 42 39 82 73 85 79 79 79 77 78 86 82 83 83 71 83 60 48 38 42 50 66 84 76 57 44 30 25 25 24 24 24 25 26 27 28 30 31
71 87 72 62 48 44 38 40 39 38 50 49 54 83 71 74 75 80 79 83 88 93 79 78 80 71 64 60 40 40 43 47 59 78 74 37 36 31 30 26 24 26 25 26 27 27 28 30 31
77 87 84 68 58 49 38 41 37 43 48 51 62 66 42 65 46 79 81 85 81 86 80 81 76 76 72 59 38 41 52 47 53 65 70 49 38 34 32 32 31 28 25 24 25 27 29 30 32
77 89 76 56 60 47 40 38 36 42 54 89 74 73 51 45 42 46 83 81 84 80 78 88 80 82 77 65 41 34 48 50 49 55 64 65 49 46 38 32 31 32 31 30 28 27 26 26 32
74 88 70 73 73 56 44 43 38 45 54 51 88 82 78 83 48 35 79 90 82 82 76 78 80 80 76 72 56 33 35 43 43 37 69 70 66 58 50 29 25 24 24 26 31 34 37 40 36
87 73 75 79 82 78 54 44 50 45 47 45 53 64 84 83 72 58 47 88 89 79 74 87 77 82 91 88 74 73 46 43 58 71 80 81 83 65 44 35 35 33 28 28 34 36 38 44 49
78 77 79 76 73 82 72 64 51 48 44 48 60 69 73 70 77 76 71 68 79 74 74 82 77 79 85 84 86 85 85 74 74 76 81 80 77 57 49 46 44 40 36 33 40 48 56 56 63
72 68 75 80 75 90 77 75 54 48 43 51 53 62 84 80 74 70 66 68 74 72 74 81 82 76 78 85 93 82 79 83 86 86 82 83 75 67 60 56 52 48 39 42 49 57 65 68 70
63 72 72 76 78 83 77 79 67 46 43 42 51 52 76 87 83 84 64 63 68 64 75 78 82 79 80 78 80 81 83 81 84 88 85 75 73 69 62 57 54 58 54 62 66 70 73 75 78
67 68 90 67 84 86 83 82 71 53 45 43 48 50 47 54 71 77 76 70 67 75 76 80 88 81 82 82 79 80 80 83 82 87 82 77 61 63 63 66 65 72 76 77 78 81 81 83 86
76 99 95 92 80 89 84 80 60 55 46 43 42 44 46 49 47 58 76 74 69 64 76 76 88 80 80 82 82 79 81 88 84 85 84 90 82 71 69 69 71 77 83 89 87 86 89 93 91
82 78 74 80 85 79 87 78 64 57 62 46 45 42 43 46 44 46 48 68 68 73 72 76 80 81 81 82 82 82 86 87 84 77 82 88 86 91 87 87 84 90 95 96 97 98 92 91 90
69 62 63 57 73 75 74 66 59 53 60 50 46 43 42 43 44 43 42 52 68 64 67 73 77 81 81 86 81 81 84 84 84 86 95 91 98 97 85 88 89 93 94 97 99 94 98 97 95
81 61 54 53 70 61 62 62 59 58 59 48 42 41 41 41 43 44 43 42 48 66 66 70 80 78 79 79 83 80 77 84 85 83 89 86 91 88 91 95 100 100 98 97 98 97 96 98 96
85 68 59 60 74 80 74 79 65 54 51 46 45 44 43 42 40 43 43 42 41 43 63 66 66 71 72 75 78 91 88 88 81 79 75 81 87 90 81 72 65 64 90 100 98 97 96 95 93
92 62 55 64 77 88 66 90 62 52 59 57 52 49 47 48 41 41 40 43 41 39 38 51 73 66 65 69 72 70 66 63 65 68 67 73 79 76 74 71 65 50 42 39 40 45 53 52 50
79 65 56 60 72 66 75 69 53 44 56 57 50 42 41 41 38 37 39 39 37 39 38 37 34 70 68 65 66 63 62 70 76 81 81 77 67 62 43 35 34 33 33 33 34 36 38 43 44
67 65 77 75 72 92 68 66 56 51 45 48 48 41 40 39 36 35 34 38 38 40 40 38 33 30 61 72 72 61 59 55 60 64 65 66 53 36 32 32 33 33 34 35 38 40 41 44 46
69 76 99 98 95 78 52 58 51 36 32 40 44 41 39 37 34 34 35 38 40 42 41 40 36 30 29 32 43 47 50 50 53 58 55 40 32 31 32 34 34 35 36 39 41 44 47 48 49
77 77 83 84 90 68 46 64 43 32 30 30 30 28 29 28 35 36 37 36 42 44 43 42 38 34 33 33 34 37 38 42 42 37 33 32 32 33 33 34 37 40 41 42 43 44 46 47 49
71 83 47 68 52 76 63 47 32 35 34 31 30 28 28 31 30 29 35 42 40 38 38 39 43 36 35 36 37 39 41 39 38 37 37 36 37 38 39 38 42 44 44 44 44 44 45 47 50
58 53 67 85 68 61 68 47 47 35 36 43 44 38 32 28 27 31 32 31 41 42 40 42 45 40 42 44 43 36 37 38 36 38 39 36 38 42 43 44 48 49 50 51 50 48 48 51 52
70 80 62 61 81 82 64 52 37 39 47 50 45 35 33 33 32 31 34 36 42 48 47 46 50 48 46 49 52 48 43 39 40 43 37 40 40 44 50 52 54 56 57 57 56 55 55 58 62
69 70 63 87 71 79 80 57 31 42 45 40 38 36 37 39 38 33 36 43 43 41 49 54 56 58 59 57 54 51 47 45 45 46 53 49 47 51 57 58 60 60 61 63 63 63 65 66 71

GFSSGP_850_rhum_084.txt.gz
RH
60 58 62 62 63 66 64 41 31 43 54 34 33 38 63 65 55 60 82 60 66 63 62 68 67 72 75 69 73 50 54 40 47 50 62 79 87 86 92 81 67 51 33 31 26 45 54 54 63
63 60 76 61 73 70 48 37 30 34 43 37 36 54 68 67 67 90 95 75 76 60 66 69 70 77 75 61 57 43 39 33 23 21 35 46 52 57 56 52 26 32 29 23 41 51 52 53 61
72 70 73 75 75 62 42 29 27 26 38 50 44 51 68 83 87 93 84 91 78 63 72 76 75 74 66 47 41 38 69 44 31 17 12 11 12 12 14 23 26 26 23 26 40 45 42 47 54
73 78 79 72 73 48 35 30 24 33 35 37 46 68 75 89 80 77 87 92 67 67 80 80 78 73 57 38 38 39 59 64 41 23 17 16 14 16 22 22 22 22 24 28 32 39 40 46 50
78 88 84 87 76 41 34 28 31 34 34 31 45 82 80 93 80 89 83 79 60 74 83 81 81 74 57 42 39 41 48 83 56 27 20 18 18 20 22 22 21 22 24 26 29 32 36 38 43
88 79 83 87 71 46 32 24 29 28 28 45 55 64 71 90 100 97 92 71 62 71 86 86 80 73 62 49 43 43 47 73 86 35 24 21 20 20 22 22 23 24 26 26 27 28 31 32 34
94 89 85 69 59 46 36 31 29 28 28 46 55 79 67 64 100 100 97 78 64 83 88 89 79 75 62 52 49 45 51 68 97 54 36 26 24 22 22 22 23 24 26 28 28 29 30 32 34
86 80 82 67 56 50 38 41 38 30 53 58 60 88 97 58 77 82 97 90 67 80 86 92 79 90 73 50 43 44 50 68 91 82 50 34 27 24 24 25 25 25 26 28 29 30 31 32 33
90 90 85 73 55 44 41 43 40 45 51 58 62 67 51 53 74 53 69 99 95 85 82 84 75 79 66 49 34 42 46 57 82 83 55 39 33 30 28 26 26 26 27 29 30 31 31 32 32
91 85 78 59 60 49 45 39 40 53 75 90 73 63 55 50 57 42 71 94 99 96 86 78 69 68 64 49 34 43 43 52 58 68 59 42 41 39 38 35 34 34 32 29 28 28 28 30 35
81 84 68 64 84 69 56 48 41 53 54 73 88 99 81 63 69 61 53 56 97 91 87 88 75 76 70 57 32 43 45 46 57 65 59 51 47 49 46 36 30 30 32 32 35 37 37 40 40
96 73 66 79 91 75 84 67 53 47 48 57 66 66 94 91 61 51 46 67 82 98 79 75 82 79 77 68 44 34 46 48 46 47 70 62 57 51 46 33 38 36 32 33 39 44 45 49 54
82 75 72 88 85 88 73 74 55 49 46 52 62 78 65 59 78 73 65 80 66 87 99 85 76 72 73 81 77 63 43 37 49 59 69 69 63 58 53 48 44 43 38 37 40 48 54 60 66
67 88 71 88 90 87 84 78 56 49 50 57 60 67 84 78 71 70 74 59 48 58 67 96 80 77 76 80 84 85 82 80 70 66 66 69 71 66 57 46 46 48 44 40 43 53 61 69 74
68 87 90 83 82 90 84 76 67 59 53 56 55 61 81 75 86 86 68 61 61 72 59 70 88 84 77 78 80 82 82 81 81 83 84 84 77 71 63 53 50 52 50 51 58 66 72 75 78
74 83 96 92 86 97 76 81 68 59 58 60 58 57 64 75 76 73 79 66 73 79 81 77 68 88 86 82 78 81 78 76 79 79 85 87 80 72 65 62 54 63 68 72 74 78 80 82 84
88 99 86 89 75 90 81 83 64 67 65 53 53 53 50 51 61 76 71 65 64 67 69 76 79 56 89 84 84 80 77 82 82 79 82 81 85 69 68 68 67 71 76 78 84 88 89 90 88
90 90 83 82 88 81 93 90 79 68 69 56 51 47 48 50 45 58 71 72 73 68 70 60 58 49 47 79 91 83 80 76 80 83 79 79 82 84 85 85 84 83 87 93 96 96 98 90 90
71 84 82 75 77 80 86 81 78 69 62 61 52 51 45 47 47 45 46 67 70 73 74 76 73 69 63 81 82 84 82 83 88 88 81 79 82 85 85 79 83 89 90 96 93 97 94 89 83
72 62 82 68 77 75 75 81 69 75 61 58 50 50 46 44 44 46 43 43 61 64 67 73 80 79 80 67 75 77 77 83 77 79 81 86 88 83 83 84 87 96 98 97 96 98 94 96 97
83 82 69 86 84 73 76 78 68 59 55 55 50 47 44 41 40 42 44 43 43 52 59 59 66 73 78 75 75 69 78 80 80 80 84 75 75 74 76 92 90 95 99 86 79 83 92 91 83
80 68 62 71 87 97 85 93 68 62 60 59 50 52 47 44 42 41 41 44 43 41 45 63 62 65 74 75 78 73 70 76 70 72 69 60 72 74 83 92 88 66 51 47 51 52 57 62 55
78 70 64 72 86 78 98 84 54 50 60 62 59 47 45 41 40 45 44 42 41 42 39 40 56 60 65 71 73 71 67 69 66 68 68 66 64 72 71 70 59 45 36 34 33 34 36 39 41
79 78 83 86 97 98 77 72 61 51 50 50 52 50 44 42 42 42 40 37 42 40 41 38 38 39 61 64 63 65 70 67 70 68 61 64 64 63 55 48 34 32 32 32 32 33 36 40 42
84 81 98 98 98 83 63 77 68 38 38 44 49 42 39 43 42 40 38 37 35 39 42 40 38 35 34 50 66 65 65 66 60 58 58 62 63 55 44 33 32 33 33 32 34 37 40 43 45
84 75 89 89 92 70 60 77 48 33 32 33 35 37 36 32 34 37 38 37 35 36 44 42 40 38 36 39 53 57 60 58 56 58 64 62 56 40 35 34 33 34 37 40 41 42 43 44 45
82 83 53 66 60 78 59 48 35 37 38 36 34 32 32 32 31 31 35 35 37 36 43 44 43 42 40 37 37 44 52 44 52 50 51 46 39 38 36 34 33 36 37 42 44 44 45 45 46
63 58 67 83 71 65 67 56 45 42 38 41 42 38 33 30 30 32 31 33 40 43 44 44 45 44 44 40 40 42 45 46 49 40 38 39 36 36 37 41 43 44 41 49 51 52 52 51 52
69 70 67 65 82 74 69 57 38 40 48 50 46 36 35 36 35 32 30 31 33 45 48 50 50 48 47 45 47 50 51 53 48 44 40 43 42 49 62 55 51 52 50 52 57 57 57 58 58
70 70 65 83 69 84 80 56 43 44 49 44 42 38 37 37 35 33 32 31 31 34 44 52 54 54 54 54 55 56 56 53 51 48 46 44 62 66 63 53 50 52 55 57 60 62 63 64 66

GFSSGP_850_rhum_087.txt.gz
RH
77 72 66 78 74 67 57 42 40 55 66 44 45 57 66 70 54 59 90 87 70 74 74 78 76 69 77 75 61 73 75 66 90 92 92 93 94 98 99 80 65 44 27 21 42 39 41 47 49
81 71 72 77 79 70 51 36 31 46 55 44 40 52 68 76 86 98 99 87 72 70 74 74 69 76 78 70 59 46 61 55 74 89 90 90 93 94 76 62 35 25 20 33 40 40 41 45 51
86 75 80 91 90 56 49 40 25 35 46 54 45 55 69 90 95 99 94 92 77 70 71 69 73 78 72 67 46 37 27 27 49 59 67 70 70 65 44 20 21 20 30 33 33 36 36 35 38
80 75 80 78 86 59 36 35 25 41 46 60 56 56 80 92 88 96 90 91 75 73 74 71 83 76 72 73 42 52 76 21 15 16 22 23 20 16 19 21 21 22 29 32 31 34 36 39 39
83 74 86 86 81 54 38 29 25 39 42 54 54 57 84 100 77 83 89 96 73 79 76 83 82 72 54 60 46 82 62 32 19 17 15 13 17 20 22 22 23 26 27 33 35 37 41 45 46
87 76 97 94 66 56 39 29 29 34 39 41 61 68 81 97 100 99 96 91 83 83 82 84 81 69 45 43 45 82 89 55 26 20 18 19 22 21 22 23 24 26 28 31 34 37 39 41 44
91 96 88 80 60 53 44 31 32 33 37 49 52 76 78 97 100 100 92 87 81 83 85 87 83 68 52 44 46 65 92 80 38 24 22 21 22 22 23 24 25 27 27 29 31 34 36 37 40
90 96 85 73 67 60 35 37 35 30 43 53 56 92 95 55 98 98 85 80 73 87 87 89 83 73 56 56 47 54 87 98 71 42 28 25 24 24 24 24 26 27 27 29 32 33 36 38 39
91 96 95 77 63 51 37 45 42 42 60 68 62 66 70 69 70 95 90 82 81 90 89 90 78 86 68 60 50 48 66 96 90 70 47 31 28 28 28 28 29 30 31 31 32 34 35 36 38
89 93 88 65 56 48 48 43 45 58 81 86 82 71 61 59 53 75 86 86 88 90 89 89 79 93 78 59 43 47 55 74 82 71 52 42 38 34 32 30 30 30 31 32 32 32 34 35 40
78 84 69 69 81 70 60 54 51 64 65 82 80 86 62 52 39 38 74 51 74 98 91 85 82 79 73 61 41 47 50 59 72 66 51 44 44 44 42 41 39 38 37 38 38 36 35 40 46
87 67 74 74 91 82 81 73 55 50 50 62 60 51 66 81 94 86 60 51 48 76 94 98 90 71 67 65 44 51 48 54 58 64 57 51 49 52 52 48 37 34 32 35 42 46 47 50 55
86 60 88 80 88 85 76 79 69 54 60 83 75 82 75 80 78 71 50 45 43 50 63 98 84 92 68 66 48 50 56 50 55 58 57 61 66 63 55 44 46 46 39 39 46 47 53 57 63
78 65 83 72 90 89 85 81 65 55 72 75 84 66 73 69 70 80 63 56 53 71 65 82 70 74 76 63 64 42 40 43 48 47 53 56 61 65 60 59 54 51 49 43 43 50 59 67 71
65 74 82 83 88 88 86 78 77 70 72 79 78 76 70 67 70 79 71 64 70 68 58 59 68 81 76 72 68 76 77 71 63 63 67 64 62 66 67 64 58 58 55 49 53 61 70 74 76
80 85 98 88 89 89 80 83 74 70 59 75 76 77 73 73 67 63 61 65 65 64 59 56 68 74 89 78 71 79 80 82 79 79 81 81 81 78 74 71 64 62 67 65 71 76 79 81 84
77 98 97 93 81 87 84 89 71 74 65 58 65 64 67 60 66 69 66 62 61 62 65 69 57 48 66 64 90 86 86 82 78 83 76 82 81 84 80 70 68 66 75 80 82 85 87 88 90
97 96 95 98 95 89 90 85 86 78 67 67 58 56 51 53 59 60 64 75 72 79 80 71 68 68 72 76 83 62 94 84 84 75 76 78 80 83 72 72 73 75 79 83 88 93 96 95 88
65 88 92 90 87 85 89 89 82 80 72 66 61 54 48 48 47 53 69 80 78 78 78 81 81 81 88 86 76 62 79 92 89 82 79 82 78 79 78 80 83 81 85 89 94 86 92 84 87
76 79 82 80 81 78 88 87 80 79 78 64 58 57 49 49 46 46 47 70 72 73 71 75 76 72 71 68 57 69 64 62 85 76 80 80 79 82 81 81 81 84 88 96 96 94 91 93 85
82 83 81 82 84 80 86 88 80 83 80 71 60 54 51 46 44 42 45 44 56 71 69 68 68 73 73 77 75 83 80 82 84 80 68 75 72 80 75 76 77 77 86 98 98 96 78 80 76
90 71 74 86 88 100 86 95 78 66 71 59 57 53 53 47 45 43 42 42 44 44 58 66 64 63 68 73 78 77 82 80 83 71 77 76 74 70 69 60 64 66 76 96 79 61 57 56 50
90 76 78 76 85 91 98 99 57 59 72 58 63 49 50 46 44 44 42 39 38 42 43 45 66 66 64 70 69 72 74 74 72 73 79 68 64 74 72 67 68 75 77 70 40 35 35 36 36
82 83 83 90 96 98 90 85 60 59 55 48 49 46 41 42 44 42 41 44 44 42 40 42 43 59 63 67 68 69 70 68 70 71 68 63 66 76 64 56 60 68 51 34 32 33 32 35 39
89 78 99 98 98 87 74 79 68 54 41 41 46 38 36 37 40 42 42 43 41 37 37 39 41 39 49 52 59 63 68 69 67 68 71 69 60 55 55 57 68 45 36 33 32 32 34 36 41
91 69 85 93 95 77 75 81 62 35 40 40 40 40 41 41 42 43 42 41 39 36 35 38 40 41 39 40 44 51 57 64 66 68 65 63 61 65 65 71 44 35 34 34 36 38 41 43 42
86 86 56 69 63 80 72 49 38 38 41 41 39 36 35 33 32 32 35 38 38 36 36 40 44 42 40 40 38 37 44 59 63 67 57 57 71 66 68 41 36 34 36 36 40 45 47 47 46
69 58 69 83 74 61 67 63 46 42 40 42 45 39 34 31 32 32 32 36 39 41 38 39 46 44 44 44 44 42 39 42 61 65 71 62 67 51 42 42 51 66 64 51 45 46 48 50 52
71 67 70 66 83 74 77 60 40 40 40 47 47 42 40 37 34 32 31 31 32 40 47 48 48 47 47 47 48 48 47 48 54 57 59 53 45 45 54 63 59 61 59 51 48 50 51 55 57
72 68 65 80 72 87 77 57 49 42 47 46 45 41 40 40 38 37 38 37 35 32 32 44 51 52 52 51 50 50 52 55 58 57 53 56 48 52 48 60 58 61 52 52 54 57 60 61 64

GFSSGP_850_rhum_090.txt.gz
RH
85 85 80 74 87 82 70 56 41 78 68 49 44 60 65 76 57 58 92 98 78 78 79 81 74 68 77 68 47 53 91 84 88 74 72 73 81 90 95 76 60 32 18 33 30 33 36 42 36
96 82 76 83 95 90 62 41 44 61 57 54 50 54 73 87 93 96 98 100 82 79 81 80 75 72 76 62 72 59 91 90 96 94 90 92 95 98 75 57 34 19 26 33 33 36 38 41 38
88 86 77 97 94 84 55 39 28 45 59 65 65 63 64 97 90 90 94 95 87 79 82 78 69 80 78 62 67 72 74 92 91 94 95 95 94 73 62 32 20 23 33 34 34 33 33 36 38
89 80 72 99 85 69 44 39 35 49 61 61 63 67 76 90 88 95 97 92 85 84 78 70 75 82 66 54 45 36 54 71 87 89 88 80 67 45 21 20 22 30 31 32 34 36 35 39 41
91 80 88 94 85 67 45 34 30 44 59 68 84 72 74 98 85 93 95 92 86 83 74 77 79 75 64 50 43 68 24 39 52 60 62 54 28 21 20 20 26 30 32 35 38 41 43 41 44
89 79 94 96 84 60 45 32 31 38 46 66 77 79 71 85 96 98 95 92 80 78 76 90 87 72 71 50 80 65 35 19 16 16 15 15 21 24 22 24 26 31 34 35 38 41 44 44 45
96 94 80 72 79 75 54 34 33 37 43 64 58 82 84 86 90 99 99 94 81 80 84 91 85 70 55 50 84 77 59 32 22 19 20 46 25 25 24 27 30 32 35 41 42 44 42 42 40
92 89 80 69 74 78 48 39 33 32 34 34 45 91 82 95 90 99 100 88 81 84 86 92 83 64 48 45 77 88 82 55 31 25 25 28 27 27 27 28 31 32 34 36 38 42 42 40 40
86 92 84 76 72 70 44 43 41 34 41 50 57 52 53 87 87 99 100 89 89 90 85 89 82 66 57 49 53 88 95 81 51 33 27 28 28 28 29 29 31 33 33 35 36 37 39 39 39
90 82 72 59 63 60 54 48 44 61 79 79 75 65 66 59 77 75 98 92 84 97 95 88 81 77 62 60 52 64 95 97 66 58 35 29 28 29 30 30 32 33 34 34 35 35 36 38 41
79 85 60 60 59 80 64 57 49 67 88 67 80 68 63 58 80 70 69 82 95 94 99 100 87 96 77 60 49 48 70 89 89 70 46 36 32 30 31 32 33 33 33 32 32 32 32 36 45
87 68 68 58 62 94 79 67 59 64 57 59 66 56 63 75 76 57 54 59 100 97 73 90 92 99 98 81 45 47 52 72 82 73 54 44 40 41 42 41 41 43 42 41 42 44 46 50 54
81 74 66 65 62 85 90 83 66 58 74 70 75 68 60 46 47 55 47 53 88 88 71 66 83 91 90 88 66 53 50 57 68 75 70 49 49 50 52 46 40 40 39 40 47 53 55 59 62
71 70 66 72 69 71 93 82 77 64 85 98 68 84 70 90 97 81 72 58 51 69 50 53 57 76 89 82 77 53 58 52 60 68 72 63 69 71 61 52 49 48 47 46 48 53 59 69 72
66 83 72 76 77 89 90 86 90 84 78 100 88 78 95 98 92 96 80 74 67 57 46 38 50 56 72 79 79 65 56 60 54 59 52 62 66 69 67 63 60 56 54 52 49 53 65 72 75
88 83 94 78 76 86 85 98 88 81 75 81 98 59 92 85 73 82 77 61 56 49 48 53 50 54 54 74 79 83 74 64 54 54 64 69 73 76 76 74 71 68 65 61 58 70 77 82 84
89 89 91 85 79 94 88 92 86 79 76 68 72 79 75 73 73 69 67 57 58 60 59 52 55 56 71 71 79 77 82 82 83 82 82 83 82 83 86 79 79 75 68 76 78 82 87 92 94
96 94 95 92 87 84 90 85 75 80 80 77 64 64 69 61 67 63 61 59 57 57 66 54 61 68 70 64 55 68 58 74 69 70 75 81 77 81 87 80 78 77 74 78 84 92 97 93 90
89 86 96 91 84 90 91 90 76 83 82 82 63 58 55 59 69 64 62 63 61 60 59 59 59 62 71 68 69 61 58 60 76 79 81 81 80 82 83 80 84 86 88 88 87 88 87 87 89
79 92 97 89 88 87 87 86 78 81 84 81 72 56 53 52 50 59 67 69 74 70 73 71 66 67 69 72 77 62 72 78 75 60 72 79 80 89 87 85 80 83 82 86 91 92 91 85 88
80 78 86 84 86 84 87 89 86 86 92 86 69 63 54 51 48 48 51 65 71 69 77 76 78 80 80 73 85 80 76 72 71 70 55 78 83 84 75 77 82 78 77 84 94 89 84 97 87
87 77 70 86 85 93 80 93 78 76 84 83 66 60 53 51 48 45 46 46 46 57 66 73 77 77 79 77 77 77 76 70 70 64 70 82 78 73 76 86 72 81 79 76 73 78 95 85 56
91 78 81 78 91 92 97 96 71 72 85 72 61 54 46 46 50 46 43 42 41 41 43 54 68 73 74 74 78 82 91 78 72 83 86 83 76 76 80 83 84 79 78 75 67 68 58 38 36
80 84 88 96 92 96 91 78 66 70 64 56 49 48 43 39 48 48 46 44 40 38 38 44 43 47 68 71 71 71 72 71 76 77 79 84 84 78 73 80 79 72 72 68 67 39 36 35 34
78 98 99 98 98 92 82 80 69 53 49 44 47 42 36 38 41 47 45 43 41 41 39 41 40 41 43 59 59 63 67 68 74 71 76 78 86 88 82 68 62 62 75 51 37 34 33 34 36
90 77 95 94 96 93 81 87 59 41 45 47 43 48 47 42 42 42 42 43 42 41 39 39 37 37 40 40 50 57 62 64 67 70 72 78 88 87 80 70 64 75 49 37 40 48 40 39 40
76 82 59 70 65 84 82 57 36 40 46 45 42 39 40 38 36 35 36 38 42 42 38 37 37 37 42 43 42 44 42 44 53 60 67 69 76 68 65 76 76 47 40 58 66 60 51 47 49
73 58 70 81 80 65 68 62 49 45 46 47 49 46 37 35 35 34 35 40 44 44 41 39 38 42 45 44 43 42 42 43 42 48 66 68 64 66 80 74 48 41 57 62 60 63 57 49 54
73 70 70 72 82 73 71 52 41 45 41 54 55 48 45 40 38 38 36 33 31 36 44 47 48 48 47 47 47 47 47 46 44 45 61 80 78 75 61 46 42 57 59 52 58 59 50 53 58
76 72 65 79 72 87 78 57 55 53 48 50 49 46 44 41 41 39 39 38 36 34 31 31 44 53 53 52 51 50 48 48 50 56 63 67 66 61 52 54 59 60 54 58 52 53 52 54 58

GFSSGP_850_rhum_093.txt.gz
RH
78 68 79 70 75 83 76 63 46 56 60 62 50 66 61 77 50 48 94 99 82 74 86 88 69 78 68 54 45 80 86 76 61 60 58 73 80 89 79 73 48 20 30 29 35 45 43 31 31
82 78 79 80 82 84 68 49 44 54 53 58 56 55 71 70 90 91 94 98 89 76 86 85 72 84 74 43 50 81 90 82 69 72 71 74 88 95 75 54 26 24 31 30 36 37 36 36 34
90 86 78 90 82 68 58 41 37 42 60 74 79 65 69 76 85 87 88 98 88 81 82 82 72 80 74 53 43 81 89 99 87 79 78 90 94 82 57 31 20 32 30 35 40 38 40 40 38
89 90 83 78 76 61 50 36 31 45 71 73 66 82 71 75 91 86 88 95 88 84 86 78 71 80 70 66 60 87 87 98 100 99 98 99 87 67 43 21 27 30 32 37 35 37 40 44 43
94 94 85 81 76 66 52 42 37 41 62 74 77 77 84 79 92 90 88 92 87 87 84 74 83 81 64 59 45 71 89 92 96 97 100 83 59 28 22 24 32 34 37 39 42 45 47 46 46
89 87 89 81 67 58 54 46 41 37 59 72 69 72 70 68 86 96 85 95 86 85 79 81 87 72 61 43 40 38 66 77 86 87 81 68 34 25 22 34 38 39 38 41 45 48 49 48 50
87 84 78 63 60 54 59 54 46 35 55 73 69 70 75 66 66 98 83 93 89 81 76 94 88 71 59 58 68 38 26 33 44 49 38 32 28 23 24 32 39 40 41 42 44 46 45 45 45
86 76 69 70 64 64 51 56 46 36 36 55 66 78 89 68 63 85 100 94 82 80 85 91 85 66 59 91 67 70 40 24 20 16 66 25 26 26 28 29 34 39 43 45 42 42 39 38 39
84 87 80 69 69 58 52 55 51 46 42 51 66 57 54 59 65 85 99 99 94 89 96 90 79 55 52 88 87 84 67 37 27 25 27 25 27 27 29 31 32 34 37 40 39 39 38 38 37
83 84 66 50 53 55 53 55 53 52 47 61 60 65 58 71 74 84 89 99 94 99 100 88 78 54 47 60 87 86 90 67 37 29 30 31 29 28 28 30 32 32 33 35 36 37 38 38 40
71 84 55 50 49 61 62 59 54 59 65 50 64 71 66 61 70 88 75 99 94 95 95 94 80 70 65 52 65 92 92 79 58 44 31 30 29 28 28 29 30 31 33 35 36 37 37 37 43
81 62 63 60 56 60 61 85 64 72 56 60 67 50 70 67 70 71 84 83 98 96 82 90 78 84 77 70 59 63 86 94 82 63 54 36 32 31 31 32 34 34 34 36 37 38 38 41 50
70 58 59 64 65 67 69 78 84 76 52 52 68 70 64 66 63 64 63 61 69 95 78 85 72 91 86 68 53 53 62 81 91 82 61 49 48 44 44 44 42 41 40 39 39 45 50 52 57
76 65 70 68 60 65 77 72 83 73 69 55 59 73 66 60 53 61 74 59 57 68 84 72 73 69 74 69 61 49 56 60 84 89 77 59 54 57 58 56 47 45 45 43 48 55 54 59 66
66 89 81 70 65 67 77 74 71 83 79 65 53 93 72 61 48 47 51 56 55 55 83 67 62 59 62 72 69 54 54 55 56 70 78 79 70 72 74 66 59 57 56 52 49 50 57 66 72
93 94 92 74 74 89 68 71 78 87 84 72 64 62 94 82 79 66 47 60 71 70 64 62 56 56 43 52 71 71 48 50 61 58 68 64 71 66 70 72 67 66 62 60 54 58 65 74 78
90 93 85 92 73 87 84 84 80 88 86 81 82 83 65 100 98 94 49 52 59 76 54 55 50 42 42 49 54 62 73 69 49 51 59 65 72 80 82 80 77 79 71 68 68 70 79 86 92
90 80 76 80 86 78 96 95 89 84 84 88 74 80 96 77 73 68 60 60 69 70 63 62 50 43 44 50 61 65 67 66 69 73 74 79 85 88 87 84 85 84 78 72 80 84 92 94 87
81 81 83 89 85 83 86 98 90 76 82 84 80 73 86 90 84 96 86 84 77 63 68 53 62 55 45 48 73 60 54 54 56 63 76 79 82 86 90 88 90 86 81 77 89 89 84 89 78
84 84 91 92 82 81 91 95 87 75 84 87 84 69 70 84 85 78 75 90 90 81 74 63 58 56 55 57 72 69 54 56 51 59 76 77 78 74 87 90 89 85 88 91 89 89 87 88 89
86 83 91 93 86 79 83 100 90 79 82 81 75 71 64 62 76 79 77 71 68 69 58 60 63 55 57 65 64 67 48 59 56 66 74 76 76 86 81 78 83 99 100 88 92 92 96 96 96
87 81 70 85 80 86 78 92 86 83 78 76 78 71 60 56 56 57 68 64 66 68 58 58 67 66 64 66 71 70 74 76 74 76 82 87 80 83 84 83 92 99 98 89 86 84 85 80 77
83 80 79 82 89 83 88 92 88 78 78 72 72 68 58 49 52 50 51 50 53 60 64 68 74 89 79 85 88 97 99 80 68 87 87 87 83 92 91 93 98 94 87 84 84 81 75 77 40
81 84 87 86 88 89 88 85 60 68 63 65 73 64 59 51 46 49 47 46 46 43 43 46 51 65 77 78 78 81 79 82 71 83 83 84 76 93 88 97 93 94 92 76 68 74 74 48 33
82 97 98 97 94 90 80 74 59 52 45 47 58 51 60 58 44 46 47 46 44 42 42 40 42 44 44 58 73 72 73 76 75 78 79 82 74 85 91 89 90 89 77 72 70 67 39 41 51
97 88 88 91 92 97 78 87 59 45 48 50 46 45 45 46 47 46 46 45 43 42 43 43 44 44 42 42 48 65 66 68 65 69 72 75 76 80 87 88 76 81 80 71 57 48 62 57 54
86 82 60 71 69 83 77 55 36 43 45 45 48 47 49 47 45 43 41 42 45 44 42 40 41 41 40 44 43 43 51 56 57 56 64 71 76 81 81 81 79 82 73 47 52 61 57 55 58
72 58 68 82 78 75 62 61 54 47 50 49 50 54 47 43 40 37 37 43 47 46 44 41 41 40 41 46 48 48 48 44 42 42 41 60 74 78 78 76 84 77 51 50 57 56 56 57 57
74 69 70 70 78 65 64 52 43 50 44 56 59 55 46 40 40 41 40 36 33 35 41 46 47 47 49 49 49 48 47 47 45 43 43 48 76 80 87 93 83 57 48 57 63 60 60 55 50
78 75 64 74 71 80 70 56 53 59 47 54 56 56 52 48 43 40 40 41 40 38 36 34 34 45 52 52 52 51 50 49 47 47 48 53 77 89 92 81 61 49 58 64 60 57 52 48 48

GFSSGP_850_rhum_096.txt.gz
RH
94 95 83 72 46 45 42 35 29 28 37 34 52 52 50 48 38 46 97 85 92 99 99 89 72 60 59 49 39 68 78 57 55 62 55 72 82 88 76 68 29 21 37 75 93 94 27 28 25
100 96 79 68 55 41 37 28 36 28 28 39 53 56 57 51 76 80 93 94 100 99 97 97 68 64 61 42 60 80 75 57 66 57 62 80 87 86 76 49 20 34 83 84 43 32 33 30 30
94 96 67 53 56 45 32 28 31 27 29 46 52 67 75 60 75 84 83 88 100 100 100 97 78 74 65 40 77 89 76 65 64 65 80 88 91 83 67 26 41 50 71 43 36 39 38 37 35
83 85 74 67 44 34 32 24 25 26 32 44 46 56 68 63 80 97 87 90 99 99 100 78 78 78 62 42 82 94 85 75 78 79 84 94 94 71 39 25 63 35 73 48 41 42 44 43 41
85 72 54 50 43 30 26 28 25 25 27 46 48 45 56 60 59 96 91 98 100 100 100 74 75 77 61 46 79 95 94 90 87 88 99 98 94 60 24 33 39 35 57 40 44 44 45 45 46
70 57 52 46 33 27 27 35 30 30 28 30 48 43 56 51 52 70 96 99 99 100 97 92 81 79 61 50 72 90 98 99 100 99 100 70 60 32 22 36 37 40 40 39 44 45 44 45 46
72 58 51 36 28 26 28 32 35 34 30 31 46 44 55 49 37 55 84 96 100 99 99 89 91 74 60 38 67 85 92 95 99 99 90 69 37 23 30 38 38 39 40 42 44 47 45 44 44
65 63 60 43 37 29 20 30 34 37 34 30 45 42 49 43 43 47 54 99 100 97 100 87 97 80 58 66 37 54 72 80 86 79 70 32 24 24 33 35 38 38 38 40 41 41 42 43 41
64 73 62 45 38 33 24 25 33 42 38 33 38 51 55 47 55 49 57 82 98 98 100 99 100 94 88 96 63 38 27 33 43 49 32 32 30 26 31 37 38 39 40 41 41 39 38 38 40
59 58 46 31 29 31 30 30 31 36 42 42 39 56 80 64 66 76 72 79 89 93 99 100 99 90 96 97 81 65 39 32 66 69 40 85 46 51 54 33 37 39 39 37 37 36 37 38 39
50 62 34 35 34 35 38 37 36 42 41 39 35 41 69 100 97 87 85 79 81 97 99 96 96 89 94 99 85 83 92 83 82 92 93 91 65 31 34 36 37 39 38 38 38 39 39 39 41
57 41 41 38 38 43 43 45 41 42 38 39 40 58 87 100 84 73 82 68 98 97 100 89 82 90 87 99 98 92 81 93 88 64 46 36 41 36 47 62 51 40 38 41 38 43 39 36 43
50 42 37 40 39 43 53 51 51 53 55 52 45 48 74 94 84 67 59 68 85 89 100 86 74 60 71 76 98 95 88 86 77 64 39 33 32 33 33 35 36 36 38 39 41 42 46 45 51
39 40 40 39 39 45 49 50 59 54 72 77 65 54 61 77 80 66 54 48 72 78 98 92 84 62 62 55 50 67 92 84 82 82 64 53 50 42 42 45 48 46 46 43 44 47 54 61 66
56 54 53 51 46 54 48 63 58 54 63 74 69 55 59 79 69 50 47 49 58 89 82 92 81 77 71 57 42 44 50 69 83 88 76 65 61 59 54 66 56 52 52 49 49 52 56 58 64
79 81 83 50 47 51 63 60 36 64 79 76 76 59 59 78 63 45 40 52 73 83 75 83 81 73 80 74 59 42 47 50 54 79 73 70 68 68 78 81 73 68 63 57 54 51 53 73 79
62 98 99 73 50 62 66 55 41 69 65 77 75 63 66 77 84 67 53 61 80 81 82 66 78 73 68 68 72 61 46 45 56 53 54 60 64 67 70 71 78 75 70 64 62 56 69 85 92
88 71 56 61 66 64 76 84 59 62 68 81 73 73 65 74 86 87 72 79 83 76 69 71 82 73 65 76 74 67 60 66 53 49 49 51 52 64 77 82 87 85 80 75 69 73 79 93 95
88 76 67 83 66 68 64 71 67 57 66 82 74 82 71 78 96 91 92 84 71 71 74 73 67 68 64 79 74 71 63 58 64 65 69 62 71 80 83 88 94 94 89 83 77 86 97 90 96
85 68 73 88 81 70 78 81 62 58 59 82 72 89 91 84 98 100 98 83 75 84 76 82 68 62 68 75 69 71 70 61 58 61 62 65 80 84 87 93 99 98 96 92 89 94 95 91 87
69 50 75 82 74 65 71 92 91 76 82 82 78 77 94 100 92 88 99 95 90 93 84 74 68 64 61 61 70 74 69 78 66 71 69 75 82 88 88 90 93 99 99 95 94 91 87 91 90
62 51 58 83 74 70 56 94 100 90 88 68 70 70 72 96 83 78 69 81 81 79 73 74 68 66 68 61 64 74 76 77 80 82 84 80 73 80 92 87 96 93 100 100 100 97 94 87 80
65 60 62 65 67 57 70 90 97 82 70 63 65 72 65 67 77 90 94 98 91 90 81 75 70 68 64 67 62 78 88 73 70 62 62 74 74 93 90 91 90 90 100 99 97 86 87 82 70
76 64 65 69 65 70 88 99 94 70 52 65 64 68 72 59 64 63 70 83 88 80 80 82 80 73 69 67 72 75 91 78 67 68 70 77 90 85 90 98 90 98 100 77 76 74 75 79 75
77 64 83 76 83 84 93 92 66 45 41 46 57 58 65 67 52 64 59 52 51 48 47 47 50 52 66 78 80 81 86 88 93 87 86 78 89 88 82 86 79 76 78 80 93 88 78 73 70
89 76 72 66 67 79 72 83 66 42 42 46 71 51 56 53 51 56 53 52 53 50 48 48 48 46 46 45 51 72 74 78 79 77 79 78 79 83 87 88 95 84 93 83 86 77 72 44 52
80 68 50 60 55 58 62 45 45 45 46 51 54 53 56 51 56 62 51 46 47 47 46 46 43 47 48 45 45 45 59 63 62 66 67 68 72 78 92 100 94 92 90 81 81 72 51 60 57
66 51 59 62 65 71 50 51 60 48 44 47 45 50 56 58 58 56 51 48 49 49 47 45 44 43 42 42 45 49 54 54 52 48 49 53 69 74 88 99 100 94 91 87 68 50 63 56 56
60 54 52 49 53 46 51 50 37 41 43 45 47 51 55 59 60 52 44 40 39 43 47 50 51 51 49 49 51 54 54 49 47 47 46 47 56 76 92 99 90 91 84 69 49 64 62 59 59
65 59 46 50 54 57 42 49 40 39 43 46 54 56 57 54 44 41 40 39 38 38 38 37 36 40 52 54 52 51 50 50 49 47 46 46 51 78 94 97 94 92 74 53 64 67 61 57 53

GFSSGP_850_rhum_099.txt.gz
RH
62 81 69 64 51 40 39 30 19 19 18 20 27 33 32 32 32 47 83 81 79 82 95 92 93 67 58 56 44 41 56 33 46 59 68 62 83 85 79 60 69 73 57 82 42 25 25 25 28
76 72 66 50 51 44 31 20 22 18 19 21 36 40 41 37 52 62 79 79 82 80 99 98 89 60 56 51 37 68 81 50 56 61 62 68 86 88 75 47 33 43 87 92 42 29 27 26 26
80 73 54 43 48 48 31 18 18 16 20 21 29 40 42 41 58 68 89 84 80 92 98 100 80 61 58 45 49 79 75 58 65 65 60 77 89 86 70 23 41 90 97 39 31 32 31 32 33
63 57 53 48 38 29 28 20 14 17 20 20 31 35 54 58 59 76 87 88 83 93 98 98 73 65 61 41 74 84 69 57 72 64 72 84 93 84 50 33 92 89 69 36 35 34 34 35 36
62 51 47 37 37 28 19 19 18 18 20 20 23 33 39 53 57 71 88 72 91 93 92 96 76 73 63 44 84 83 67 61 67 76 88 88 91 68 62 72 75 94 92 39 40 39 39 41 42
52 42 45 37 28 21 19 17 18 19 19 19 20 29 33 43 71 66 47 66 89 93 95 96 78 80 60 48 85 89 70 74 83 86 91 96 87 47 34 72 82 98 51 43 43 44 43 45 44
52 43 40 30 26 20 17 16 17 20 19 20 20 25 31 42 58 51 43 56 96 96 95 99 75 85 64 48 86 95 85 85 88 92 100 100 81 34 66 72 91 95 42 45 45 45 45 44 44
48 43 46 36 33 27 17 14 16 20 20 21 21 24 33 40 41 55 45 60 99 100 94 97 96 91 84 66 86 98 96 97 98 99 98 80 53 31 55 72 90 90 50 48 48 45 42 41 40
49 52 49 38 35 29 20 18 15 18 20 22 23 25 33 47 60 58 64 54 60 76 93 97 96 98 92 87 80 92 99 100 100 100 81 45 29 39 61 73 71 62 50 47 46 43 42 40 38
50 50 44 27 24 25 21 19 18 18 20 24 27 28 34 66 79 68 60 60 54 64 74 94 94 90 81 89 53 62 82 97 99 93 78 73 64 83 91 49 46 44 44 47 47 44 41 40 52
44 52 31 27 25 24 24 23 21 22 22 22 25 29 42 66 84 80 69 69 67 67 82 80 99 86 79 93 76 79 62 77 86 96 94 83 84 80 93 44 46 47 50 50 44 41 40 62 71
43 37 34 32 29 26 28 28 30 30 26 27 23 26 42 55 80 98 64 68 71 75 72 68 100 84 75 88 84 79 70 74 82 88 82 82 86 93 92 52 44 44 42 76 63 76 73 57 64
42 35 34 33 32 32 30 32 39 30 33 40 31 37 52 61 80 98 75 67 52 52 70 94 99 84 86 89 86 79 72 72 75 84 84 86 86 82 84 82 81 78 71 76 71 68 70 61 75
50 44 37 35 34 32 33 30 31 38 39 42 49 51 52 62 68 96 92 61 58 63 76 84 98 85 81 87 92 93 85 79 84 83 81 81 81 81 80 81 80 77 62 68 72 76 81 81 82
59 54 42 39 36 34 31 36 35 35 38 41 48 52 57 51 69 89 76 53 46 56 62 74 100 76 87 90 98 95 90 96 94 96 94 90 76 78 54 86 63 57 50 59 64 81 83 80 81
56 52 65 38 35 40 37 56 32 31 36 40 47 54 56 47 68 82 80 72 59 58 49 68 92 75 85 95 69 86 92 98 88 94 92 78 53 47 43 49 53 51 49 51 75 82 82 77 79
47 66 68 71 45 40 44 60 37 31 48 48 50 55 56 52 59 74 96 85 71 67 67 75 83 76 71 94 93 91 82 82 87 90 91 90 62 56 59 65 73 66 64 63 84 82 76 73 82
57 66 57 92 51 43 50 60 45 54 49 50 60 57 54 52 62 73 81 92 95 70 81 72 78 76 74 95 95 98 94 79 62 54 60 88 79 81 74 77 91 98 89 82 90 86 76 79 79
51 62 70 85 84 48 54 57 44 37 44 51 59 72 56 56 67 73 88 95 95 83 74 76 85 84 86 87 90 96 98 72 59 62 61 62 68 85 91 80 89 97 96 96 88 84 81 90 88
61 64 64 66 66 55 53 49 41 42 43 46 61 67 67 70 84 98 88 94 96 80 77 70 71 66 80 79 84 81 89 91 87 73 70 70 72 69 86 87 96 100 99 94 94 90 90 91 90
64 66 58 83 86 64 66 74 65 59 62 54 67 63 79 75 93 86 97 99 98 86 88 81 85 84 88 86 82 85 82 88 99 98 89 84 87 93 88 90 92 94 97 97 99 96 90 93 90
88 42 57 87 98 92 57 86 92 92 70 62 64 75 88 100 90 81 99 100 100 96 74 82 82 87 80 89 85 80 77 81 73 81 86 80 78 83 85 82 82 87 85 100 98 89 98 90 90
67 44 69 68 64 89 69 67 99 93 85 75 79 85 100 99 87 88 71 95 92 98 96 90 89 92 88 90 91 85 83 86 90 87 80 75 80 82 82 80 79 87 91 90 96 90 91 95 82
71 60 56 60 70 95 96 99 100 99 95 86 68 75 92 98 96 99 87 94 90 92 88 81 86 84 89 84 89 82 76 75 87 95 96 76 73 74 70 75 64 67 96 98 88 72 77 89 90
81 60 92 93 88 94 97 98 100 76 77 73 74 71 71 76 84 88 92 96 94 83 80 83 83 80 81 79 82 84 85 86 82 82 84 88 84 79 84 80 66 71 87 96 77 81 82 95 90
81 86 96 66 81 91 82 96 100 60 59 69 72 69 84 82 79 70 68 72 70 62 60 56 56 56 57 64 82 83 84 86 90 94 90 89 82 85 80 86 79 88 92 90 85 92 97 91 77
62 70 45 52 42 53 83 98 77 69 64 74 66 70 64 71 75 71 60 64 64 57 53 51 50 50 48 48 47 46 57 74 78 78 83 83 76 74 77 85 98 98 97 98 99 100 97 80 72
80 49 70 63 61 63 75 87 93 90 75 75 78 64 57 59 58 60 62 68 65 59 55 51 50 48 49 48 46 47 48 59 68 72 72 67 67 62 66 73 99 100 100 99 100 95 86 82 50
59 50 43 41 47 41 56 88 40 47 59 48 50 53 56 54 55 58 63 63 68 58 59 60 57 54 54 55 56 60 63 64 60 55 50 50 53 53 65 69 88 98 100 100 99 87 90 54 60
57 47 40 46 45 42 44 62 33 39 40 44 48 48 49 49 49 49 49 49 47 47 45 42 43 45 54 60 59 57 55 53 52 51 50 48 48 50 63 84 100 100 100 97 95 89 61 57 60

GFSSGP_850_rhum_102.txt.gz
RH
40 66 64 60 71 63 59 48 31 29 23 15 17 25 34 30 54 78 74 73 89 79 78 79 81 69 64 54 48 43 37 52 58 71 68 66 82 83 68 78 76 70 81 48 37 23 31 36 36
74 71 62 55 70 69 49 32 32 26 20 16 19 31 38 37 52 73 79 66 78 86 77 85 89 75 67 54 48 34 31 60 57 67 67 66 83 85 68 78 77 67 78 32 23 23 25 26 27
30 71 62 62 64 70 48 29 23 18 17 16 22 35 36 37 55 76 84 70 84 86 75 82 88 72 60 54 43 46 63 62 57 63 63 64 81 86 69 46 54 74 74 27 27 26 27 29 30
62 58 58 62 52 42 42 31 26 22 16 16 18 42 44 43 59 76 69 84 86 85 80 81 85 67 58 53 38 67 78 59 61 68 66 76 84 76 63 29 59 94 40 30 31 32 33 34 36
62 56 62 56 49 37 28 24 25 23 20 17 19 33 42 40 57 68 75 88 75 86 83 90 89 64 59 52 50 76 73 55 70 73 69 85 88 78 37 74 96 57 37 35 35 34 36 37 37
58 48 62 58 45 29 24 23 21 20 18 18 19 20 27 35 36 55 66 85 92 91 85 88 95 72 71 53 68 85 68 57 75 65 76 90 97 77 41 93 68 94 46 41 40 40 41 41 41
61 61 58 42 35 28 23 18 19 19 18 18 18 22 18 37 38 40 56 74 87 82 94 88 94 80 72 48 72 88 68 63 71 78 91 94 93 76 90 89 99 96 41 42 42 42 43 43 42
48 57 59 50 45 37 22 18 17 16 18 16 18 22 22 25 50 47 45 54 74 74 94 100 99 80 75 49 71 93 73 69 78 93 94 100 89 58 94 94 99 98 54 47 46 44 44 42 41
46 66 64 50 40 34 24 25 22 19 18 15 17 19 22 36 48 42 60 58 60 70 89 98 98 100 90 58 60 98 90 81 88 99 100 100 82 91 98 98 100 98 70 50 48 45 43 40 38
55 65 57 35 29 29 24 24 22 21 19 18 16 19 20 30 43 53 58 60 52 57 66 90 88 83 100 84 52 91 97 95 99 99 99 79 54 74 98 96 99 99 88 49 49 46 43 39 40
49 66 46 41 34 30 28 26 24 24 26 20 20 19 19 30 50 64 56 47 58 50 46 49 60 88 72 92 63 78 100 99 100 99 81 53 53 73 96 92 98 74 44 47 46 45 40 45 58
46 37 37 37 35 34 34 30 28 25 25 28 27 32 30 31 36 46 70 63 59 57 50 60 58 64 74 89 73 74 91 100 95 100 72 90 77 78 76 55 47 45 47 49 46 43 45 48 57
52 46 38 34 34 34 34 33 32 30 31 32 33 33 40 42 62 66 60 58 64 61 61 59 61 65 77 100 69 60 72 76 93 83 78 84 85 78 75 51 49 49 48 54 69 73 74 56 50
53 50 50 48 46 35 35 34 32 31 28 32 36 35 41 60 48 63 69 68 66 67 64 69 65 65 80 100 80 69 69 77 80 71 81 82 88 68 88 74 62 66 65 74 64 54 68 76 73
65 63 59 53 44 45 37 45 40 31 28 28 34 36 42 63 49 52 70 80 77 72 75 82 73 88 96 97 76 76 70 73 84 86 84 86 83 82 81 76 55 48 43 43 47 59 76 78 80
67 70 86 49 43 41 44 62 39 31 27 27 33 36 46 61 54 49 71 58 100 85 71 80 91 73 74 98 85 77 83 78 80 81 83 79 74 66 53 54 44 39 41 44 41 47 69 73 75
67 88 81 67 45 48 49 58 45 34 30 28 29 47 48 57 56 61 63 74 83 88 87 72 74 52 62 76 99 97 81 84 83 88 77 86 65 56 41 44 52 54 52 52 57 67 78 65 73
80 81 64 61 59 81 64 59 49 38 37 43 46 54 53 53 53 57 62 71 85 88 79 72 76 63 61 67 71 78 83 98 88 77 88 90 64 54 53 56 71 79 72 71 74 80 80 72 77
69 76 77 54 48 90 68 56 49 54 76 53 56 58 69 56 53 60 64 60 84 98 84 79 77 73 61 76 69 73 78 76 77 98 96 96 99 86 72 78 82 89 85 82 83 84 81 74 84
92 84 70 53 65 85 65 56 50 56 80 56 47 53 65 67 59 60 78 79 81 100 93 85 83 80 79 68 77 78 79 85 82 85 88 91 92 92 96 92 88 88 93 97 97 88 85 82 81
76 74 62 82 90 67 74 77 64 50 61 57 52 56 59 76 82 83 82 78 80 91 96 84 97 89 80 79 84 89 88 90 90 91 90 94 84 86 86 90 85 92 96 92 94 95 89 87 88
78 56 59 95 98 100 72 96 82 85 84 72 56 61 64 88 99 93 86 88 85 99 99 100 86 88 80 84 82 88 83 85 80 84 87 82 87 83 81 73 90 90 90 86 86 89 92 88 86
71 65 76 80 92 100 98 91 98 95 86 70 73 69 89 100 84 86 92 95 100 99 92 94 86 89 86 85 96 94 88 82 86 86 94 84 84 85 76 88 88 82 76 71 70 76 80 85 87
69 78 69 68 84 99 100 99 100 100 98 87 89 100 100 93 98 91 93 97 100 99 90 98 84 84 68 83 89 85 83 81 79 87 89 85 84 86 83 85 82 75 71 66 75 90 94 84 71
84 94 97 98 99 98 100 98 100 98 87 87 94 100 100 93 97 99 89 90 96 91 88 84 89 94 92 84 79 84 89 89 86 79 90 84 78 74 88 90 88 82 73 69 66 53 78 90 72
94 96 99 97 97 99 78 98 100 92 89 86 98 100 99 97 93 90 92 98 93 77 78 82 90 88 92 79 94 91 87 93 89 84 76 70 73 86 84 85 90 90 92 86 86 55 92 96 94
85 92 56 98 77 97 100 100 96 88 88 76 82 98 99 89 76 71 72 71 72 77 78 70 63 63 63 62 68 83 100 99 98 72 79 90 83 90 87 79 82 83 84 85 85 77 89 95 93
89 65 77 86 96 96 91 91 100 99 92 81 75 83 86 84 84 79 75 67 70 67 64 61 60 61 62 63 67 62 61 72 93 92 77 77 70 75 74 72 70 70 94 90 89 89 94 100 100
74 62 55 50 59 71 86 97 80 87 73 75 78 70 59 60 69 69 69 67 73 70 65 61 59 59 57 55 54 56 59 64 70 73 74 74 69 68 64 64 68 71 93 99 100 100 99 100 99
60 52 46 78 62 68 86 92 55 52 53 56 58 55 61 51 49 50 51 52 52 49 47 45 44 45 51 55 55 55 55 57 56 56 55 50 50 49 50 53 60 82 97 99 100 100 99 100 93

GFSSGP_850_rhum_105.txt.gz
RH
30 54 66 68 82 89 90 75 50 48 35 23 20 20 34 44 46 62 76 72 71 76 77 70 54 55 52 48 45 44 43 55 65 68 65 64 88 78 63 51 83 85 67 58 32 41 42 34 42
34 66 66 64 91 95 80 54 48 40 29 24 22 23 39 57 67 72 73 71 78 85 80 75 69 64 60 54 48 46 44 55 60 70 69 62 88 77 74 62 82 80 46 34 25 31 32 32 34
29 70 67 83 90 87 78 42 38 30 26 24 21 32 38 66 76 81 76 60 57 83 82 78 79 70 66 55 49 42 33 56 57 66 69 67 86 77 79 74 77 80 36 23 24 26 27 29 30
68 58 64 83 84 67 58 51 39 34 26 23 22 43 43 60 69 64 58 53 56 82 83 81 82 71 66 54 48 36 42 61 53 63 68 70 86 80 81 74 64 74 28 26 26 28 31 33 35
64 63 85 86 72 54 44 39 36 34 28 23 20 42 43 56 58 58 54 53 58 78 84 88 86 73 57 52 46 41 70 65 64 64 68 72 86 84 66 58 61 65 29 30 32 34 35 36 37
62 58 86 92 72 49 39 30 28 27 24 20 19 23 36 59 40 42 45 54 70 74 89 95 93 82 59 51 44 59 77 64 63 70 68 73 86 76 48 74 74 49 32 34 35 37 38 38 41
66 77 82 68 57 44 36 27 26 24 23 21 18 22 19 47 55 54 60 62 65 75 93 97 100 88 73 61 46 71 82 62 69 77 70 82 94 76 39 77 83 37 36 37 39 41 41 40 42
49 67 71 67 67 57 35 29 26 26 26 21 20 23 21 32 52 48 50 55 64 69 82 76 99 97 86 66 52 79 86 58 74 79 78 94 99 84 43 53 91 48 40 39 41 43 43 41 42
52 76 83 64 55 47 32 31 25 25 24 22 21 19 20 32 46 50 53 56 60 64 72 75 97 98 86 76 80 87 89 66 80 75 91 100 97 88 95 96 97 56 44 44 44 43 41 39 39
62 83 63 47 43 43 38 34 32 28 27 26 23 20 37 47 48 46 52 55 53 54 64 74 96 99 97 92 82 99 94 77 77 80 99 100 100 82 95 98 99 84 44 50 47 44 40 37 37
57 73 52 50 46 44 43 39 34 33 33 27 26 27 29 35 59 49 40 47 53 53 57 61 67 93 90 86 82 86 98 93 86 90 100 94 100 97 94 99 97 99 60 46 48 44 40 39 45
60 45 45 44 41 40 40 37 36 34 32 29 29 30 31 38 52 74 44 34 40 44 60 58 54 71 74 72 83 75 95 99 94 96 100 100 94 91 99 99 99 88 41 47 48 45 40 43 47
68 56 50 49 47 44 38 38 38 36 32 30 29 29 30 35 40 50 67 64 55 50 49 59 60 57 50 62 68 88 86 99 99 96 100 84 53 81 98 92 63 44 45 46 45 43 45 47 44
65 65 62 56 55 54 56 52 38 35 32 30 29 30 28 33 37 46 54 64 64 62 59 58 60 55 53 57 58 82 98 90 100 100 90 74 49 63 79 64 46 45 45 47 44 44 45 48 46
68 84 71 61 57 61 52 59 53 40 34 32 32 31 29 32 34 46 54 51 60 62 68 66 61 56 82 83 55 79 100 94 93 90 76 79 79 76 70 50 46 44 45 49 50 57 57 59 68
77 75 95 57 54 56 56 69 45 38 37 34 32 30 28 29 35 42 60 59 54 64 75 79 75 75 91 84 64 96 94 76 82 80 86 80 89 86 60 56 44 46 51 58 53 52 59 72 81
78 93 90 76 54 56 59 71 53 43 38 37 34 32 28 34 44 45 51 60 56 64 76 66 78 99 89 77 69 90 89 78 84 81 86 86 87 77 82 72 66 55 52 51 49 54 61 71 75
84 90 76 78 62 59 67 80 66 48 44 45 63 61 40 40 44 37 46 66 59 57 59 70 92 100 81 70 63 85 95 77 76 84 84 87 85 77 76 67 58 54 57 53 54 59 70 68 64
83 88 88 75 63 72 74 79 77 53 57 69 62 64 50 46 46 44 50 65 68 82 80 73 84 99 89 76 80 84 100 90 85 78 82 84 72 68 71 66 74 70 65 62 64 65 71 73 72
74 90 92 74 62 90 88 82 63 56 61 62 66 67 47 46 56 56 62 65 68 80 72 83 87 98 86 81 94 90 91 89 89 85 82 75 78 82 76 73 83 81 80 83 80 76 74 73 74
90 89 84 81 70 84 88 90 76 58 61 55 56 59 53 53 54 63 65 67 76 83 78 94 96 99 82 88 96 82 78 79 77 66 85 86 89 94 82 84 88 88 84 82 83 84 84 81 80
95 64 64 86 98 98 94 95 91 90 88 76 73 66 56 52 71 68 69 70 82 90 85 77 100 100 91 90 89 90 87 79 84 77 68 73 79 80 91 92 90 83 83 84 83 80 74 81 80
79 76 87 86 96 100 89 99 98 96 88 85 83 68 59 74 90 91 82 71 79 75 85 84 99 98 98 91 88 92 87 87 86 81 82 77 74 78 84 84 84 85 84 74 77 66 76 77 75
73 84 85 82 90 98 100 100 99 100 96 87 81 71 81 100 96 94 86 72 85 91 92 99 100 100 100 100 100 97 86 85 82 79 83 84 78 81 84 84 77 78 66 70 80 74 70 71 74
90 95 96 98 98 98 100 97 99 99 88 82 94 100 99 100 99 90 95 86 100 100 100 100 99 99 95 97 93 92 85 85 80 72 81 94 92 84 89 86 87 92 90 82 78 74 76 80 76
86 98 99 96 97 99 99 98 98 95 97 99 98 100 100 100 96 90 98 100 100 98 95 100 94 87 94 89 88 89 88 80 76 73 81 78 77 71 79 77 87 85 80 78 89 86 97 84 91
88 100 94 99 100 98 99 100 98 86 94 95 99 100 100 99 97 96 100 97 91 91 91 80 78 86 82 80 78 74 83 83 80 80 87 89 83 76 73 87 91 79 77 88 90 92 89 86 88
93 80 98 98 97 96 96 98 98 100 96 92 94 97 99 95 93 91 92 85 86 85 81 78 73 72 71 73 86 91 87 85 89 95 81 78 80 84 81 82 88 84 82 88 97 99 97 96 88
88 78 68 61 72 84 93 98 98 96 84 87 77 71 90 84 87 81 79 79 80 78 76 77 76 73 73 76 81 87 86 88 90 90 93 82 71 68 69 76 79 79 83 99 100 100 100 98 97
64 70 53 83 65 84 90 99 84 84 81 74 81 54 53 58 55 58 56 52 50 49 48 49 52 54 59 61 63 62 62 61 60 62 62 62 60 59 59 62 66 79 99 100 100 100 100 100 100

GFSSGP_850_rhum_108.txt.gz
RH
25 57 62 65 85 91 94 85 61 56 38 29 27 25 27 27 48 58 75 74 74 74 59 44 48 47 43 40 42 48 56 61 64 65 60 77 84 73 46 74 86 89 86 50 76 80 35 38 45
35 63 62 65 90 93 81 69 62 51 36 32 26 22 38 53 77 74 79 75 72 75 72 57 47 46 43 42 41 40 42 57 63 68 64 65 86 68 56 85 88 92 52 29 36 34 39 44 55
58 64 61 85 92 91 82 52 50 38 32 29 26 21 41 73 77 70 60 57 60 79 80 74 57 56 55 52 49 47 44 56 58 70 67 61 85 70 58 78 86 51 34 25 30 32 36 44 56
46 64 66 91 95 77 68 55 44 40 34 27 24 30 39 68 60 61 60 63 64 68 81 76 77 67 65 58 52 48 44 61 58 62 74 66 85 77 76 68 88 51 24 25 27 28 31 33 42
63 63 84 93 89 70 52 45 42 41 34 28 24 24 22 60 68 55 52 48 55 68 81 82 87 86 74 62 49 44 36 60 61 59 75 69 84 80 82 60 73 49 23 25 27 30 33 35 46
65 65 92 92 76 59 50 35 36 33 28 25 21 23 19 19 59 66 60 53 60 65 81 80 89 94 71 57 49 37 51 64 59 52 74 67 82 87 81 60 50 48 27 29 32 34 36 38 43
71 83 84 76 68 58 45 32 29 29 28 26 23 24 19 24 52 60 69 62 58 67 70 86 91 95 75 60 53 51 67 69 63 58 75 70 82 88 74 43 50 42 31 32 34 36 37 40 43
54 71 78 78 73 61 42 36 32 29 28 25 23 25 22 24 46 56 63 71 66 59 57 78 84 85 79 78 76 82 80 80 64 68 83 75 88 88 63 43 44 42 34 35 38 40 41 42 43
54 75 92 68 60 55 36 41 33 32 29 30 25 25 42 66 53 62 59 62 68 66 57 66 72 78 83 79 74 88 91 84 66 77 86 82 98 87 70 52 57 41 38 38 40 42 43 43 44
63 86 72 54 47 48 46 45 41 38 35 33 29 25 25 27 48 60 56 58 62 62 59 59 66 70 84 79 80 98 100 95 68 86 86 91 98 99 79 80 96 38 37 41 44 44 42 41 41
62 81 54 50 47 47 51 49 42 38 40 32 31 30 28 28 37 44 62 60 58 57 63 59 62 71 81 77 77 94 98 99 87 82 82 99 99 100 87 88 98 80 46 45 44 42 40 38 37
64 51 53 50 44 46 47 40 39 38 38 35 33 31 31 29 32 36 65 71 62 58 64 60 65 67 73 81 72 66 72 83 100 81 86 100 99 99 83 93 98 77 45 43 44 42 40 39 44
72 64 58 54 55 57 54 55 49 42 38 35 30 28 31 28 29 33 36 52 66 64 72 70 61 68 68 70 72 70 61 61 80 97 95 100 100 96 85 98 99 90 51 44 42 42 40 40 45
67 68 68 64 60 58 60 57 55 50 41 36 34 32 30 31 29 29 35 48 58 68 66 66 62 61 60 57 55 55 47 57 63 100 97 99 100 99 83 92 98 96 45 44 44 41 38 44 45
67 83 72 72 69 68 58 71 66 47 48 45 41 36 34 32 31 28 33 40 53 55 61 56 60 67 64 58 51 49 52 49 55 96 100 99 100 83 81 66 80 71 50 48 45 45 52 53 54
85 78 96 59 61 58 63 75 52 42 42 43 41 38 36 35 32 26 30 39 53 54 51 52 55 68 67 66 62 60 56 74 57 67 100 99 85 56 65 63 54 50 54 52 49 53 48 51 64
82 91 93 82 59 61 63 73 53 49 46 44 41 39 37 36 33 29 32 42 55 53 53 54 66 68 72 70 79 80 78 82 48 75 93 99 83 71 76 49 69 52 56 52 48 52 53 60 64
76 89 82 81 63 63 75 76 60 56 59 57 43 40 38 37 34 32 28 38 47 54 57 54 64 64 81 84 85 93 98 76 78 70 81 96 91 73 66 69 63 64 65 58 53 55 57 56 66
85 94 96 77 63 75 81 82 72 66 68 63 52 46 45 44 33 30 33 47 48 69 66 58 61 63 74 95 88 99 100 95 81 70 78 86 91 95 86 77 82 75 61 58 55 58 56 65 72
88 91 77 70 67 86 82 80 70 62 66 58 55 54 57 47 33 40 43 46 52 62 61 68 73 68 87 68 88 79 85 87 93 89 83 87 93 86 85 88 83 76 66 63 57 56 65 72 74
81 83 84 89 72 81 89 92 85 68 62 55 58 53 63 59 46 47 56 54 60 69 68 76 75 78 92 76 87 89 92 94 80 86 86 91 90 86 78 76 71 68 70 68 72 72 72 76 76
90 59 78 80 92 92 83 94 87 89 88 79 74 66 54 55 54 54 56 58 69 69 70 81 78 94 92 92 96 100 96 97 92 87 90 90 87 86 68 65 67 72 77 80 80 82 85 85 78
79 72 85 89 93 99 89 99 82 88 83 84 83 68 61 59 62 57 74 66 71 69 81 74 76 72 86 97 92 99 100 92 81 87 89 89 86 85 83 83 77 85 94 86 80 80 81 82 78
76 89 88 90 96 99 93 100 96 100 97 84 80 79 65 73 77 94 78 71 65 71 76 90 82 98 100 98 100 100 94 92 91 85 79 83 84 89 93 90 91 85 86 89 85 82 81 81 83
84 95 97 96 98 95 100 100 99 97 88 84 82 94 87 93 100 98 100 85 89 93 96 98 95 95 100 96 98 100 100 98 96 91 90 86 84 86 87 88 78 76 80 74 71 67 79 77 77
88 94 98 96 97 97 90 97 97 95 95 91 100 99 98 100 100 100 100 99 100 100 100 100 100 100 100 100 99 100 99 97 97 92 91 90 88 87 86 84 87 91 89 83 84 86 80 78 78
88 100 96 100 100 99 98 100 100 92 92 95 99 100 100 100 88 100 87 100 98 99 99 98 95 88 88 86 91 93 81 89 90 84 67 71 92 94 94 89 78 78 92 94 88 79 83 89 88
92 89 100 99 97 96 88 98 98 100 96 93 96 98 100 100 100 98 95 90 88 92 94 93 89 83 85 84 89 82 83 79 76 75 84 93 92 97 95 92 88 84 96 96 88 82 90 96 93
95 100 92 77 87 96 95 98 100 99 92 86 95 99 100 99 92 93 93 92 90 88 86 88 83 78 77 82 85 86 85 98 99 98 100 100 99 98 99 99 90 88 85 88 96 89 89 89 95
66 73 65 80 86 85 96 99 93 93 84 66 68 89 70 88 63 62 59 58 58 59 61 66 71 71 71 70 69 67 67 68 68 68 68 66 64 62 62 63 69 80 85 97 99 99 98 99 100

GFSSGP_850_rhum_111.txt.gz
RH
30 56 68 62 76 90 90 81 68 55 43 34 30 27 29 25 30 54 66 69 69 52 51 50 58 57 60 56 61 61 69 64 61 61 60 67 78 71 42 80 90 85 77 82 94 54 34 43 55
55 56 64 63 85 80 59 73 66 63 44 32 27 24 29 43 60 56 68 68 70 62 45 40 49 54 57 57 57 56 60 64 66 64 65 78 80 62 61 82 94 96 56 56 69 30 33 40 42
58 62 57 85 91 85 62 60 59 41 33 30 28 24 32 59 72 55 58 68 75 74 58 46 45 51 47 43 44 45 53 59 62 69 62 67 83 62 70 85 90 68 42 28 28 34 35 42 47
65 61 63 88 97 78 65 53 49 48 35 30 26 28 22 30 70 70 61 53 75 80 71 62 50 46 46 45 45 44 47 57 58 69 66 65 86 65 72 81 77 44 26 31 32 37 42 44 43
58 58 82 92 88 78 59 50 43 44 37 30 23 25 23 35 59 66 67 61 54 70 81 74 58 56 58 57 53 48 46 64 57 60 74 70 87 80 62 69 80 30 25 31 32 32 35 36 39
63 66 82 80 78 64 55 46 38 36 31 27 24 24 20 24 66 66 65 66 72 83 85 82 80 72 69 66 58 49 43 46 58 62 67 71 82 88 77 62 80 31 24 27 29 31 32 39 43
74 81 78 78 72 62 54 37 33 31 33 28 25 27 22 21 39 71 65 67 70 81 90 91 93 93 88 76 58 48 40 47 62 62 65 72 79 91 82 65 61 35 25 28 32 34 36 41 44
61 74 82 77 70 60 42 37 33 30 30 28 25 27 31 35 47 60 71 69 69 72 80 88 99 99 85 70 62 57 70 60 68 67 64 77 81 91 87 72 56 48 28 31 34 36 37 40 46
52 74 85 70 73 58 42 47 37 35 33 33 28 26 40 30 36 66 80 73 69 70 74 79 82 82 88 72 66 56 74 84 78 74 69 78 85 96 92 71 48 58 32 33 36 38 40 42 44
60 81 67 59 50 49 49 49 47 43 39 37 33 27 26 27 28 38 54 73 77 70 65 66 66 73 76 78 67 63 77 87 88 77 79 82 87 99 89 70 45 53 37 36 39 41 41 42 42
68 77 63 51 48 49 53 48 43 42 45 37 33 32 32 28 24 27 40 60 70 74 72 68 63 64 74 74 71 62 61 98 87 82 83 89 92 98 85 75 60 49 38 41 42 43 41 40 40
65 57 57 56 49 53 55 48 50 46 42 38 36 34 32 31 28 25 31 40 54 74 77 68 66 75 75 78 77 69 56 97 93 76 93 93 97 97 94 86 62 45 36 41 42 43 41 38 37
71 66 61 59 61 61 58 63 59 56 47 33 32 36 38 35 32 28 27 34 40 64 68 71 70 73 81 81 82 72 56 69 73 73 83 98 99 98 96 94 66 56 43 41 44 42 40 38 41
72 73 71 66 64 66 67 62 59 50 45 45 41 35 34 36 35 30 26 29 35 54 70 68 73 72 74 76 78 74 67 64 57 54 57 85 95 94 96 93 69 71 56 47 49 44 42 39 44
72 82 77 70 68 75 64 77 73 36 42 46 43 39 38 41 39 34 27 26 33 48 60 69 65 64 69 76 72 67 56 63 70 52 56 63 94 99 95 94 72 68 61 50 58 51 46 40 45
85 78 96 55 68 61 60 76 55 43 44 46 41 41 41 40 40 36 34 26 29 39 52 56 60 57 57 60 62 62 60 56 50 63 58 68 83 93 100 98 85 63 85 58 54 54 46 44 50
79 92 91 80 62 61 70 78 58 50 47 49 49 47 46 42 39 39 36 28 26 36 51 49 49 50 51 61 64 62 62 63 62 60 73 77 72 99 100 100 86 81 78 63 53 54 56 54 51
77 88 84 90 64 63 72 73 60 56 60 59 56 55 56 53 38 38 36 28 26 35 54 55 58 59 62 68 71 68 68 66 72 64 72 88 87 91 100 95 90 84 70 62 65 55 66 61 56
82 92 85 78 67 72 80 79 70 60 64 73 67 62 57 46 40 41 39 30 32 36 47 51 61 58 71 73 71 66 62 67 86 88 78 92 93 77 92 90 77 77 91 51 60 58 67 68 66
78 85 76 72 66 73 77 83 70 64 69 66 65 58 52 49 48 50 41 30 33 42 43 47 61 65 62 69 78 81 79 90 99 94 88 92 83 67 88 75 59 60 55 54 67 66 63 67 72
80 85 70 75 74 71 85 91 84 70 73 68 62 56 51 48 50 45 33 36 45 44 47 60 68 68 71 68 81 85 88 88 98 99 99 94 93 85 78 80 75 74 73 72 70 68 69 70 68
88 60 63 66 93 90 74 92 71 90 84 79 74 70 66 54 52 52 44 48 58 47 52 70 77 82 77 72 84 81 85 79 83 95 98 95 85 83 82 88 86 72 82 79 66 74 74 71 77
82 74 88 91 97 98 80 96 81 91 89 87 87 70 69 64 63 60 55 55 56 56 68 76 85 78 76 83 86 92 90 86 82 92 87 99 100 99 93 88 92 86 83 77 78 81 85 86 85
77 88 89 94 96 96 90 98 92 96 96 92 84 75 80 62 58 65 58 61 59 61 66 74 86 80 79 82 76 90 96 96 97 96 92 92 96 94 96 92 88 74 68 63 62 72 83 88 89
88 96 96 90 100 93 100 100 96 96 90 90 89 88 100 93 92 95 96 64 74 70 72 77 83 82 57 75 98 99 91 96 99 100 99 99 94 93 93 87 87 81 78 78 79 76 85 82 77
88 89 98 96 100 95 97 98 99 95 92 99 100 95 94 99 99 100 93 78 71 77 73 68 89 91 96 100 100 100 100 100 100 100 99 91 87 84 86 89 93 94 94 90 87 87 79 72 78
88 100 95 100 99 98 98 99 97 90 89 94 98 100 100 94 96 100 96 100 100 99 99 99 99 100 98 96 87 94 91 100 99 98 96 86 86 81 77 74 78 92 87 88 84 86 89 88 94
90 92 99 100 97 96 97 98 98 98 99 93 96 99 100 92 94 90 91 100 100 100 100 100 100 100 99 90 80 93 94 90 93 95 90 98 98 96 97 97 95 94 90 90 93 92 98 99 96
98 100 99 97 91 96 95 98 100 100 99 96 96 100 100 99 100 100 100 100 96 90 94 91 81 73 81 87 90 94 94 90 92 92 90 89 93 99 98 100 99 99 91 88 95 96 98 91 86
74 86 74 97 87 88 97 99 95 96 94 88 88 88 75 71 70 68 66 63 68 77 81 81 80 80 82 83 79 78 80 83 86 90 91 90 87 80 76 81 90 98 100 100 100 100 100 100 98

GFSSGP_850_rhum_114.txt.gz
RH
26 55 66 62 74 84 80 74 72 58 51 38 32 30 30 27 28 42 53 65 61 71 66 75 69 69 68 65 64 68 63 57 55 58 58 61 74 72 47 78 64 88 91 97 57 58 92 64 49
49 63 66 58 79 65 45 72 69 62 48 32 29 26 29 38 37 46 64 64 66 60 58 62 65 65 71 67 62 69 70 64 59 58 59 66 78 61 72 89 87 81 82 92 51 44 46 40 37
59 66 55 78 87 62 42 60 65 44 38 32 27 25 30 55 76 74 81 76 70 60 50 48 60 63 72 66 62 62 66 64 65 62 65 80 78 57 74 86 88 77 57 32 28 28 32 39 45
66 59 64 84 90 74 48 52 54 44 35 30 25 27 24 50 58 88 84 78 74 69 53 46 49 55 59 55 50 52 58 62 65 71 71 78 83 63 80 86 87 56 33 25 26 31 37 43 45
62 54 80 83 82 79 65 57 47 46 38 30 26 25 22 28 46 73 77 70 72 78 65 56 52 56 50 44 42 40 38 46 50 68 71 79 87 80 78 80 79 43 30 30 32 34 40 37 41
55 56 62 66 73 66 61 50 45 39 32 28 25 25 23 24 38 69 76 81 75 82 80 68 60 54 51 53 53 50 45 42 50 50 69 71 81 82 78 75 79 33 31 32 32 33 34 37 39
68 68 63 68 69 60 53 41 41 33 34 30 26 28 23 23 31 58 74 77 81 75 89 84 73 62 65 67 64 57 51 46 50 54 56 77 78 90 80 68 79 32 27 30 31 32 32 36 39
59 66 85 75 67 50 46 38 35 32 33 28 26 30 27 28 36 52 75 69 76 75 76 87 85 82 81 82 76 64 57 45 64 64 65 72 79 88 90 73 58 44 25 28 30 33 34 35 38
56 75 78 64 76 51 47 49 39 39 37 33 29 28 35 30 32 42 71 76 71 73 72 74 81 86 92 90 75 61 55 48 71 71 70 79 83 83 95 85 65 53 26 29 33 35 36 38 37
57 66 60 58 54 50 52 51 48 45 42 41 36 29 27 26 25 28 39 60 82 78 74 73 69 74 74 79 79 67 52 54 64 76 77 66 83 81 88 92 78 55 31 31 35 36 38 40 40
70 65 63 53 49 53 53 50 46 46 50 39 36 33 30 26 23 24 25 32 54 70 79 75 70 71 73 78 84 73 64 60 69 76 81 79 82 89 89 94 84 61 53 34 37 40 38 38 38
60 60 62 58 55 62 64 57 58 51 46 35 29 32 33 32 29 24 25 25 34 50 69 77 76 72 72 74 79 79 70 66 73 82 77 82 93 94 97 99 84 64 52 37 37 38 41 40 38
68 67 65 62 60 60 58 66 64 58 35 34 35 39 38 34 30 25 22 25 27 40 55 67 77 76 74 79 80 82 77 73 69 70 77 70 87 96 98 99 90 81 58 40 39 41 42 40 38
74 75 72 64 64 66 70 66 63 50 34 35 39 38 38 38 35 34 28 22 25 31 43 62 69 77 78 76 75 74 79 74 73 73 69 71 66 85 97 98 95 94 73 51 48 47 44 42 38
75 84 78 68 68 69 67 72 77 33 40 41 40 41 36 37 40 42 36 25 22 26 34 56 66 70 76 79 77 75 77 69 72 65 68 68 62 74 75 95 92 96 87 67 65 56 52 48 43
84 75 79 52 70 60 56 75 50 38 46 48 44 40 40 43 44 44 41 36 22 24 29 45 66 67 67 70 73 79 78 78 64 60 69 68 61 64 86 74 81 88 94 81 74 64 56 47 48
79 91 90 79 60 65 66 79 63 50 51 56 53 46 43 49 49 49 44 37 34 23 25 36 51 64 66 65 66 70 80 70 63 59 53 54 57 62 89 81 77 84 98 96 85 73 60 55 49
83 90 81 89 70 66 79 79 63 57 59 60 58 54 51 54 49 51 50 38 36 26 22 32 46 54 60 58 64 68 66 64 60 61 59 56 58 63 87 95 92 89 100 99 95 71 64 61 52
74 69 70 64 64 75 82 80 70 60 63 70 67 68 61 57 38 44 41 40 37 30 27 29 46 52 56 61 63 66 64 65 66 65 64 68 61 77 89 96 99 100 100 84 93 93 79 66 62
82 84 83 68 64 77 78 78 65 63 66 67 69 73 68 60 42 42 46 46 41 30 32 34 47 52 51 56 57 67 65 72 69 68 71 71 87 89 87 98 99 91 89 84 79 78 82 70 76
92 95 84 74 61 70 80 89 76 64 74 71 71 71 66 59 50 46 51 49 42 32 30 36 41 48 51 51 60 64 77 79 78 71 84 95 94 89 90 91 85 85 90 73 77 83 83 69 74
97 71 70 63 77 95 70 92 67 84 87 76 75 76 71 65 69 56 49 50 31 32 32 36 44 46 49 60 65 68 64 79 78 80 88 98 90 96 100 89 86 81 70 72 62 61 68 75 80
83 72 89 92 96 99 85 99 76 81 87 87 83 81 77 76 69 56 53 52 44 45 51 36 46 56 68 69 76 78 85 91 91 97 99 100 97 95 96 99 96 85 82 57 55 64 59 64 74
72 90 87 94 98 99 87 97 88 97 98 92 82 82 92 98 74 58 56 60 54 49 56 52 52 70 77 80 85 90 93 90 88 96 92 96 90 96 98 100 91 98 99 84 82 69 68 76 76
88 96 94 88 98 93 98 100 99 97 93 96 95 98 100 98 99 98 87 70 61 58 52 60 67 71 80 83 85 88 87 92 83 90 96 96 99 99 100 100 100 100 88 88 86 79 76 80 84
88 96 98 98 98 94 93 98 97 93 87 95 99 100 88 89 99 100 100 100 73 63 64 66 71 76 82 96 100 99 100 100 97 95 100 100 100 99 98 97 97 93 90 89 87 86 82 81 79
91 100 94 100 94 98 98 98 90 84 93 89 95 99 99 89 100 100 98 100 100 77 74 81 80 84 94 100 99 95 100 100 100 100 100 100 99 99 98 98 97 92 90 84 83 75 75 80 84
90 90 100 100 97 96 97 98 98 98 99 94 94 98 99 95 97 100 100 100 99 99 96 98 99 98 97 100 99 98 97 97 97 95 93 95 95 97 95 93 89 85 87 92 87 94 91 90 89
98 100 100 99 97 96 94 98 100 100 100 99 94 97 99 99 94 94 100 100 100 100 100 100 100 100 100 91 96 100 99 100 100 100 98 98 100 99 100 100 100 100 100 100 97 99 98 98 96
85 94 90 95 98 88 95 99 94 96 93 87 85 86 80 72 76 80 84 90 92 94 92 96 100 94 92 89 89 93 97 99 100 100 99 98 93 87 78 86 97 99 100 100 99 98 100 100 100

GFSSGP_850_rhum_117.txt.gz
RH
52 63 67 59 53 58 59 49 68 58 54 41 34 32 29 28 27 40 67 78 79 80 72 74 70 71 75 72 67 65 65 65 63 72 63 59 69 70 50 55 60 96 99 68 86 90 61 66 46
45 63 67 51 57 42 28 59 63 56 46 34 32 28 30 32 65 75 77 91 82 85 83 80 67 64 69 71 67 67 66 58 58 56 58 59 70 65 62 73 89 94 95 77 82 42 51 37 34
58 66 53 56 61 37 26 49 56 45 35 31 28 26 34 60 60 69 82 87 89 83 86 86 72 65 71 67 67 66 68 65 60 58 56 65 74 64 85 84 85 80 85 51 31 31 33 34 34
67 59 60 65 58 58 41 52 53 42 36 28 25 27 39 33 41 59 75 80 82 79 75 80 71 68 68 67 64 63 66 62 62 65 76 79 79 69 83 85 83 73 46 30 26 32 39 42 41
63 51 63 63 60 67 62 57 48 43 38 32 26 26 25 30 38 72 78 75 88 81 66 66 67 69 70 64 59 58 58 59 61 67 70 68 81 81 82 86 82 60 29 24 29 36 42 42 39
48 42 47 44 53 57 56 53 50 39 35 28 26 26 24 26 29 69 81 80 86 90 75 62 84 68 68 68 60 53 51 52 55 62 69 67 76 85 83 80 80 50 27 28 31 36 40 40 38
58 45 38 47 49 51 46 44 45 40 34 31 27 27 24 26 30 54 83 79 77 84 93 88 72 61 59 55 54 54 54 52 55 57 65 73 75 84 86 82 79 46 29 30 32 33 34 38 40
52 56 68 64 56 39 48 40 36 34 35 30 27 28 26 28 30 37 70 75 74 76 79 94 91 81 58 59 64 64 60 56 60 68 66 72 82 86 87 81 76 59 28 32 32 32 32 36 39
53 58 57 51 63 44 48 45 41 40 38 33 29 28 26 26 25 29 47 76 82 79 76 80 89 90 82 72 72 78 71 56 49 62 68 74 82 84 90 90 73 69 27 29 30 32 33 37 38
55 48 46 53 58 50 53 52 48 43 42 39 33 27 26 25 24 25 27 44 69 81 80 73 79 81 87 84 88 86 74 60 45 67 69 75 74 84 84 94 86 66 47 28 30 34 37 38 38
65 52 57 53 53 56 55 52 47 49 46 37 30 20 23 23 23 22 22 26 36 62 77 79 74 72 72 75 77 78 78 75 65 57 72 73 70 82 83 92 97 85 62 35 33 37 40 39 38
51 60 64 58 57 63 62 58 59 51 40 29 33 33 34 26 22 19 18 21 24 32 56 72 78 73 71 72 74 78 81 75 74 72 73 75 73 79 87 90 95 94 72 56 36 38 39 43 43
63 69 66 61 59 59 57 64 58 59 28 32 33 38 38 32 26 22 18 16 19 23 37 54 66 72 72 73 70 76 80 77 75 76 83 81 71 73 84 92 88 97 89 59 46 39 44 46 45
74 76 73 61 62 65 66 62 65 40 30 33 37 38 38 39 34 31 32 20 15 18 24 38 53 66 76 75 72 78 77 80 80 81 72 78 70 68 73 85 92 99 92 80 66 44 46 48 50
74 71 69 64 67 67 70 72 76 28 44 42 37 38 40 34 34 35 34 37 29 17 20 26 40 62 74 76 76 77 76 79 81 78 74 74 80 76 76 79 77 80 90 89 90 72 57 54 54
77 68 57 49 64 61 58 60 48 42 50 48 43 39 39 40 32 37 44 43 40 28 18 24 32 56 71 79 80 78 79 78 78 77 72 74 73 73 71 80 82 84 92 83 92 83 82 68 58
72 71 83 73 61 67 68 71 58 46 51 55 57 50 47 47 40 36 40 44 44 36 24 24 27 42 69 72 80 84 86 86 82 74 74 64 60 61 63 67 82 91 91 92 93 85 93 79 68
82 87 76 80 65 64 73 76 61 59 58 59 59 61 58 55 48 41 43 46 47 38 27 26 25 30 52 72 72 77 85 83 80 78 76 62 59 56 56 56 66 94 96 90 97 92 58 72 75
76 73 78 67 58 72 77 76 62 56 59 62 66 67 65 63 56 54 46 43 49 38 33 26 27 26 37 56 76 75 68 64 64 66 63 61 60 59 59 58 65 69 96 99 100 100 86 78 78
84 91 86 69 64 74 70 67 58 60 64 69 69 70 68 67 58 49 43 41 42 40 37 29 29 25 30 57 63 62 55 54 54 58 58 66 66 60 66 67 66 81 100 100 100 100 87 85 80
90 90 85 77 67 62 72 77 68 57 73 69 64 68 74 75 66 51 45 44 48 48 44 35 30 28 28 52 59 64 68 68 64 58 59 63 67 64 73 94 88 90 92 95 99 98 82 84 71
90 74 74 77 86 93 66 92 71 79 74 70 80 83 80 76 69 58 51 45 46 44 44 38 32 31 32 51 58 72 60 59 50 58 68 70 76 89 99 97 90 89 96 96 100 88 78 75 59
76 71 85 90 96 99 81 98 75 77 79 90 85 80 89 93 100 75 57 53 55 40 33 32 33 34 37 45 51 71 74 71 69 77 77 81 83 89 89 99 92 95 93 84 97 98 77 77 76
68 85 86 91 82 98 79 91 83 98 100 94 84 95 98 98 99 97 68 57 55 53 47 46 48 37 40 46 54 73 70 74 78 90 89 84 87 95 98 100 100 98 99 77 75 80 75 67 62
89 94 96 85 97 90 84 100 94 96 94 94 97 96 99 100 95 98 99 80 63 53 52 50 56 37 42 50 69 65 78 77 81 94 96 92 86 90 90 100 94 94 99 95 84 66 68 70 67
84 87 96 97 92 88 88 95 94 80 90 93 94 97 98 100 97 99 100 99 94 58 54 52 50 54 58 72 74 78 74 71 87 92 97 99 92 93 100 100 100 100 99 93 98 85 80 91 91
94 99 85 100 91 96 90 96 92 77 92 94 96 96 99 100 98 100 100 100 84 70 67 66 67 70 70 76 76 72 81 92 97 94 99 99 98 100 100 99 100 96 93 94 97 99 93 88 88
91 86 100 99 98 92 86 97 98 98 99 97 96 97 96 94 99 100 100 100 99 83 80 80 74 81 80 83 97 93 99 100 100 100 100 100 99 98 100 97 99 100 99 99 97 90 86 89 93
98 100 100 99 99 94 92 93 99 100 98 97 92 92 94 86 99 100 100 100 100 100 100 100 99 100 100 97 99 92 100 100 100 96 97 99 100 100 100 99 100 100 99 99 97 95 94 95 100
87 94 92 95 96 92 93 98 86 87 92 88 88 84 76 78 81 86 86 96 97 98 100 99 97 100 99 100 100 100 100 100 100 100 100 99 100 97 94 92 96 99 100 100 100 100 100 100 97